[[{"header":{"parameterUnit":"m.s-1","parameterCategory":1,"la1":30.6,"la2":28.766,"lo1":-90.7593,"lo2":-88.6598,"dy":0.0162,"dx":0.0183,"nx":116,"ny":114,"refTime":"2023-03-21T06:00:00:Z","depth":0,"parameterNumber":2,"parameterNumberName":"U-component_of_WINDS"},"data":[0.0,0.0,0.0,0.0,0.0,0.0,0.0,0.0,0.0,0.0,0.0,0.0,0.0,0.0,0.0,0.0,0.0,0.0,0.0,0.0,0.0,0.0,0.0,0.0,0.0,0.0,0.0,0.0,0.0,0.0,0.0,0.0,0.0,0.0,0.0,0.0,0.0,0.0,0.0,0.0,0.0,0.0,0.0,0.0,0.0,0.0,0.0,0.0,0.0,0.0,0.0,0.0,0.0,0.0,0.0,0.0,0.0,0.0,0.0,0.0,0.0,0.0,0.0,0.0,0.0,0.0,0.0,0.0,0.0,0.0,0.0,0.0,0.0,0.0,0.0,0.0,0.0,0.0,0.0,0.0,0.0,0.0,0.0,0.0,0.0,0.0,0.0,0.0,0.0,0.0,0.0,0.0,0.0,0.0,0.0,0.0,0.0,0.0,0.0,0.0,0.0,0.0,0.0,0.0,0.0,0.0,0.0,0.0,0.0,0.0,0.0,0.0,0.0,0.0,0.0,0.0,0.0,0.0,0.0,0.0,0.0,0.0,0.0,0.0,0.0,0.0,0.0,0.0,0.0,0.0,0.0,0.0,0.0,0.0,0.0,0.0,0.0,0.0,0.0,0.0,0.0,0.0,0.0,0.0,0.0,0.0,0.0,0.0,0.0,0.0,0.0,0.0,0.0,0.0,0.0,0.0,0.0,0.0,0.0,0.0,0.0,0.0,0.0,0.0,0.0,0.0,0.0,0.0,0.0,0.0,0.0,0.0,0.0,0.0,0.0,0.0,0.0,0.0,0.0,0.0,0.0,0.0,0.0,0.0,0.0,0.0,0.0,0.0,0.0,0.0,0.0,0.0,0.0,0.0,0.0,0.0,0.0,0.0,0.0,0.0,0.0,0.0,0.0,0.0,0.0,0.0,0.0,0.0,0.0,0.0,0.0,0.0,0.0,0.0,0.0,0.0,0.0,0.0,0.0,0.0,0.0,0.0,0.0,0.0,0.0,0.0,0.0,0.0,0.0,0.0,0.0,0.0,0.0,0.0,0.0,0.0,0.0,0.0,0.0,0.0,0.0,0.0,0.0,0.0,0.0,0.0,0.0,0.0,0.0,0.0,0.0,0.0,0.0,0.0,0.0,0.0,0.0,0.0,0.0,0.0,0.0,0.0,0.0,0.0,0.0,0.0,0.0,0.0,0.0,0.0,0.0,0.0,0.0,0.0,0.0,0.0,0.0,0.0,0.0,0.0,0.0,0.0,0.0,0.0,0.0,0.0,0.0,0.0,0.0,0.0,0.0,0.0,0.0,0.0,0.0,0.0,0.0,0.0,0.0,0.0,0.0,0.0,0.0,0.0,0.0,0.0,0.0,0.0,0.0,0.0,0.0,0.0,0.0,0.0,0.0,0.0,0.0,0.0,0.0,0.0,0.0,0.0,0.0,0.0,0.0,0.0,0.0,0.0,0.0,0.0,0.0,0.0,0.0,0.0,0.0,0.0,0.0,0.0,0.0,0.0,0.0,0.0,0.0,0.0,0.0,0.0,0.0,0.0,0.0,0.0,0.0,0.0,0.0,0.0,0.0,0.0,0.0,0.0,0.0,0.0,0.0,0.0,0.0,0.0,0.0,0.0,0.0,0.0,0.0,0.0,0.0,0.0,0.0,0.0,0.0,0.0,0.0,0.0,0.0,0.0,0.0,0.0,0.0,0.0,0.0,0.0,0.0,0.0,0.0,0.0,0.0,0.0,0.0,0.0,0.0,0.0,0.0,0.0,0.0,0.0,0.0,0.0,0.0,0.0,0.0,0.0,0.0,0.0,0.0,0.0,0.0,0.0,0.0,0.0,0.0,0.0,0.0,0.0,0.0,0.0,0.0,0.0,0.0,0.0,0.0,0.0,0.0,0.0,0.0,0.0,0.0,0.0,0.0,0.0,0.0,0.0,0.0,0.0,0.0,0.0,0.0,0.0,0.0,0.0,0.0,0.0,0.0,0.0,0.0,0.0,0.0,0.0,0.0,0.0,0.0,0.0,0.0,0.0,0.0,0.0,0.0,0.0,0.0,0.0,0.0,0.0,0.0,0.0,0.0,0.0,0.0,0.0,0.0,0.0,0.0,0.0,0.0,0.0,0.0,0.0,0.0,0.0,0.0,0.0,0.0,0.0,0.0,0.0,0.0,0.0,0.0,0.0,0.0,0.0,0.0,0.0,0.0,0.0,0.0,0.0,0.0,0.0,0.0,0.0,0.0,0.0,0.0,0.0,0.0,0.0,0.0,0.0,0.0,0.0,0.0,0.0,0.0,0.0,0.0,0.0,0.0,0.0,0.0,0.0,0.0,0.0,0.0,0.0,0.0,0.0,0.0,0.0,0.0,0.0,0.0,0.0,0.0,0.0,0.0,0.0,0.0,0.0,0.0,0.0,0.0,0.0,0.0,0.0,0.0,0.0,0.0,0.0,0.0,0.0,0.0,0.0,0.0,0.0,0.0,0.0,0.0,0.0,0.0,0.0,0.0,0.0,0.0,0.0,0.0,0.0,0.0,0.0,0.0,0.0,0.0,0.0,0.0,0.0,0.0,0.0,0.0,0.0,0.0,0.0,0.0,0.0,0.0,0.0,0.0,0.0,0.0,0.0,0.0,0.0,0.0,0.0,0.0,0.0,0.0,0.0,0.0,0.0,0.0,0.0,0.0,0.0,0.0,0.0,0.0,0.0,0.0,0.0,0.0,0.0,0.0,0.0,0.0,0.0,0.0,0.0,0.0,0.0,0.0,0.0,0.0,0.0,0.0,0.0,0.0,0.0,0.0,0.0,0.0,0.0,0.0,0.0,0.0,0.0,0.0,0.0,0.0,0.0,0.0,0.0,0.0,0.0,0.0,0.0,0.0,0.0,0.0,0.0,0.0,0.0,0.0,0.0,0.0,0.0,0.0,0.0,0.0,0.0,0.0,0.0,0.0,0.0,0.0,0.0,0.0,0.0,0.0,0.0,0.0,0.0,0.0,0.0,0.0,0.0,0.0,0.0,0.0,0.0,0.0,0.0,0.0,0.0,0.0,0.0,0.0,0.0,0.0,0.0,0.0,0.0,0.0,0.0,0.0,0.0,0.0,0.0,0.0,0.0,0.0,0.0,0.0,0.0,0.0,0.0,0.0,0.0,0.0,0.0,0.0,0.0,0.0,0.0,0.0,0.0,0.0,0.0,0.0,0.0,0.0,0.0,0.0,0.0,0.0,0.0,0.0,0.0,0.0,0.0,0.0,0.0,0.0,0.0,0.0,0.0,0.0,0.0,0.0,0.0,0.0,0.0,0.0,0.0,0.0,0.0,0.0,0.0,0.0,0.0,0.0,0.0,0.0,0.0,0.0,0.0,0.0,0.0,0.0,0.0,0.0,0.0,0.0,0.0,0.0,0.0,0.0,0.0,0.0,0.0,0.0,0.0,0.0,0.0,0.0,0.0,0.0,0.0,0.0,0.0,0.0,0.0,0.0,0.0,0.0,0.0,0.0,0.0,0.0,0.0,0.0,0.0,0.0,0.0,0.0,0.0,0.0,0.0,0.0,0.0,0.0,0.0,0.0,0.0,0.0,0.0,0.0,0.0,0.0,0.0,0.0,0.0,0.0,0.0,0.0,0.0,0.0,0.0,0.0,0.0,0.0,0.0,0.0,0.0,0.0,0.0,0.0,0.0,0.0,0.0,0.0,0.0,0.0,0.0,0.0,0.0,0.0,0.0,0.0,0.0,0.0,0.0,0.0,0.0,0.0,0.0,0.0,0.0,0.0,0.0,0.0,0.0,0.0,0.0,0.0,0.0,0.0,0.0,0.0,0.0,0.0,0.0,0.0,0.0,0.0,0.0,0.0,0.0,0.0,0.0,0.0,0.0,0.0,0.0,0.0,0.0,0.0,0.0,0.0,0.0,0.0,0.0,0.0,0.0,0.0,0.0,0.0,0.0,0.0,0.0,0.0,0.0,0.0,0.0,0.0,0.0,0.0,0.0,0.0,0.0,0.0,0.0,0.0,0.0,0.0,0.0,0.0,0.0,0.0,0.0,0.0,0.0,0.0,0.0,0.0,0.0,0.0,0.0,0.0,0.0,0.0,0.0,0.0,0.0,0.0,0.0,0.0,0.0,0.0,0.0,0.0,0.0,0.0,0.0,0.0,0.0,0.0,0.0,0.0,0.0,0.0,0.0,0.0,0.0,0.0,0.0,0.0,0.0,0.0,0.0,0.0,0.0,0.0,0.0,0.0,0.0,0.0,0.0,0.0,0.0,0.0,0.0,0.0,0.0,0.0,0.0,0.0,0.0,0.0,0.0,0.0,0.0,0.0,0.0,0.0,0.0,0.0,0.0,0.0,0.0,0.0,0.0,0.0,0.0,0.0,0.0,0.0,0.0,0.0,0.0,0.0,0.0,0.0,0.0,0.0,0.0,0.0,0.0,0.0,0.0,0.0,0.0,0.0,0.0,0.0,0.0,0.0,0.0,0.0,0.0,0.0,0.0,0.0,0.0,0.0,0.0,0.0,0.0,0.0,0.0,0.0,0.0,0.0,0.0,0.0,0.0,0.0,0.0,0.0,0.0,0.0,0.0,0.0,0.0,0.0,0.0,0.0,0.0,0.0,0.0,0.0,0.0,0.0,0.0,0.0,0.0,0.0,0.0,0.0,0.0,0.0,0.0,0.0,0.0,0.0,0.0,0.0,0.0,0.0,0.0,0.0,0.0,0.0,0.0,0.0,0.0,0.0,0.0,0.0,0.0,0.0,0.0,0.0,0.0,0.0,0.0,0.0,0.0,0.0,0.0,0.0,0.0,0.0,0.0,0.0,0.0,0.0,0.0,0.0,0.0,0.0,0.0,0.0,0.0,0.0,0.0,0.0,0.0,0.0,0.0,0.0,0.0,0.0,0.0,0.0,0.0,0.0,0.0,0.0,0.0,0.0,0.0,0.0,0.0,0.0,0.0,0.0,0.0,0.0,0.0,0.0,0.0,0.0,0.0,0.0,0.0,0.0,0.0,0.0,0.0,0.0,0.0,0.0,0.0,0.0,0.0,0.0,0.0,0.0,0.0,0.0,0.0,0.0,0.0,0.0,0.0,0.0,0.0,0.0,0.0,0.0,0.0,0.0,0.0,0.0,0.0,0.0,0.0,0.0,0.0,0.0,0.0,0.0,0.0,0.0,0.0,0.0,0.0,0.0,0.0,0.0,0.0,0.0,0.0,0.0,0.0,0.0,0.0,0.0,0.0,0.0,0.0,0.0,0.0,0.0,0.0,0.0,0.0,0.0,0.0,0.0,0.0,0.0,0.0,0.0,0.0,0.0,0.0,0.0,0.0,0.0,0.0,0.0,0.0,0.0,0.0,0.0,0.0,0.0,0.0,0.0,0.0,0.0,0.0,0.0,0.0,0.0,0.0,0.0,0.0,0.0,0.0,0.0,0.0,0.0,0.0,0.0,0.0,0.0,0.0,0.0,0.0,0.0,0.0,0.0,0.0,0.0,0.0,0.0,0.0,0.0,0.0,0.0,0.0,0.0,0.0,0.0,0.0,0.0,0.0,0.0,0.0,0.0,0.0,0.0,0.0,0.0,0.0,0.0,0.0,0.0,0.0,0.0,0.0,0.0,0.0,0.0,0.0,0.0,0.0,0.0,0.0,0.0,0.0,0.0,0.0,0.0,0.0,0.0,0.0,0.0,0.0,0.0,0.0,0.0,0.0,0.0,0.0,0.0,0.0,0.0,0.0,0.0,0.0,0.0,0.0,0.0,0.0,0.0,0.0,0.0,0.0,0.0,0.0,0.0,0.0,0.0,0.0,0.0,0.0,0.0,0.0,0.0,0.0,0.0,0.0,0.0,0.0,0.0,0.0,0.0,0.0,0.0,0.0,0.0,0.0,0.0,0.0,0.0,0.0,0.0,0.0,0.0,0.0,0.0,0.0,0.0,0.0,0.0,0.0,0.0,0.0,0.0,0.0,0.0,0.0,0.0,0.0,0.0,0.0,0.0,0.0,0.0,0.0,0.0,0.0,0.0,0.0,0.0,0.0,0.0,0.0,0.0,0.0,0.0,0.0,0.0,0.0,0.0,0.0,0.0,0.0,0.0,0.0,0.0,0.0,0.0,0.0,-1.7373,0.0,0.0,0.0,0.0,0.0,0.0,0.0,0.0,0.0,0.0,0.0,0.0,0.0,0.0,0.0,0.0,0.0,0.0,0.0,0.0,0.0,0.0,0.0,0.0,0.0,0.0,0.0,0.0,0.0,0.0,0.0,0.0,0.0,0.0,0.0,0.0,0.0,0.0,0.0,0.0,0.0,0.0,0.0,0.0,0.0,0.0,0.0,0.0,0.0,0.0,0.0,0.0,0.0,0.0,0.0,0.0,0.0,0.0,0.0,0.0,0.0,0.0,0.0,0.0,0.0,0.0,0.0,0.0,0.0,0.0,0.0,0.0,0.0,0.0,0.0,0.0,0.0,0.0,0.0,0.0,0.0,0.0,0.0,0.0,0.0,0.0,0.0,0.0,0.0,0.0,0.0,0.0,0.0,0.0,0.0,0.0,0.0,0.0,0.0,0.0,0.0,0.0,0.0,0.0,0.0,0.0,0.0,0.0,0.0,0.0,0.0,0.0,0.0,0.0,0.0,0.0,-1.7104,0.0,0.0,0.0,0.0,0.0,0.0,0.0,0.0,0.0,0.0,0.0,0.0,0.0,0.0,0.0,0.0,0.0,0.0,0.0,0.0,0.0,0.0,0.0,0.0,0.0,0.0,0.0,0.0,0.0,0.0,0.0,0.0,0.0,0.0,0.0,0.0,0.0,0.0,0.0,0.0,0.0,0.0,0.0,0.0,0.0,0.0,0.0,0.0,0.0,0.0,0.0,0.0,0.0,0.0,0.0,0.0,0.0,0.0,0.0,0.0,0.0,0.0,0.0,0.0,0.0,0.0,0.0,0.0,0.0,0.0,0.0,0.0,0.0,0.0,0.0,0.0,0.0,0.0,0.0,0.0,0.0,0.0,0.0,0.0,0.0,0.0,0.0,0.0,0.0,0.0,0.0,0.0,0.0,0.0,0.0,0.0,0.0,0.0,0.0,0.0,0.0,0.0,0.0,0.0,0.0,0.0,0.0,0.0,-2.4861,-2.4708,-2.3295,-2.3917,-2.3308,-2.1608,-1.9175,-1.7705,-1.7039,-1.6741,0.0,0.0,0.0,0.0,0.0,0.0,0.0,0.0,0.0,0.0,0.0,0.0,0.0,0.0,0.0,0.0,0.0,0.0,0.0,0.0,0.0,0.0,0.0,0.0,0.0,0.0,0.0,0.0,0.0,0.0,0.0,0.0,0.0,0.0,0.0,0.0,0.0,0.0,-2.7781,-2.8862,-2.9435,-2.9489,-2.8204,0.0,0.0,0.0,0.0,0.0,0.0,0.0,0.0,0.0,0.0,0.0,0.0,0.0,0.0,0.0,0.0,0.0,0.0,0.0,0.0,0.0,0.0,0.0,0.0,0.0,0.0,0.0,0.0,0.0,0.0,0.0,0.0,0.0,0.0,0.0,0.0,0.0,0.0,0.0,0.0,0.0,0.0,0.0,-2.3259,-2.4782,0.0,0.0,0.0,0.0,0.0,0.0,0.0,0.0,0.0,0.0,0.0,0.0,0.0,-2.56,-2.6686,-2.6941,-2.6155,-2.4356,-2.5522,-2.503,-2.3152,-2.423,-2.3965,-2.2696,-2.2313,0.0,-2.0007,-1.8559,0.0,0.0,0.0,0.0,0.0,0.0,0.0,0.0,0.0,0.0,0.0,0.0,0.0,0.0,0.0,0.0,0.0,0.0,0.0,0.0,0.0,0.0,0.0,0.0,0.0,0.0,0.0,0.0,0.0,0.0,0.0,0.0,0.0,0.0,0.0,0.0,-2.8749,-2.8802,-2.8477,-2.8627,-2.8405,-2.7891,-2.7151,-2.7728,-2.9148,-2.8698,0.0,0.0,0.0,0.0,0.0,0.0,0.0,0.0,0.0,0.0,0.0,0.0,0.0,0.0,0.0,0.0,0.0,0.0,0.0,0.0,0.0,0.0,0.0,0.0,0.0,0.0,0.0,0.0,0.0,0.0,0.0,0.0,0.0,0.0,0.0,0.0,0.0,0.0,0.0,-2.4516,-2.5323,-2.5266,-2.6482,-2.7328,0.0,0.0,0.0,0.0,0.0,0.0,0.0,0.0,0.0,-2.6297,-2.6946,-2.7575,-2.8169,-2.8051,-2.7637,-2.6925,-2.6958,-2.662,-2.5916,-2.644,-2.618,-2.5348,-2.504,-2.4188,-2.279,-1.9881,-1.8893,-1.9093,0.0,0.0,0.0,0.0,-1.8196,-1.8385,0.0,0.0,0.0,0.0,0.0,0.0,0.0,0.0,0.0,0.0,0.0,0.0,0.0,0.0,0.0,-2.9679,0.0,0.0,0.0,0.0,0.0,0.0,0.0,0.0,0.0,0.0,0.0,0.0,-3.0308,-3.0287,-2.9693,-2.9033,-2.8381,-2.7691,-2.7284,-2.7854,-2.9099,-2.8619,-2.8337,0.0,0.0,0.0,0.0,0.0,0.0,0.0,0.0,0.0,0.0,0.0,0.0,0.0,0.0,0.0,0.0,0.0,0.0,0.0,0.0,0.0,0.0,0.0,0.0,0.0,0.0,0.0,0.0,0.0,0.0,0.0,0.0,0.0,0.0,0.0,0.0,0.0,0.0,-2.5926,-2.7018,-2.5885,-2.7898,-2.9033,0.0,0.0,0.0,0.0,0.0,0.0,-2.8788,-2.8898,-2.8829,-2.8603,-2.925,-2.9684,-2.9849,-2.9693,-2.9628,-2.965,-2.9201,-2.9016,-2.9037,-2.9179,-2.8762,-2.7834,-2.7449,-2.6477,-2.4961,-2.1538,-2.0071,-1.9875,-1.8669,-1.838,-1.8596,-1.8417,-1.8616,-1.8859,0.0,0.0,0.0,0.0,0.0,0.0,0.0,0.0,0.0,0.0,0.0,0.0,0.0,0.0,-2.9329,-2.9665,-3.0086,-3.0539,0.0,0.0,0.0,0.0,0.0,0.0,0.0,0.0,0.0,-3.0258,-3.0799,-3.1272,-3.164,-3.124,-3.1008,-3.0908,-2.9426,-2.9025,-2.9331,-2.7022,-2.7568,-2.9759,0.0,0.0,0.0,0.0,0.0,0.0,0.0,0.0,0.0,0.0,0.0,0.0,0.0,0.0,0.0,0.0,0.0,0.0,0.0,0.0,0.0,0.0,0.0,0.0,0.0,0.0,0.0,0.0,0.0,0.0,0.0,0.0,0.0,0.0,0.0,0.0,0.0,0.0,0.0,-2.7059,-2.8956,0.0,0.0,0.0,0.0,-2.9835,-2.9477,-2.9518,-3.0171,-3.0322,-3.0685,-3.1286,-3.1944,-3.2617,-3.3245,-3.3245,-3.2828,-3.2022,-3.2557,-3.239,-3.1647,-3.2142,-3.1278,-2.9377,-2.935,-2.8222,-2.6235,-2.3873,-2.2366,-2.1533,-2.0953,-2.0465,-1.9997,-1.9304,-1.9073,-1.8994,0.0,0.0,0.0,0.0,0.0,0.0,0.0,0.0,0.0,0.0,0.0,0.0,0.0,-2.9729,-3.0261,-3.0822,-3.1477,-3.1806,-3.1757,0.0,0.0,0.0,0.0,0.0,0.0,0.0,-3.0485,-3.2373,-3.2756,-3.3035,-3.3206,-3.3073,-3.2357,-3.1167,-3.0649,-3.0132,-2.9588,-2.8139,-2.7641,-2.788,-2.7639,-2.7487,0.0,0.0,0.0,0.0,0.0,0.0,0.0,0.0,0.0,0.0,0.0,0.0,0.0,0.0,0.0,0.0,0.0,0.0,0.0,0.0,0.0,0.0,0.0,0.0,0.0,0.0,0.0,0.0,0.0,0.0,0.0,0.0,0.0,0.0,0.0,0.0,0.0,-3.0596,-3.2472,0.0,-3.1961,-3.1391,-3.1206,-3.139,-3.13,-3.154,-3.2271,-3.2382,-3.2736,-3.341,-3.3649,-3.4098,-3.4786,-3.38,-3.3321,-3.335,-3.2594,-3.2263,-3.2311,-3.2061,-3.1364,-3.031,-2.9896,-2.8786,-2.7198,-2.6401,-2.5016,-2.3259,-2.2161,-2.164,-2.1453,-2.1184,-2.0525,-1.9706,0.0,0.0,0.0,0.0,0.0,0.0,0.0,0.0,0.0,0.0,0.0,-2.8195,-2.9383,-2.9868,-3.0352,-3.0872,-3.1414,-3.17,-3.1617,0.0,0.0,0.0,0.0,0.0,0.0,-2.9966,-3.1295,-3.3376,-3.3804,-3.3993,-3.3993,-3.3671,-3.2713,-3.118,-3.0871,-3.0381,-2.9755,-2.9127,-2.8369,-2.7519,-2.7407,-2.7519,-2.764,0.0,0.0,0.0,0.0,0.0,0.0,0.0,0.0,0.0,0.0,0.0,0.0,0.0,0.0,0.0,0.0,0.0,0.0,0.0,0.0,0.0,0.0,0.0,0.0,0.0,0.0,0.0,0.0,0.0,0.0,0.0,0.0,0.0,0.0,0.0,-3.2729,-3.3201,-3.5099,-3.5685,-3.3952,-3.3338,-3.3045,-3.2934,-3.2982,-3.3358,-3.4058,-3.4165,-3.4382,-3.4801,-3.4848,-3.504,-3.5504,-3.4493,-3.4153,-3.4495,-3.3523,-3.3218,-3.3567,-3.3121,-3.2447,-3.1578,-3.0895,-2.9793,-2.8404,-2.7735,-2.6528,-2.5031,-2.3686,-2.2833,-2.2396,-2.2554,-2.2059,-2.1215,0.0,0.0,0.0,0.0,0.0,0.0,0.0,0.0,0.0,0.0,-2.6907,-2.7525,-2.8584,-2.901,-2.9357,-2.9793,-2.9729,-2.9931,-3.0534,-2.929,0.0,0.0,0.0,0.0,-2.8816,-2.9959,-3.1386,-3.3097,-3.3638,-3.391,-3.3945,-3.3031,-3.2105,-3.118,-3.0267,-2.9855,-2.9817,-2.9817,-2.9604,-2.9065,-2.6895,-2.7081,-2.8547,0.0,0.0,0.0,0.0,0.0,0.0,0.0,0.0,0.0,0.0,0.0,0.0,0.0,0.0,0.0,0.0,0.0,0.0,0.0,0.0,0.0,0.0,0.0,0.0,0.0,0.0,0.0,0.0,0.0,0.0,0.0,0.0,0.0,-3.0224,-3.2812,-3.4655,-3.4643,-3.6603,-3.7103,-3.4848,-3.4671,-3.4643,-3.4484,-3.4515,-3.4801,-3.5474,-3.5504,-3.5504,-3.5504,-3.5504,-3.5504,-3.5504,-3.5504,-3.5504,-3.5504,-3.5504,-3.5504,-3.5504,-3.5459,-3.462,-3.3151,-3.2468,-3.134,-2.9841,-2.7825,-2.6942,-2.6744,-2.5487,-2.4119,-2.2842,-2.3408,-2.3576,-2.3461,0.0,0.0,0.0,0.0,0.0,0.0,0.0,0.0,0.0,0.0,-2.6793,-2.7779,-2.8399,-2.9163,-2.9834,-3.0331,-2.9372,-2.9037,-2.9747,0.0,0.0,0.0,0.0,0.0,-3.006,-2.9751,-3.0632,-3.2723,-3.2239,-3.2321,-3.2996,-3.2713,-3.2105,-3.1193,-3.1339,-3.1022,-3.0394,-3.0394,-3.0324,-3.0088,-2.8802,-2.8381,-2.8419,0.0,0.0,0.0,0.0,0.0,0.0,0.0,0.0,0.0,0.0,0.0,0.0,0.0,0.0,0.0,0.0,0.0,0.0,0.0,0.0,0.0,0.0,0.0,0.0,0.0,0.0,0.0,0.0,0.0,0.0,0.0,0.0,-3.2723,-3.3225,-3.4964,-3.6592,-3.7628,-3.8785,-3.9026,-3.7824,-3.7231,-3.6663,-3.6042,-3.5516,-3.531,-3.5489,-3.5504,-3.5504,-3.5504,-3.5504,-3.5504,-3.5504,-3.5504,-3.5504,-3.5504,-3.5504,-3.5504,-3.5474,-3.4487,-3.3809,-3.3354,-3.2197,-3.1127,-3.0178,-2.9608,-2.8167,-2.6266,-2.5686,-2.5173,-2.4883,-2.5444,-2.4988,-2.3933,0.0,0.0,0.0,0.0,0.0,0.0,0.0,0.0,0.0,0.0,-2.6903,-2.8051,-2.8491,-2.9428,-2.991,-2.9591,-2.9213,-2.8832,-2.845,0.0,0.0,0.0,0.0,-2.9045,-3.0236,-2.9943,-3.0749,-3.2691,-3.2157,-3.2157,-3.2691,-3.2691,-3.2195,-3.1293,-3.1617,-3.1442,-3.0947,-3.0947,-3.0947,-3.0899,-3.0343,-2.9685,-2.8905,-2.8027,-2.8018,-2.8287,-2.752,-2.8258,-2.9417,-2.8076,0.0,0.0,0.0,0.0,0.0,0.0,0.0,0.0,0.0,0.0,0.0,0.0,0.0,0.0,0.0,0.0,0.0,0.0,0.0,0.0,0.0,0.0,0.0,0.0,-3.3795,-3.5234,-3.6236,-3.6915,-3.7842,-3.9285,-3.9842,-3.9782,-3.8962,-3.8218,-3.7485,-3.6661,-3.5926,-3.5504,-3.5504,-3.5782,-3.5814,-3.5504,-3.5814,-3.5814,-3.5504,-3.5504,-3.5355,-3.507,-3.507,-3.4936,-3.4637,-3.3858,-3.3499,-3.344,-3.2392,-3.1649,-3.1158,-3.0291,-2.896,0.0,0.0,0.0,0.0,0.0,-2.6868,-2.5855,0.0,0.0,0.0,0.0,0.0,0.0,0.0,0.0,0.0,0.0,0.0,-2.812,-2.8483,-2.9611,-2.9774,-2.8397,-2.9059,-2.882,0.0,0.0,0.0,-2.7712,-2.8165,-2.8888,-2.9955,-3.0457,-3.1336,-3.2633,-3.2633,-3.2633,-3.2633,-3.2633,-3.2183,-3.1386,-3.1449,-3.1486,-3.1486,-3.1486,-3.1486,-3.1474,-3.1411,-3.0783,-2.9731,-2.8385,-2.8395,-2.9095,-2.8691,-2.8722,-2.8874,-2.8143,0.0,0.0,0.0,0.0,0.0,0.0,0.0,0.0,0.0,0.0,0.0,0.0,0.0,0.0,0.0,0.0,0.0,0.0,0.0,0.0,0.0,0.0,0.0,0.0,-3.6603,-3.7692,-3.9157,-3.8873,-3.8918,-4.0088,-4.0299,-4.0026,-3.9245,-3.8403,-3.7594,-3.6798,-3.599,-3.5504,-3.5504,0.0,0.0,0.0,0.0,-3.6165,-3.5504,-3.5504,-3.516,-3.4503,-3.4503,-3.4159,-3.3499,-3.3425,-3.338,-3.335,-3.2691,-3.2378,-3.2243,-3.0397,-2.9595,-2.9421,-2.8426,-2.7356,-2.6636,-2.8351,-2.8688,-2.8377,0.0,0.0,0.0,0.0,0.0,0.0,0.0,0.0,0.0,-2.4617,-2.6218,-2.7315,-2.7338,-2.8835,-2.9719,-2.943,-2.8643,-2.7782,0.0,0.0,-2.7642,-2.8606,-2.9605,-3.0432,-3.1072,-3.1185,-3.1407,-3.1658,-3.1658,-3.1658,-3.1658,-3.1658,-3.1577,-3.1411,-3.1851,-3.2051,-3.2051,-3.2051,-3.2051,-3.2014,-3.1574,-3.1022,-3.0369,-2.9656,-2.9201,-2.8834,-2.7921,-2.896,-3.0557,-2.8896,-3.0124,-3.2105,-3.0781,0.0,0.0,0.0,0.0,0.0,0.0,0.0,0.0,0.0,0.0,0.0,0.0,0.0,0.0,0.0,0.0,0.0,0.0,0.0,0.0,-3.7178,-3.8582,-3.9994,-4.1441,-4.1565,-4.1343,-4.1026,-4.1508,-4.1574,-4.0836,-3.949,-3.8384,-3.7621,-3.629,-3.5504,-3.5504,-3.5651,-3.5636,-3.5504,-3.5651,-3.5636,-3.5504,-3.5504,-3.516,-3.4503,0.0,0.0,-3.3484,-3.2946,-3.2706,-3.2662,-3.1974,-3.169,-3.1675,-3.1261,-3.0786,-3.014,-2.8727,-2.8264,-2.8496,-2.8856,-2.8919,-2.885,0.0,0.0,0.0,0.0,0.0,0.0,0.0,0.0,0.0,0.0,-2.5906,-2.6907,-2.7045,-2.8236,-2.87,-2.792,-2.6664,0.0,0.0,-2.7378,-2.8197,-2.9315,-3.0419,-3.1248,-3.1788,-3.18,-3.1938,-3.2227,-3.2772,-3.2772,-3.2269,-3.2813,-3.2784,-3.2252,-3.2516,-3.2641,-3.2667,-3.2943,-3.2905,-3.2641,-3.2641,-3.2152,-3.1323,-3.052,-2.9854,-2.9289,-2.8737,-2.9414,-3.0339,-2.9119,-3.0197,-3.1923,-3.1175,-3.0862,-3.0646,0.0,0.0,0.0,0.0,0.0,0.0,0.0,0.0,0.0,0.0,0.0,0.0,0.0,0.0,-3.3064,0.0,0.0,-3.6662,-3.8553,-3.9812,-4.0815,-4.1549,-4.233,-4.2591,-4.183,-4.1745,-4.1593,-4.1238,-3.9809,-3.859,-3.7867,-3.6707,-3.5894,-3.5537,-3.5831,-3.5894,-3.5504,-3.5863,-3.5863,-3.5504,-3.5504,-3.4996,-3.3978,-3.3978,-3.3469,-3.2497,-3.2138,-3.1989,-3.1974,-3.1645,-3.1511,-3.1511,-3.1511,-3.1301,-3.096,-3.0513,-3.0097,-2.9778,-3.0109,-3.0238,-3.0238,0.0,0.0,0.0,0.0,0.0,0.0,0.0,0.0,0.0,0.0,0.0,-2.651,-2.6767,-2.7487,-2.7355,0.0,0.0,0.0,0.0,-2.7911,-2.9051,-3.0068,-3.1135,-3.1926,-3.2365,-3.2378,-3.2604,-3.3124,-3.415,-3.415,-3.3111,-3.4387,-3.4304,-3.3124,-3.3427,-3.3434,-3.3269,-3.3822,-3.3809,-3.342,-3.3759,-3.3294,-3.2265,-3.1173,-3.0538,-3.0201,-3.002,-2.9845,-2.9669,-2.9214,-2.9941,-3.1059,-3.1274,-3.1725,-3.2075,-3.1307,-3.112,0.0,0.0,0.0,0.0,0.0,0.0,0.0,0.0,0.0,-3.1716,-3.2105,-3.3135,-3.4525,-3.6355,-3.6943,-3.7759,-3.97,-4.0564,-4.1085,-4.1407,-4.2544,-4.3221,-4.2811,-4.2083,-4.1507,-4.1197,-4.007,-3.8912,-3.7839,-3.7167,-3.6507,-3.5765,-3.6134,-3.6165,-3.5733,-3.6134,-3.6117,-3.5504,-3.5504,-3.4891,-3.3679,-3.3679,-3.3066,-3.1884,-3.175,-3.169,-3.169,-3.169,-3.169,-3.1705,-3.1824,-3.1884,-3.1929,-3.2333,-3.1854,-3.0956,-3.1496,-3.169,-3.169,0.0,0.0,0.0,0.0,0.0,0.0,0.0,0.0,0.0,0.0,0.0,0.0,0.0,0.0,0.0,0.0,0.0,0.0,-2.6553,-2.8888,-3.0595,-3.1185,-3.2332,-3.296,-3.298,-3.298,-3.3048,-3.3124,-3.415,-3.415,-3.3154,-3.5116,-3.4993,-3.3179,-3.4597,-3.4702,-3.3847,-3.4399,-3.46,-3.45,-3.4073,-3.3533,-3.2898,-3.1738,-3.1481,-3.1653,-3.0811,-3.01,-2.9572,-2.9656,-3.0286,-3.1253,-3.2803,-3.3293,-3.3317,-3.32,0.0,-2.9756,-2.9472,-2.9928,-3.0809,-3.2047,-3.1812,-3.2087,0.0,0.0,-3.287,-3.4673,-3.5676,-3.6489,-3.7328,-3.8542,-3.9715,-4.0624,-4.0846,-4.1412,-4.284,-4.3201,-4.356,-4.426,-4.3639,-4.2606,-4.1147,-4.0974,-4.0027,-3.7795,-3.7576,-3.7266,-3.6508,-3.5911,-3.5894,-3.6477,-3.5926,-3.5587,-3.5504,-3.5504,-3.513,-3.4399,-3.4399,-3.3978,-3.326,-3.2677,-3.2378,-3.2378,-3.2378,-3.2378,-3.2422,-3.3036,-3.3275,-3.3215,-3.2706,-3.2422,-3.2302,-3.2348,-3.2378,-3.2378,0.0,0.0,0.0,0.0,0.0,0.0,0.0,0.0,0.0,0.0,0.0,0.0,0.0,0.0,0.0,0.0,0.0,0.0,-2.6117,-2.9078,-3.1008,-3.1389,-3.2466,-3.3124,-3.3124,-3.3124,-3.3398,-3.4037,-3.5088,-3.5346,-3.4925,-3.6422,-3.6041,-3.405,-3.5073,-3.4921,-3.396,-3.4826,-3.4969,-3.4745,-3.5135,-3.499,-3.4442,-3.3872,-3.3425,-3.2811,-3.0577,-2.9941,0.0,0.0,-3.0427,-3.1585,-3.3304,-3.3523,-3.3194,-3.3435,-3.2452,0.0,-3.0821,-3.0882,-3.1229,0.0,-3.2551,-3.3437,-3.45,-3.4435,-3.4455,-3.5314,-3.6321,-3.7263,-3.7931,-3.8583,-3.9198,0.0,-4.044,-4.1211,-4.2378,-4.261,-4.2808,-4.3202,-4.2215,-4.1394,-4.1127,-4.0765,-3.9764,-3.7872,-3.8576,-3.8555,-3.737,-3.6995,-3.6965,-3.7308,-3.6995,-3.6829,-3.6829,-3.6829,-3.6275,-3.5156,-3.5156,-3.4577,-3.3484,-3.3215,-3.308,-3.308,-3.308,-3.308,-3.3095,-3.338,-3.3499,-3.3499,-3.3619,-3.3649,-3.3559,-3.2796,-3.2512,-3.2512,0.0,0.0,0.0,0.0,0.0,0.0,0.0,0.0,0.0,0.0,0.0,0.0,0.0,0.0,0.0,0.0,0.0,0.0,0.0,-2.8808,-3.0776,-3.0949,-3.2014,-3.2679,-3.283,-3.3157,-3.3743,-3.4705,-3.5987,-3.6487,-3.6237,-3.7625,-3.7211,-3.5451,-3.6276,-3.6135,-3.5365,-3.5967,-3.6089,-3.5882,-3.5983,-3.5883,-3.5556,-3.4612,-3.399,-3.3271,-3.0531,-2.9639,0.0,0.0,-2.9559,-3.0713,-3.2397,-3.2739,-3.2623,-3.3076,-3.2632,-3.1824,-3.1137,0.0,0.0,-3.2168,-3.3641,-3.4912,-3.4561,-3.5248,-3.5977,-3.6007,-3.6914,-3.7873,-3.8307,-3.878,-3.918,-3.9376,-4.0115,-4.085,-4.1307,-4.145,-4.1537,-4.1649,-4.0355,-3.9727,-4.0496,-4.025,-3.9482,-3.8164,-3.9285,-3.9573,-3.8488,-3.8033,-3.7892,-3.8092,-3.7908,-3.7793,-3.7793,-3.7793,-3.7261,-3.6199,-3.6199,-3.5579,-3.4333,-3.3952,-3.3664,-3.3499,-3.3694,-3.3769,-3.3784,-3.3978,-3.4053,-3.4083,-3.4399,-3.4503,-3.4399,-3.341,-3.3051,-3.3051,0.0,0.0,0.0,0.0,0.0,0.0,0.0,0.0,0.0,0.0,0.0,0.0,0.0,0.0,0.0,0.0,0.0,0.0,0.0,-2.815,-2.999,-2.9855,-3.0871,-3.17,-3.2227,-3.3251,-3.407,-3.4705,-3.6763,-3.7214,-3.6251,-3.8368,-3.8553,-3.7191,-3.8774,-3.9221,-3.8805,-3.8265,-3.8318,-3.8567,-3.6253,-3.565,-3.5753,-3.2772,-3.2157,-3.272,-3.1053,0.0,0.0,0.0,-2.7151,-2.795,-2.9674,-3.082,0.0,-3.2333,-3.1614,0.0,0.0,0.0,-3.2781,-3.4069,-3.5449,-3.657,-3.7154,-3.7319,-3.733,-3.7345,-3.7986,-3.8547,-3.8432,-3.9716,-4.0493,-3.9576,-4.0115,-4.0492,-3.9858,-3.9783,-3.9846,-4.0055,-3.8714,-3.8105,0.0,-3.953,-3.9562,-3.8712,-3.9438,-3.9938,-4.0045,-3.8606,-3.8149,-3.8854,-3.8161,-3.7793,-3.7793,-3.7793,-3.7777,-3.7716,-3.7716,-3.7291,-3.6461,-3.5074,-3.4129,-3.3529,-3.4204,-3.4474,-3.4533,-3.5175,-3.5444,-3.5385,-3.4758,-3.4503,-3.4503,-3.4459,-3.4444,-3.4444,0.0,0.0,0.0,0.0,0.0,0.0,0.0,0.0,0.0,0.0,0.0,0.0,0.0,0.0,0.0,0.0,0.0,0.0,0.0,-2.8138,-2.9832,-2.9613,-3.1585,-3.2754,-3.2941,-3.3702,-3.4577,-3.5521,-3.6208,-3.6685,-3.7011,-3.8178,-3.8098,-3.6982,-3.8345,-3.8481,-3.7758,-3.7901,-3.7806,-3.7524,-3.7075,-3.6746,-3.6339,-3.4735,-3.3235,-3.1735,0.0,0.0,0.0,0.0,0.0,0.0,-2.9435,0.0,0.0,-3.0372,0.0,0.0,0.0,0.0,-3.4023,-3.4936,-3.6133,-3.715,-3.736,-3.7404,-3.7404,-3.7404,-3.7651,-3.7847,-3.7818,-3.8654,-3.9266,-3.8867,-3.9444,-3.9913,-3.9747,-3.965,-3.9543,-3.9296,-3.8308,0.0,0.0,0.0,0.0,-3.8801,-3.9568,-4.0033,-4.0098,-3.9614,-3.9454,-3.9688,-3.9454,-3.9332,-3.9332,-3.9332,-3.9049,-3.8525,-3.8035,-3.7397,-3.6569,-3.6122,-3.5504,-3.4846,-3.507,-3.516,-3.5175,-3.5415,-3.5504,-3.5539,-3.5795,-3.5594,-3.5209,-3.5704,-3.5562,-3.51,0.0,0.0,0.0,0.0,0.0,0.0,0.0,0.0,0.0,0.0,0.0,0.0,0.0,0.0,0.0,0.0,0.0,0.0,0.0,0.0,-2.848,-2.8211,-2.9962,-3.1034,-3.1239,-3.202,-3.2882,-3.3762,-3.4395,-3.5148,-3.6028,-3.6941,-3.7258,-3.7047,-3.8098,-3.8317,-3.7905,-3.7852,-3.7417,-3.675,-3.6425,-3.5697,-3.4719,-3.352,-3.1824,0.0,0.0,0.0,0.0,0.0,0.0,0.0,0.0,0.0,0.0,0.0,0.0,0.0,0.0,-3.4532,-3.5744,-3.6671,-3.7704,-3.8362,-3.7868,-3.7764,-3.7569,-3.6866,-3.7162,-3.7421,-3.6878,-3.7859,-3.855,-3.7887,-3.8432,-3.8837,-3.8593,-3.8292,-3.8183,-3.8357,-3.7666,-3.7576,0.0,0.0,0.0,-3.9226,-3.9748,-4.0159,-4.0485,-4.0248,-4.0096,-4.0096,-4.0096,-4.0096,-4.0096,-4.0096,-3.9705,-3.8881,-3.8149,-3.7544,-3.7024,-3.7024,-3.6753,-3.6321,-3.6022,-3.5894,-3.5894,-3.5894,-3.5894,-3.5975,-3.6737,-3.6722,-3.6368,-3.6828,-3.6554,-3.5802,0.0,0.0,0.0,0.0,0.0,0.0,0.0,0.0,0.0,0.0,0.0,0.0,0.0,0.0,0.0,0.0,0.0,0.0,0.0,0.0,0.0,-2.5872,-2.6483,-2.7053,-2.7554,-2.8581,-2.9371,-2.9868,-3.153,-3.2677,-3.332,-3.4637,-3.5893,-3.709,-3.7749,-3.8422,-3.8979,-3.7855,-3.6937,-3.6096,-3.4259,-3.2678,-3.1197,-2.9325,0.0,0.0,0.0,0.0,0.0,0.0,0.0,0.0,0.0,0.0,0.0,0.0,0.0,-3.3095,-3.5115,-3.6582,-3.7868,-3.9155,-3.9933,-4.0053,-3.8706,-3.8347,-3.7764,-3.5893,-3.6599,-3.712,0.0,0.0,-3.8425,-3.6854,-3.7371,-3.7671,-3.6793,-3.6139,-3.6151,0.0,0.0,0.0,0.0,0.0,0.0,-4.0077,0.0,-4.0205,-4.103,-4.0459,-4.0079,-4.0045,-4.007,-4.0096,-4.0096,-4.0096,-3.9731,-3.8935,-3.8262,-3.7908,-3.7863,-3.7863,-3.7835,-3.7764,-3.6994,-3.6661,-3.6661,-3.6661,-3.6661,-3.6722,-3.7528,-3.7835,-3.7806,-3.7835,-3.7352,-3.6554,0.0,0.0,0.0,0.0,0.0,0.0,0.0,0.0,0.0,0.0,0.0,0.0,0.0,0.0,0.0,0.0,0.0,0.0,0.0,0.0,0.0,0.0,0.0,0.0,0.0,0.0,0.0,0.0,0.0,-3.0417,-3.0597,-3.1405,-3.1958,0.0,-3.2946,-3.3618,-3.4216,-3.3413,-3.2955,-3.2706,0.0,-3.0832,-2.9968,0.0,0.0,0.0,0.0,0.0,0.0,0.0,0.0,0.0,0.0,0.0,-3.0552,0.0,0.0,-3.5175,-3.712,-3.8631,-3.9723,-4.0068,-4.0277,-4.0053,-3.8706,-3.7659,-3.6686,-3.5714,-3.5437,-3.5281,0.0,0.0,0.0,-3.8219,-3.9308,0.0,-3.9013,-3.9167,0.0,-3.7548,0.0,-3.8434,-3.9765,-3.9527,0.0,0.0,-4.0082,-3.9169,-3.9388,-3.9747,-3.973,-3.9209,-3.9782,-4.0096,-4.0096,-4.0096,-3.9995,-3.9782,-3.9584,-3.9183,-3.8635,-3.8635,-3.8302,-3.7793,-3.7573,-3.7485,-3.7485,-3.7485,-3.7485,-3.7573,-3.833,-3.8274,-3.7879,-3.8414,-3.8133,-3.7397,0.0,0.0,0.0,0.0,0.0,0.0,0.0,0.0,0.0,0.0,0.0,0.0,0.0,0.0,0.0,0.0,0.0,0.0,0.0,0.0,0.0,0.0,0.0,0.0,0.0,0.0,0.0,0.0,0.0,0.0,0.0,-2.8786,-2.937,-2.9699,-3.0372,-3.0881,-3.1195,0.0,0.0,0.0,0.0,0.0,0.0,0.0,0.0,0.0,0.0,0.0,0.0,0.0,0.0,-3.0088,-3.0687,-3.1509,-3.2587,-3.4307,0.0,-3.7195,-3.917,-4.0472,-4.119,-4.0905,-4.0606,-3.9828,-3.7629,-3.6342,-3.516,-3.3634,-3.3485,0.0,-3.3285,0.0,0.0,0.0,0.0,0.0,-3.8839,-3.9142,-3.9121,0.0,-3.8347,0.0,-4.0657,-4.0542,-4.1012,0.0,-4.0881,-3.9654,-3.9376,-3.9401,-3.9259,-3.8897,-3.9342,-3.9756,-4.0096,-3.9756,-3.9584,-3.9584,-3.9584,-3.9342,-3.8908,-3.9262,-3.9209,-3.8805,0.0,-3.8274,-3.8274,-3.8274,-3.8274,-3.8358,-3.9129,-3.9183,-3.8859,-3.9262,-3.8924,-3.8161,0.0,0.0,0.0,0.0,0.0,0.0,0.0,0.0,0.0,0.0,0.0,0.0,0.0,0.0,0.0,0.0,0.0,0.0,0.0,0.0,0.0,0.0,0.0,0.0,0.0,0.0,0.0,0.0,0.0,0.0,0.0,0.0,0.0,0.0,0.0,0.0,0.0,0.0,0.0,0.0,0.0,0.0,0.0,0.0,0.0,0.0,0.0,0.0,0.0,0.0,-3.1001,-3.1509,-3.2766,-3.4068,-3.5417,-3.6641,-3.7853,-3.9185,-4.1048,-4.2036,-4.2351,-4.1602,-4.0891,-3.9544,-3.6252,-3.4906,-3.3619,-3.1031,0.0,-3.2173,-3.1622,-3.3737,-3.5475,-3.5112,0.0,-3.8221,-3.8059,-3.8091,-3.8419,-3.9307,-3.8992,-3.9581,-4.1773,-4.1533,-4.1842,-4.3347,-4.2149,-4.0902,-3.9968,-3.9285,-3.8943,-3.8897,-3.8908,-3.9289,-4.0096,-3.9411,-3.9005,-3.8908,-3.8908,-3.8908,-3.8908,-3.961,-3.9995,-4.0045,-3.9342,-3.8989,-3.8908,-3.9032,-3.8989,-3.8962,-3.9782,-4.0096,-4.0096,-4.0096,-3.9662,-3.8951,0.0,0.0,0.0,0.0,0.0,0.0,0.0,0.0,0.0,0.0,-2.3954,0.0,0.0,0.0,0.0,0.0,0.0,0.0,0.0,0.0,0.0,0.0,0.0,0.0,0.0,0.0,0.0,0.0,0.0,0.0,0.0,0.0,0.0,0.0,0.0,0.0,0.0,0.0,0.0,0.0,0.0,0.0,0.0,0.0,0.0,0.0,0.0,0.0,0.0,0.0,-3.3634,-3.5579,-3.6327,-3.7479,-3.8706,-3.9499,-4.0262,-4.1093,-4.1991,-4.2671,-4.288,-4.1683,-4.0891,-3.9544,-3.6252,-3.4547,0.0,0.0,-3.112,-3.1654,-3.1526,-3.3737,-3.5982,-3.7138,0.0,0.0,0.0,0.0,-4.0111,0.0,0.0,0.0,0.0,0.0,0.0,0.0,0.0,-4.1734,-3.9062,-3.9435,-3.9473,-3.893,-3.8908,-3.9289,-4.0096,-3.9952,-3.9558,-3.8908,-3.8908,-3.8908,-3.8908,-3.9059,-3.9463,-4.0096,-3.9952,0.0,-3.8935,-3.961,-3.9489,-3.8962,-3.9782,-4.0096,-4.0096,-4.0096,-4.002,-3.9705,0.0,0.0,0.0,0.0,0.0,0.0,0.0,0.0,0.0,-2.5555,-2.5061,-2.4522,0.0,0.0,0.0,0.0,0.0,0.0,0.0,0.0,0.0,0.0,0.0,0.0,0.0,0.0,0.0,0.0,0.0,0.0,0.0,0.0,0.0,0.0,0.0,0.0,0.0,0.0,0.0,0.0,0.0,0.0,0.0,0.0,0.0,0.0,0.0,0.0,0.0,0.0,-3.3469,-3.6207,-3.7509,-3.8616,-3.9619,-4.0621,-4.113,-4.1594,-4.2596,-4.309,-4.2976,-4.1713,-4.0352,-3.8497,-3.5205,0.0,0.0,0.0,-2.9748,-3.0398,-3.0398,-3.2949,0.0,0.0,0.0,0.0,0.0,0.0,0.0,0.0,0.0,0.0,0.0,0.0,0.0,0.0,0.0,-4.2782,-4.0056,-3.9528,-3.9185,-3.8914,-3.9315,-3.9714,-4.0113,-4.0096,-3.9901,-3.9516,-3.9113,-3.9113,-3.9516,-3.9086,-3.9342,-4.007,-3.9662,0.0,-3.8908,-3.8897,-3.8897,-3.8935,-3.9315,-3.9731,-4.0096,-4.0096,-4.0096,-3.9876,0.0,0.0,0.0,0.0,0.0,0.0,0.0,-2.5053,-2.5232,-2.6437,-2.6138,-2.557,-2.4889,-2.4216,-2.3759,0.0,0.0,0.0,0.0,0.0,0.0,0.0,0.0,0.0,0.0,0.0,0.0,0.0,0.0,0.0,0.0,0.0,0.0,0.0,0.0,0.0,0.0,0.0,0.0,0.0,0.0,0.0,0.0,0.0,0.0,0.0,0.0,0.0,0.0,0.0,-3.2258,-3.4771,-3.6731,-3.8392,-3.9798,-4.0696,-4.1265,-4.1818,-4.2851,-4.3185,-4.2946,-4.1534,-3.9768,-3.7494,-3.4068,-3.1839,0.0,0.0,-2.8448,-2.9248,-2.9384,-3.183,-3.397,0.0,-3.5733,0.0,0.0,0.0,0.0,0.0,0.0,0.0,0.0,0.0,0.0,0.0,0.0,0.0,-4.1392,-3.9704,-3.8911,-3.9144,-3.9599,-3.9927,-4.0096,-4.0096,-4.002,-3.9833,-3.9193,-3.9156,-3.9601,-3.8951,-3.9102,-3.9808,-3.9005,0.0,-3.8854,-3.8121,-3.8218,-3.8908,-3.8908,-3.9394,-4.0096,-4.0096,-4.0096,-3.9876,0.0,0.0,0.0,0.0,0.0,0.0,0.0,-2.5158,-2.5779,-2.6497,-2.6542,-2.6243,-2.5585,-2.4903,-2.4261,0.0,0.0,0.0,0.0,0.0,0.0,0.0,0.0,0.0,0.0,0.0,0.0,0.0,0.0,0.0,0.0,0.0,0.0,0.0,0.0,0.0,0.0,0.0,0.0,0.0,0.0,0.0,0.0,0.0,0.0,0.0,0.0,0.0,0.0,0.0,0.0,-3.1315,-3.332,-3.6881,-4.0217,-3.9738,0.0,0.0,-4.2455,-4.288,-4.2841,-4.0965,-3.9439,-3.7375,-3.3484,0.0,0.0,-2.8004,-2.8116,-2.8756,-2.9293,-3.0641,-3.2297,0.0,0.0,-3.622,0.0,0.0,0.0,0.0,0.0,0.0,0.0,0.0,0.0,0.0,0.0,0.0,-4.219,-4.0092,-3.9224,-3.9957,-3.9352,-3.9342,-4.0096,-4.0096,-3.9731,-3.9016,-3.8935,-3.858,-3.8007,-3.7921,-3.8318,-3.8978,-3.8218,0.0,0.0,-3.8121,-3.8218,-3.8908,-3.8908,-3.9394,-4.0096,-4.0096,-4.0096,-3.9876,0.0,0.0,0.0,0.0,0.0,0.0,0.0,-2.5083,-2.554,-2.7016,-2.6866,-2.6497,-2.6228,-2.5615,-2.4754,0.0,0.0,0.0,0.0,0.0,0.0,0.0,0.0,0.0,0.0,0.0,0.0,0.0,0.0,0.0,0.0,0.0,0.0,0.0,0.0,0.0,0.0,0.0,0.0,0.0,0.0,0.0,0.0,0.0,0.0,0.0,0.0,0.0,0.0,0.0,0.0,0.0,-3.0417,-3.2901,0.0,0.0,-3.9334,-4.0846,-4.2081,-4.2836,-4.2916,-4.1384,-3.9379,-3.6971,-3.3814,0.0,-2.9517,-2.7929,-2.8091,-2.8685,-2.9293,-3.0499,-3.195,0.0,0.0,0.0,0.0,0.0,0.0,0.0,0.0,0.0,0.0,0.0,0.0,0.0,0.0,0.0,-4.2323,-4.0467,-3.9605,-3.9956,-3.9741,-3.9782,-4.0096,-4.0096,-3.9927,-3.961,-3.9139,-3.8745,-3.8469,-3.8469,-3.8635,-3.8881,-3.858,0.0,0.0,-3.8121,-3.8218,-3.8908,-3.8908,-3.9394,-4.0096,-4.0096,-4.0096,-3.9927,0.0,0.0,0.0,0.0,0.0,0.0,-2.5113,-2.4903,-2.5173,-2.6806,-2.6587,-2.6378,-2.6572,-2.5824,-2.5016,-2.4268,0.0,0.0,0.0,0.0,0.0,0.0,0.0,0.0,0.0,0.0,0.0,0.0,0.0,0.0,0.0,0.0,0.0,0.0,0.0,0.0,0.0,0.0,0.0,0.0,0.0,0.0,0.0,0.0,0.0,0.0,0.0,0.0,0.0,0.0,0.0,0.0,0.0,0.0,0.0,0.0,-3.7315,-3.917,-4.0793,-4.1953,-4.2387,-4.0876,-3.8661,-3.6163,0.0,0.0,-2.8992,-2.7839,-2.7959,-2.8415,-2.9019,-3.0038,-3.1325,0.0,0.0,-3.3657,0.0,0.0,0.0,0.0,0.0,0.0,0.0,0.0,0.0,0.0,0.0,0.0,-4.1936,-4.0331,-3.9596,-3.9944,-4.0048,-4.0096,-4.0096,-4.0096,-4.0096,-4.0096,-3.9516,-3.9139,-3.8908,-3.8908,-3.8908,-3.8881,-3.8663,0.0,0.0,-3.8206,-3.8374,-3.9193,-3.8745,-3.9209,-4.007,-3.9833,-3.9901,-3.9978,0.0,0.0,0.0,0.0,0.0,0.0,0.0,-2.4605,-2.4844,-2.554,-2.5615,-2.5869,-2.6512,-2.5397,-2.4874,-2.5516,0.0,0.0,0.0,0.0,0.0,0.0,0.0,0.0,0.0,0.0,0.0,-2.4605,0.0,0.0,0.0,0.0,0.0,0.0,0.0,0.0,0.0,0.0,0.0,0.0,0.0,0.0,0.0,0.0,0.0,0.0,0.0,0.0,0.0,0.0,0.0,0.0,0.0,0.0,0.0,0.0,-3.4876,-3.7584,-3.8257,-3.9888,-4.092,-3.8916,-3.6956,-3.4831,0.0,0.0,-2.8412,-2.775,-2.7585,-2.7785,-2.8391,-2.9012,-3.0097,-3.2175,0.0,0.0,0.0,0.0,0.0,0.0,0.0,0.0,0.0,0.0,0.0,0.0,0.0,0.0,-4.1052,-3.9485,-3.9061,-4.0089,-4.0091,-4.0096,-4.0096,-4.0096,-4.0096,-4.0096,-4.0096,-3.9662,-3.8908,-3.8908,-3.8908,-3.8854,0.0,0.0,0.0,-3.843,-3.8707,-3.9927,-3.8402,-3.875,-3.9995,-3.9209,-3.9411,-3.9978,0.0,0.0,0.0,0.0,0.0,0.0,0.0,-2.3924,-2.4163,-2.4829,-2.4918,-2.5173,-2.5839,-2.5128,-2.4694,-2.4903,0.0,0.0,0.0,0.0,0.0,0.0,0.0,0.0,0.0,0.0,-2.4829,-2.5974,-2.6632,-2.6971,0.0,0.0,0.0,0.0,0.0,0.0,0.0,0.0,0.0,0.0,0.0,0.0,0.0,0.0,0.0,0.0,0.0,0.0,0.0,0.0,0.0,0.0,0.0,0.0,0.0,0.0,0.0,0.0,-3.5534,-3.6885,-3.7693,-3.6136,-3.4577,-3.3006,-3.1225,0.0,-2.8412,-2.7735,-2.76,-2.7785,-2.8391,-2.8989,-3.0242,-3.284,-3.3751,0.0,0.0,0.0,0.0,0.0,0.0,0.0,0.0,0.0,0.0,0.0,0.0,0.0,-4.0423,-3.9783,-3.9383,-3.9201,-3.9249,-3.9542,-4.0096,-4.0096,-4.0096,-4.0096,-4.0096,-3.9662,-3.8908,-3.9463,-3.9437,0.0,0.0,0.0,0.0,-3.9558,-3.9653,-4.0045,-3.9558,-3.9679,-4.007,-3.9808,-3.9876,-4.007,0.0,0.0,0.0,0.0,0.0,0.0,0.0,-2.3595,-2.3744,-2.4156,-2.4216,-2.456,-2.551,-2.4769,-2.4425,-2.4933,0.0,0.0,0.0,0.0,0.0,0.0,0.0,0.0,0.0,-2.4118,-2.4938,-2.6493,-2.7443,-2.7886,-2.7874,-2.8416,-2.7619,0.0,0.0,0.0,0.0,0.0,0.0,0.0,0.0,0.0,-2.6836,0.0,0.0,0.0,0.0,0.0,0.0,0.0,0.0,0.0,0.0,0.0,0.0,0.0,0.0,0.0,0.0,-3.4337,-3.51,-3.4008,-3.2736,0.0,0.0,-2.9146,-2.8109,-2.769,-2.76,-2.771,-2.8091,-2.8834,-3.0174,-3.2457,-3.3551,0.0,0.0,0.0,0.0,0.0,0.0,0.0,0.0,0.0,0.0,0.0,0.0,0.0,-3.97,-3.9227,-3.8834,-3.8435,-3.8725,-3.9289,-4.0096,-4.0096,-4.0096,-4.0096,-4.0096,-3.9833,-3.9368,-3.9859,-3.985,0.0,0.0,0.0,0.0,-4.0096,-4.0096,-4.007,-3.9782,-3.9833,-4.007,-3.9756,-3.9833,-4.0096,0.0,0.0,0.0,0.0,0.0,0.0,0.0,0.0,0.0,0.0,-2.3595,-2.4073,-2.533,-2.4343,-2.4103,0.0,0.0,0.0,0.0,0.0,0.0,0.0,0.0,0.0,0.0,-2.3923,-2.45,-2.6365,-2.7693,-2.8283,-2.8312,-2.9746,-2.9364,-2.7464,-2.6264,-2.5367,-2.4784,-2.5375,-2.6019,-2.6746,-2.7345,-2.6836,0.0,0.0,0.0,0.0,0.0,0.0,0.0,0.0,0.0,0.0,0.0,0.0,0.0,0.0,0.0,0.0,0.0,0.0,0.0,0.0,0.0,0.0,0.0,0.0,0.0,-2.76,-2.76,-2.7655,-2.778,-2.8732,-3.0012,-3.1637,0.0,0.0,0.0,0.0,0.0,0.0,0.0,0.0,0.0,0.0,0.0,0.0,0.0,0.0,-3.9108,-3.8167,-3.7745,-3.7809,-3.8469,-3.9236,-4.0096,-4.0096,-4.0096,-4.0096,-4.0096,-4.0096,-4.0096,-4.0096,-4.0096,0.0,0.0,0.0,0.0,-4.0096,-4.0096,-4.002,-3.9289,-3.9437,-4.002,-3.9262,-3.9463,-4.0096,0.0,0.0,0.0,0.0,0.0,0.0,0.0,0.0,0.0,0.0,-2.3595,-2.3714,-2.4044,-2.3789,-2.3729,0.0,0.0,0.0,0.0,0.0,0.0,0.0,0.0,0.0,0.0,-2.4383,-2.5171,-2.7064,-2.7342,-2.7696,-2.811,-2.91,-2.8536,-2.6611,-2.6965,-2.6752,-2.6108,-2.5749,-2.6273,-2.7375,-2.754,-2.7106,0.0,0.0,0.0,0.0,-2.5023,-2.5615,0.0,0.0,0.0,0.0,0.0,0.0,0.0,0.0,-2.6348,0.0,-2.6802,0.0,-2.9579,-2.8933,-2.8513,-2.8244,0.0,0.0,0.0,0.0,0.0,0.0,0.0,-3.0116,-3.1264,0.0,0.0,0.0,0.0,0.0,0.0,0.0,0.0,0.0,0.0,0.0,0.0,0.0,0.0,-4.2124,-3.9872,-3.8998,-3.8348,-3.7809,-3.7978,-3.8707,-4.007,-4.0096,-4.0096,-4.0096,-4.0096,-4.0096,-4.0096,-4.0096,-4.0096,0.0,0.0,-4.0096,-4.0096,-4.0096,-4.0096,-4.007,-3.9901,-3.9927,-4.007,-3.9901,-3.9927,-4.0096,0.0,0.0,0.0,0.0,0.0,0.0,0.0,0.0,0.0,0.0,0.0,0.0,0.0,0.0,0.0,0.0,0.0,0.0,0.0,0.0,0.0,0.0,0.0,0.0,-2.5038,-2.4359,-2.5035,-2.7158,-2.7154,-2.7403,-2.7904,-2.9077,-2.8778,-2.722,-2.717,-2.6752,-2.6138,-2.6078,-2.6467,-2.7151,-2.7151,0.0,0.0,0.0,0.0,0.0,-2.4261,-2.5016,0.0,-2.6497,-2.7255,-2.8064,0.0,0.0,0.0,0.0,-2.5674,-2.5128,-2.5128,-2.6617,-2.8064,-2.769,-2.7839,-2.8064,-2.8064,0.0,0.0,0.0,0.0,0.0,0.0,0.0,0.0,0.0,0.0,0.0,0.0,0.0,0.0,0.0,0.0,0.0,0.0,0.0,0.0,0.0,0.0,-4.1893,-3.963,-3.9137,-3.8719,-3.8318,-3.8302,-3.887,-4.007,-4.0096,-4.0096,-4.0096,-4.0096,-4.0096,-4.0096,-4.0096,-4.0096,0.0,0.0,-4.0096,-4.0096,-4.0096,-4.0096,-4.0096,-4.0096,-4.0096,-4.0096,-4.0096,-4.0096,-4.0096,0.0,0.0,0.0,0.0,0.0,0.0,0.0,0.0,0.0,0.0,0.0,0.0,0.0,0.0,0.0,0.0,0.0,0.0,0.0,0.0,0.0,0.0,0.0,-2.4321,-2.553,-2.4137,-2.4518,-2.6824,-2.6845,-2.7051,-2.7419,-2.9015,-2.9191,-2.811,-2.7185,-2.6378,-2.5794,-2.6363,-2.6647,-2.6746,-2.6632,0.0,0.0,0.0,0.0,0.0,0.0,0.0,0.0,-2.6093,-2.7186,-2.8278,-2.8173,0.0,0.0,0.0,0.0,0.0,-2.4814,-2.6303,-2.7705,-2.7495,-2.8034,-2.8577,-2.8472,0.0,0.0,0.0,0.0,0.0,0.0,-2.9572,0.0,0.0,0.0,0.0,0.0,0.0,0.0,0.0,0.0,0.0,0.0,0.0,0.0,0.0,0.0,-4.1234,-3.9193,-3.8974,-3.8908,-3.8908,-3.8799,-3.9183,-4.0096,-4.0096,-4.0096,-4.0096,-4.0096,-4.0096,-4.0096,-4.0096,-4.0096,-4.0096,0.0,0.0,-4.0096,-4.0096,-4.0096,-4.0096,-4.0096,-4.0096,-4.0096,-4.0096,-4.0096,-4.0096,0.0,0.0,0.0,0.0,0.0,0.0,0.0,0.0,0.0,0.0,0.0,0.0,0.0,0.0,0.0,0.0,0.0,0.0,0.0,0.0,0.0,0.0,-2.4799,-2.4737,-2.5319,-2.4068,-2.4272,-2.6078,-2.5904,-2.5869,-2.597,-2.7865,-2.827,-2.7449,-2.7436,-2.7076,-2.6437,-2.6557,-2.6941,-2.7405,-2.6836,0.0,0.0,0.0,0.0,0.0,0.0,0.0,0.0,-2.4874,-2.5809,-2.6797,-2.6243,0.0,0.0,0.0,0.0,0.0,-2.5824,-2.735,-2.8173,-2.7046,-2.7679,-2.8442,-2.7884,0.0,0.0,0.0,0.0,0.0,0.0,-3.1719,-3.283,0.0,0.0,0.0,0.0,0.0,0.0,0.0,0.0,0.0,0.0,0.0,0.0,0.0,0.0,-4.0949,-3.9963,-3.9254,-3.8908,-3.8908,-3.8274,-3.8652,-4.007,-4.0096,-4.0096,-4.0096,-4.0096,-4.0096,-4.0096,-4.0096,-4.0096,-4.0096,0.0,-4.0096,-4.0096,-4.0096,-4.0096,-4.0096,-4.0096,-4.0096,-4.0096,-4.0096,-4.0096,-4.0096,0.0,0.0,0.0,0.0,0.0,0.0,0.0,0.0,0.0,0.0,0.0,0.0,0.0,0.0,0.0,0.0,0.0,0.0,0.0,0.0,0.0,-2.6647,-2.5918,-2.5462,-2.5297,-2.498,-2.5472,-2.6835,-2.662,-2.6502,-2.6524,-2.7321,-2.7288,-2.6624,-2.7298,-2.7225,-2.6617,-2.7001,-2.7315,-2.754,0.0,0.0,0.0,0.0,0.0,0.0,0.0,0.0,0.0,0.0,-2.6033,-2.7091,-2.6791,0.0,0.0,0.0,0.0,0.0,-2.5181,-2.6752,-2.7993,-2.7739,-2.8936,-2.9998,-2.931,0.0,0.0,0.0,0.0,0.0,0.0,0.0,0.0,0.0,0.0,0.0,0.0,0.0,0.0,0.0,0.0,0.0,0.0,0.0,0.0,0.0,0.0,0.0,-3.9479,-3.8704,-3.8707,-3.9516,-3.8789,-3.8718,-3.9437,-3.9463,-3.9463,-3.9463,-3.9463,-3.9236,-3.8859,-3.9262,-3.9463,-3.9489,0.0,-4.0096,-4.0096,-4.0096,-4.0096,-4.0096,-4.0096,-4.0096,-4.0096,-4.0096,-4.0096,-4.0096,0.0,0.0,0.0,0.0,0.0,0.0,0.0,0.0,0.0,0.0,0.0,0.0,0.0,0.0,0.0,0.0,0.0,0.0,0.0,0.0,-2.6752,-2.7121,-2.6742,-2.6342,-2.5901,-2.5932,-2.6476,-2.7525,-2.737,-2.7281,-2.7278,-2.7091,-2.6617,-2.6054,-2.7101,-2.721,-2.6632,-2.7315,-2.76,-2.754,0.0,0.0,0.0,0.0,0.0,0.0,0.0,0.0,0.0,0.0,0.0,0.0,0.0,0.0,0.0,-2.5809,-2.4762,-2.4088,-2.5232,-2.6662,-2.8079,-2.9041,0.0,0.0,0.0,0.0,0.0,0.0,0.0,0.0,0.0,0.0,0.0,0.0,0.0,0.0,0.0,0.0,0.0,0.0,0.0,0.0,0.0,0.0,0.0,0.0,0.0,0.0,-3.8887,-3.8358,-3.8695,-4.0045,-3.9315,-3.8989,-3.9166,-3.8827,-3.8635,-3.8635,-3.8635,-3.8346,-3.7822,-3.8553,-3.8908,-3.8935,-3.9756,-4.0096,-4.0096,-4.0096,-4.0096,-4.0096,-4.0096,-4.0096,-4.0096,-4.0096,-4.0096,-4.0096,0.0,0.0,0.0,0.0,0.0,0.0,0.0,0.0,0.0,0.0,0.0,0.0,0.0,0.0,0.0,0.0,0.0,0.0,0.0,0.0,-2.6333,-2.5779,-2.6698,-2.7357,-2.7608,-2.6432,-2.6311,-2.7324,-2.7304,-2.7281,-2.7291,-2.7032,-2.6582,-2.6039,-2.7071,-2.7161,-2.6632,-2.7315,-2.76,-2.754,-2.6881,0.0,0.0,0.0,0.0,0.0,0.0,0.0,0.0,0.0,0.0,0.0,0.0,0.0,-2.6452,-2.5809,-2.5083,-2.5083,-2.7619,-2.8427,-2.8981,-3.0823,-3.0913,0.0,-3.2064,-3.1839,0.0,-3.2153,0.0,0.0,0.0,0.0,0.0,0.0,0.0,0.0,0.0,0.0,0.0,0.0,0.0,0.0,0.0,0.0,0.0,0.0,0.0,0.0,-3.8854,-3.8854,-3.9193,-4.007,-3.9315,-3.9262,-4.002,-3.8596,-3.7863,-3.7863,-3.7863,-3.7835,-3.7822,-3.8553,-3.8908,-3.8935,-3.9756,-4.0096,-4.0096,-4.0096,-4.0096,-4.0096,-4.0096,-4.0096,-4.0096,-4.0096,-4.0096,-4.0096,0.0,0.0,0.0,0.0,0.0,0.0,0.0,0.0,0.0,0.0,0.0,0.0,0.0,0.0,0.0,0.0,0.0,0.0,0.0,0.0,-2.6243,-2.6821,-2.7147,-2.7698,-2.8579,-2.7825,-2.7704,-2.8298,-2.7959,-2.762,-2.7278,-2.6596,-2.6153,-2.5962,-2.6595,-2.6756,-2.6579,-2.7303,-2.76,-2.757,-2.733,-2.6377,0.0,0.0,0.0,0.0,0.0,0.0,0.0,0.0,-2.4382,-2.554,0.0,0.0,-2.6452,-2.5809,-2.5128,-2.4918,-2.6363,-2.7649,-2.8876,-3.0028,-3.1345,0.0,0.0,-3.3245,-3.344,-3.3679,-3.4607,0.0,0.0,0.0,0.0,0.0,0.0,0.0,0.0,0.0,0.0,0.0,0.0,0.0,0.0,0.0,0.0,0.0,0.0,0.0,-3.7438,-3.7467,-3.8044,-3.9315,-3.9059,-3.9059,-3.9342,-3.8318,-3.7544,-3.7054,-3.7054,-3.6814,-3.6399,-3.7661,-3.8234,-3.829,-3.9558,-4.0096,-4.0096,-4.0096,-4.0096,-4.0096,-4.0096,-4.0096,-4.0096,-4.0096,-3.9782,-3.9437,0.0,0.0,0.0,0.0,0.0,0.0,0.0,0.0,0.0,0.0,0.0,0.0,0.0,0.0,0.0,0.0,0.0,0.0,0.0,-2.5023,-2.5794,-2.6926,-2.6974,-2.7552,-2.874,-2.883,-2.8955,-2.9163,-2.8526,-2.7857,-2.7152,-2.6213,-2.5931,-2.6161,-2.6098,-2.641,-2.703,-2.7169,-2.7382,-2.76,-2.76,-2.6882,0.0,0.0,0.0,0.0,0.0,0.0,0.0,0.0,-2.4359,0.0,0.0,0.0,0.0,0.0,-2.56,-2.5277,-2.5516,-2.7066,-2.8757,-2.9415,0.0,0.0,-3.4247,-3.4936,-3.5519,-3.5953,-3.6432,0.0,0.0,0.0,0.0,0.0,0.0,0.0,0.0,0.0,0.0,0.0,0.0,0.0,0.0,0.0,0.0,0.0,0.0,0.0,0.0,-3.6615,-3.7306,-3.8854,-3.8908,-3.9032,-3.9289,-3.8541,-3.7876,-3.732,-3.7084,-3.6461,-3.5554,-3.7101,-3.7793,-3.7908,-3.9428,-4.0096,-4.0096,-4.0096,-4.0096,-4.0096,-4.0096,-3.9952,-3.9731,-3.9731,-3.9236,-3.8635,0.0,0.0,0.0,0.0,0.0,0.0,0.0,0.0,0.0,0.0,0.0,0.0,0.0,0.0,0.0,0.0,0.0,0.0,-2.4605,-2.4605,-2.4903,-2.5561,-2.6061,-2.6866,-2.8083,-2.9216,-2.9742,-2.9704,-2.8892,-2.7974,-2.6878,-2.6016,-2.599,-2.6645,-2.5573,-2.6204,-2.7997,-2.6947,-2.6904,-2.7575,-2.76,-2.7152,-2.6438,0.0,0.0,0.0,0.0,0.0,0.0,0.0,0.0,0.0,0.0,0.0,0.0,0.0,-2.6572,-2.6437,-2.5779,-2.7066,-2.8742,-2.9442,0.0,0.0,-3.5878,-3.6956,-3.7778,-3.914,-3.8347,-3.721,-3.6611,0.0,0.0,0.0,0.0,0.0,0.0,0.0,0.0,0.0,0.0,0.0,0.0,0.0,0.0,0.0,0.0,0.0,0.0,-3.6615,-3.7291,-3.8854,-3.8908,-3.9289,-4.0096,-3.9315,-3.8908,-3.8881,-3.8149,-3.7011,-3.5554,-3.7131,-3.7822,-3.7908,-3.9428,-4.0096,-4.0096,-4.0096,-4.0096,-4.0096,-4.0096,-3.961,-3.8908,-3.8908,-3.8442,-3.7793,0.0,0.0,0.0,0.0,0.0,0.0,0.0,0.0,0.0,0.0,0.0,0.0,0.0,0.0,0.0,0.0,0.0,0.0,-2.4634,-2.4605,-2.4903,-2.5561,-2.6634,-2.7377,-2.7735,-2.8537,-2.9212,-2.9769,-2.9525,-2.8489,-2.6743,-2.6485,-2.6013,-2.5364,-2.5579,-2.5572,-2.5439,-2.5633,-2.5837,-2.6108,-2.6628,-2.639,-2.5769,0.0,0.0,0.0,0.0,0.0,0.0,0.0,0.0,0.0,0.0,0.0,0.0,-2.6033,-2.5899,-2.5854,-2.5659,-2.6722,0.0,-2.9322,0.0,0.0,0.0,-3.6626,0.0,0.0,-3.8003,-3.6836,-3.709,0.0,0.0,0.0,0.0,0.0,0.0,0.0,0.0,0.0,0.0,0.0,0.0,0.0,0.0,0.0,0.0,0.0,0.0,-3.6306,-3.7084,-3.8076,-3.8635,-3.9289,-4.0096,-3.9315,-3.8908,-3.8881,-3.8149,-3.7249,-3.6337,-3.786,-3.8274,-3.7908,-3.9428,-4.0096,-4.0096,-4.0096,-4.0096,-4.0096,-4.0096,-3.9952,-3.9662,-3.9113,-3.8442,-3.7793,0.0,0.0,0.0,0.0,0.0,0.0,0.0,0.0,0.0,0.0,0.0,0.0,0.0,0.0,0.0,0.0,0.0,0.0,0.0,0.0,-2.5435,-2.6348,-2.718,-2.7959,-2.8753,-2.9415,-2.9734,-2.9704,-2.9366,-2.8591,-2.737,-2.715,-2.6785,-2.6268,-2.6187,-2.5933,-2.5581,-2.5383,-2.5338,-2.5425,-2.5864,-2.5987,-2.5892,0.0,0.0,0.0,0.0,0.0,0.0,0.0,0.0,0.0,0.0,0.0,0.0,-2.5644,-2.5615,-2.5615,-2.5615,-2.6961,0.0,-2.9711,-3.2257,-3.4863,-3.6178,0.0,0.0,0.0,0.0,-3.727,-3.7389,0.0,0.0,0.0,0.0,0.0,0.0,0.0,0.0,0.0,0.0,0.0,0.0,0.0,0.0,0.0,0.0,0.0,0.0,-3.5926,-3.6677,-3.7764,-3.7917,-3.869,-4.007,-3.9315,-3.9059,-3.9368,-3.8941,-3.8133,-3.7114,-3.8032,-3.8218,-3.7879,-3.9102,-3.9808,-4.0096,-4.0096,-4.0096,-4.0096,-4.0096,-3.9731,-3.9172,-3.8978,-3.823,-3.7338,0.0,0.0,0.0,0.0,0.0,0.0,0.0,0.0,0.0,0.0,-2.7225,0.0,0.0,0.0,0.0,0.0,0.0,0.0,0.0,0.0,-2.6198,-2.754,-2.772,-2.8678,-3.0552,-3.1002,-3.0688,-2.9606,-2.8805,-2.8396,-2.8368,-2.7985,-2.8073,-2.8403,-2.7254,-2.6984,-2.7295,-2.5709,-2.5076,-2.5203,-2.5259,-2.5728,-2.6404,-2.6484,0.0,0.0,0.0,0.0,0.0,0.0,0.0,0.0,0.0,-2.4649,-2.4724,-2.5322,-2.5501,-2.5555,-2.5674,-2.7515,0.0,-3.0477,-3.2691,0.0,-3.6282,-3.8422,-4.0127,-4.0127,0.0,0.0,0.0,0.0,0.0,0.0,0.0,0.0,0.0,0.0,0.0,0.0,0.0,0.0,0.0,0.0,0.0,0.0,0.0,0.0,0.0,-3.5474,-3.6164,-3.7632,-3.6964,-3.7642,-3.9876,-3.9183,-3.9183,-3.9876,-3.9876,-3.9172,-3.7793,-3.7863,-3.7892,-3.7921,-3.8608,-3.9342,-4.0096,-4.0096,-4.0096,-4.0096,-4.0096,-3.9199,-3.7978,-3.858,-3.7873,-3.6569,0.0,0.0,0.0,0.0,0.0,0.0,0.0,0.0,0.0,0.0,0.0,0.0,0.0,0.0,0.0,0.0,0.0,0.0,0.0,0.0,-2.6198,-2.754,-2.8618,-2.9819,-3.1256,-2.9939,-2.934,-2.9606,-2.9401,-2.8972,-2.834,-2.9171,-2.9104,-2.8273,-2.8393,-2.7422,-2.5673,-2.482,-2.4135,-2.3649,-2.4279,-2.4979,-2.5701,-2.6283,-2.6852,0.0,0.0,0.0,0.0,0.0,0.0,0.0,-2.5217,-2.5023,-2.4634,-2.4769,-2.4814,-2.5038,-2.6093,-2.7195,0.0,0.0,-3.4083,-3.6252,-3.703,-3.7644,-3.8063,-3.8063,0.0,0.0,0.0,0.0,0.0,0.0,0.0,0.0,0.0,0.0,0.0,0.0,0.0,0.0,0.0,0.0,0.0,0.0,0.0,0.0,-3.4728,-3.5205,-3.5926,-3.6828,-3.6691,-3.7144,-3.829,-3.8121,-3.8121,-3.829,-3.829,-3.8121,-3.7822,-3.8386,-3.8663,-3.8663,-3.8827,-3.9342,-4.0096,-4.0096,-4.0096,-4.0096,-4.0096,-3.9506,-3.8608,-3.8189,-3.744,-3.6523,0.0,0.0,0.0,0.0,0.0,0.0,0.0,0.0,0.0,0.0,0.0,0.0,0.0,0.0,0.0,0.0,0.0,0.0,0.0,0.0,0.0,-2.8498,-3.0103,-3.0866,-3.0612,-2.9879,-2.922,-2.8648,-2.8648,-2.875,-2.8946,-2.9405,-2.9434,-2.9102,-2.8976,-2.7855,-2.6024,-2.5441,-2.4617,-2.3708,-2.4147,-2.4538,-2.4951,-2.5673,-2.6443,-2.7111,-2.7458,0.0,0.0,0.0,0.0,0.0,0.0,0.0,-2.4664,-2.4978,-2.4619,-2.447,-2.6138,0.0,0.0,-3.3036,0.0,-3.6567,-3.6896,-3.6971,-3.6971,0.0,0.0,0.0,0.0,0.0,0.0,0.0,0.0,0.0,0.0,0.0,0.0,0.0,0.0,0.0,0.0,0.0,0.0,0.0,0.0,-3.3679,-3.3978,-3.4651,-3.5347,-3.6089,-3.5784,-3.6135,-3.7322,-3.6949,-3.6949,-3.7322,-3.7646,-3.7602,-3.7249,-3.7613,-3.7787,-3.7815,-3.8218,-3.8816,-3.9558,-3.9927,-4.0096,-4.0096,-4.0096,-3.961,-3.8854,-3.8469,-3.7847,-3.707,0.0,0.0,0.0,0.0,0.0,0.0,0.0,0.0,0.0,0.0,0.0,0.0,0.0,0.0,0.0,0.0,0.0,0.0,0.0,0.0,0.0,0.0,-3.1076,-3.13,-2.9774,-3.0028,-2.943,-2.7944,-2.7824,-2.8408,-2.9594,-2.9419,-2.9636,-3.0126,-2.9414,-2.8346,-2.7046,-2.6478,-2.557,-2.4481,-2.4481,-2.4567,-2.4766,-2.537,-2.6041,-2.6774,-2.7382,-2.7524,-2.7333,-2.6758,0.0,0.0,0.0,0.0,-2.4844,-2.5166,-2.4552,-2.4163,-2.5944,0.0,-3.0612,-3.4247,-3.5654,0.0,-3.6297,-3.6312,0.0,0.0,0.0,0.0,0.0,0.0,0.0,0.0,0.0,0.0,0.0,0.0,0.0,0.0,0.0,0.0,0.0,0.0,0.0,0.0,0.0,-3.2751,-3.3305,-3.3948,-3.462,-3.5229,-3.4651,-3.5019,-3.6394,-3.5725,-3.5803,-3.6584,-3.7128,-3.704,-3.6415,-3.6415,-3.6477,-3.663,-3.7456,-3.8218,-3.8962,-3.9782,-4.0096,-4.0096,-4.0096,-3.9532,-3.8718,-3.8718,-3.8161,-3.7324,0.0,0.0,0.0,0.0,0.0,0.0,0.0,0.0,0.0,0.0,0.0,0.0,0.0,0.0,0.0,0.0,0.0,0.0,0.0,0.0,0.0,0.0,-2.9535,-3.0103,-3.0372,-2.9385,-2.9011,-2.9337,-2.8742,-2.8846,-2.9621,-3.0097,-3.0369,-3.0458,-3.033,-2.9226,-2.738,-2.6737,-2.6003,-2.5259,-2.5259,-2.5646,-2.6229,-2.631,-2.6826,-2.7473,-2.756,-2.7203,-2.6628,-2.6541,-2.6136,0.0,0.0,0.0,-2.527,-2.4178,-2.4141,-2.4649,0.0,0.0,-3.0926,0.0,-3.4262,-3.4938,0.0,0.0,0.0,0.0,0.0,0.0,0.0,0.0,0.0,0.0,0.0,0.0,0.0,0.0,0.0,0.0,0.0,0.0,0.0,0.0,0.0,0.0,-3.2213,-3.2557,-3.2647,-3.3275,-3.3681,-3.3788,-3.3681,-3.4012,-3.4817,-3.4708,-3.5009,-3.5678,-3.5752,-3.5765,-3.5636,-3.5636,-3.6006,-3.663,-3.7456,-3.8218,-3.8962,-3.9782,-4.0096,-4.0096,-4.0096,-3.9226,-3.795,-3.795,-3.7025,-3.5797,0.0,0.0,0.0,0.0,0.0,0.0,0.0,0.0,0.0,0.0,0.0,0.0,0.0,0.0,0.0,0.0,0.0,0.0,0.0,0.0,0.0,0.0,-2.922,-2.9535,-2.9445,-2.8891,-2.8547,-2.8483,-2.8184,-2.8588,-2.9621,-3.0223,-3.0507,-3.0507,-3.0507,-2.961,-2.8098,-2.7803,-2.7028,-2.6014,-2.6014,-2.596,-2.5933,0.0,0.0,-2.7034,-2.7458,-2.7126,-2.651,-2.651,-2.6044,-2.54,-2.5107,0.0,0.0,0.0,-2.4338,-2.4903,-2.6333,-2.8053,-2.9998,0.0,-3.3155,-3.3544,-3.4233,0.0,0.0,0.0,0.0,0.0,0.0,0.0,0.0,0.0,0.0,0.0,0.0,0.0,0.0,0.0,0.0,0.0,0.0,0.0,0.0,0.0,-3.1765,-3.1929,-3.1929,-3.2587,-3.2946,-3.2946,-3.2946,-3.326,-3.3918,-3.3918,-3.4457,-3.5504,-3.5504,-3.5504,-3.5504,-3.5504,-3.5668,-3.607,-3.7265,-3.7978,-3.8386,-3.9584,-4.0096,-4.0096,-4.0096,-3.9411,-3.8358,-3.795,-3.7086,-3.6054,0.0,0.0,0.0,0.0,0.0,0.0,0.0,0.0,0.0,0.0,0.0,0.0,0.0,0.0,0.0,0.0,0.0,0.0,0.0,0.0,0.0,0.0,0.0,-2.8873,-2.8353,-2.8338,-2.8109,-2.76,-2.7764,-2.8453,-2.9621,-3.0223,-3.0597,-3.0761,-3.0761,-3.0058,0.0,-2.8667,-2.8006,-2.7021,-2.6846,-2.6443,0.0,0.0,0.0,0.0,-2.7408,-2.7008,-2.6229,-2.6229,-2.5728,0.0,0.0,0.0,0.0,0.0,0.0,0.0,0.0,0.0,-2.8607,-3.0731,-3.1629,-3.2183,0.0,0.0,0.0,0.0,0.0,0.0,0.0,0.0,0.0,0.0,0.0,0.0,0.0,0.0,0.0,0.0,0.0,0.0,0.0,0.0,0.0,0.0,-3.1511,-3.1511,-3.1511,-3.1974,-3.2243,-3.2243,-3.2243,-3.2587,-3.3245,-3.3574,-3.4247,-3.525,-3.5429,-3.5415,-3.525,-3.5429,-3.5504,-3.5554,-3.6905,-3.7602,-3.7892,-3.9236,-3.9927,-4.0096,-4.0096,-3.961,-3.8799,-3.8064,-3.7308,-3.6492,0.0,0.0,0.0,0.0,0.0,0.0,0.0,0.0,0.0,0.0,0.0,0.0,0.0,0.0,-2.76,-2.76,0.0,0.0,0.0,0.0,0.0,0.0,0.0,0.0,0.0,-2.7645,-2.763,-2.76,-2.8233,-2.8906,-2.9621,-3.0223,-3.0823,-3.1451,-3.1451,-3.0746,-2.9517,0.0,0.0,0.0,0.0,0.0,0.0,0.0,0.0,0.0,0.0,0.0,-2.5453,-2.5453,0.0,0.0,0.0,0.0,0.0,0.0,0.0,0.0,0.0,-2.5719,0.0,-2.766,0.0,0.0,0.0,0.0,0.0,0.0,0.0,0.0,0.0,0.0,0.0,0.0,0.0,0.0,0.0,0.0,0.0,0.0,0.0,0.0,0.0,0.0,0.0,0.0,-3.1511,-3.1511,-3.1511,-3.154,-3.1555,-3.1555,-3.1555,-3.1869,-3.2557,-3.3799,-3.4488,-3.4563,-3.519,-3.516,-3.4578,-3.5205,-3.5504,-3.5522,-3.6306,-3.71,-3.7863,-3.8635,-3.9394,-4.0096,-4.0096,-3.961,-3.8799,-3.8064,-3.7308,-3.6492,0.0,0.0,0.0,0.0,0.0,0.0,0.0,0.0,0.0,0.0,0.0,0.0,0.0,-2.8513,-2.8438,-2.8858,-2.8472,0.0,0.0,0.0,0.0,0.0,0.0,0.0,0.0,-2.76,0.0,0.0,-2.7839,-2.8319,-2.8966,-2.9609,-3.0043,-3.0313,-3.1137,-3.0778,-2.9621,-2.9759,0.0,0.0,0.0,0.0,0.0,0.0,0.0,0.0,0.0,0.0,0.0,0.0,0.0,0.0,0.0,0.0,0.0,0.0,0.0,0.0,0.0,0.0,0.0,-2.6217,-2.6879,0.0,0.0,0.0,0.0,0.0,0.0,0.0,0.0,0.0,0.0,0.0,0.0,0.0,0.0,0.0,0.0,0.0,0.0,0.0,0.0,0.0,0.0,0.0,0.0,-3.1032,-3.1481,-3.1511,-3.1511,-3.1511,-3.1511,-3.1824,-3.2497,-3.3395,-3.3844,-3.3844,-3.4098,-3.4083,-3.3858,-3.4098,-3.4218,-3.4249,-3.4514,-3.5825,-3.7863,-3.8608,-3.9086,-3.9342,-3.9342,-3.8536,-3.7379,-3.7144,-3.6554,-3.5863,0.0,0.0,0.0,0.0,0.0,0.0,0.0,0.0,0.0,0.0,0.0,0.0,0.0,0.0,-2.9101,-2.9577,-2.9175,-2.9116,-2.9577,-2.9175,0.0,0.0,0.0,0.0,0.0,0.0,0.0,0.0,0.0,0.0,0.0,-2.9041,-2.937,-2.9651,-3.0492,-3.0387,0.0,0.0,0.0,-2.8906,0.0,0.0,-2.8861,0.0,0.0,0.0,0.0,0.0,0.0,0.0,0.0,0.0,0.0,0.0,0.0,0.0,0.0,0.0,-2.3294,0.0,0.0,0.0,0.0,0.0,0.0,0.0,0.0,0.0,0.0,0.0,0.0,0.0,0.0,0.0,0.0,0.0,0.0,0.0,0.0,0.0,0.0,0.0,0.0,0.0,0.0,0.0,0.0,0.0,-3.1122,-3.1152,-3.1271,-3.1496,-3.1511,-3.1824,-3.2497,-3.2946,-3.3155,-3.317,-3.338,-3.338,-3.317,-3.3395,-3.3499,-3.3499,-3.3499,-3.485,-3.7076,-3.7379,-3.7892,-3.8536,-3.858,-3.7935,-3.6994,-3.6994,-3.6523,-3.5831,0.0,0.0,0.0,0.0,0.0,0.0,0.0,0.0,0.0,0.0,0.0,0.0,0.0,0.0,0.0,-2.9696,-2.9651,-2.9636,-2.9666,-2.9651,0.0,0.0,0.0,0.0,0.0,0.0,0.0,0.0,0.0,0.0,0.0,0.0,-2.8936,-2.9547,-2.9577,-2.9577,-2.9547,0.0,-2.9621,-2.952,0.0,-2.9041,-2.9562,0.0,0.0,0.0,-2.8801,-2.811,0.0,-2.5896,0.0,0.0,0.0,0.0,0.0,0.0,0.0,0.0,0.0,0.0,0.0,0.0,0.0,0.0,0.0,0.0,0.0,0.0,0.0,0.0,0.0,0.0,0.0,0.0,0.0,0.0,0.0,0.0,0.0,0.0,0.0,0.0,0.0,0.0,0.0,0.0,-2.9577,-2.9834,-3.0477,-3.0522,-3.0808,-3.1451,-3.1466,-3.1795,-3.2452,-3.2437,-3.2452,-3.2437,-3.3125,-3.3095,-3.2452,-3.314,-3.344,-3.344,-3.344,-3.4228,-3.5454,-3.4909,-3.5904,-3.7738,-3.7866,-3.7839,-3.7748,-3.7732,-3.7217,-3.6492,0.0,0.0,0.0,0.0,0.0,0.0,0.0,0.0,0.0,0.0,0.0,0.0,0.0,0.0,-3.1152,-3.1659,-3.0806,-3.0462,-3.0928,-3.0522,-3.0253,-3.0253,-3.0073,-2.9535,-2.8622,0.0,0.0,0.0,0.0,0.0,0.0,0.0,0.0,0.0,-2.8652,-2.8618,-2.8244,-2.9639,0.0,-2.9636,-2.9864,-3.0088,0.0,0.0,0.0,0.0,0.0,-2.7742,-2.744,0.0,-2.6068,-2.559,0.0,0.0,0.0,0.0,0.0,0.0,-2.3452,0.0,0.0,0.0,0.0,0.0,0.0,0.0,0.0,0.0,0.0,0.0,0.0,0.0,0.0,0.0,0.0,0.0,0.0,0.0,0.0,0.0,0.0,0.0,0.0,0.0,0.0,0.0,-2.8876,-2.934,-3.0447,-3.0943,-3.1077,-3.0806,-3.0791,-3.1092,-3.1765,-3.1315,-3.1061,-3.1076,-3.172,-3.169,-3.1091,-3.1735,-3.2049,-3.2049,-3.2049,-3.2556,-3.344,-3.4334,-3.5303,-3.6166,-3.5751,-3.6151,-3.6827,-3.5784,-3.5922,-3.6492,0.0,0.0,0.0,0.0,0.0,0.0,0.0,0.0,0.0,0.0,0.0,0.0,0.0,0.0,0.0,-3.2064,-3.1361,-3.1077,-3.1481,-3.1122,-3.0913,-3.0913,-3.0657,-3.0148,-2.9415,0.0,0.0,0.0,0.0,0.0,0.0,0.0,0.0,0.0,0.0,0.0,0.0,0.0,0.0,0.0,-2.9684,0.0,0.0,-2.94,-2.9011,0.0,0.0,0.0,-2.7846,-2.6835,-2.6283,0.0,0.0,0.0,0.0,0.0,0.0,0.0,0.0,0.0,0.0,0.0,0.0,0.0,-2.2193,-2.2014,-2.1977,0.0,0.0,0.0,0.0,0.0,0.0,0.0,0.0,0.0,0.0,0.0,0.0,0.0,0.0,0.0,0.0,-2.76,-2.7764,-2.8143,-2.8173,-2.8622,-2.9654,-3.0357,-3.0657,-3.0507,-3.0253,-3.0432,-3.1077,-3.0447,-3.0253,-3.0507,-3.0883,-3.1017,-3.0913,-3.1316,-3.1511,-3.1511,-3.1511,-3.172,-3.2167,-3.3026,-3.3887,-3.4728,-3.4699,-3.5296,-3.6121,-3.5584,-3.5906,-3.6492,0.0,0.0,0.0,0.0,0.0,0.0,0.0,0.0,0.0,0.0,0.0,0.0,0.0,0.0,0.0,0.0,-3.1585,-3.1511,-3.1511,-3.1511,-3.1511,-3.1511,-3.0913,-3.0582,-3.0507,-2.9968,0.0,0.0,0.0,0.0,0.0,0.0,0.0,0.0,0.0,0.0,0.0,0.0,0.0,-2.9562,-2.8951,-2.943,0.0,0.0,-2.9502,-2.9487,-2.9412,-2.9026,-2.8398,-2.7173,-2.6179,0.0,0.0,0.0,0.0,0.0,-2.5147,0.0,0.0,0.0,0.0,0.0,0.0,0.0,-2.2847,-2.1872,-2.112,-2.1443,0.0,0.0,0.0,0.0,0.0,0.0,0.0,0.0,0.0,0.0,0.0,0.0,0.0,0.0,-2.733,-2.7375,-2.7405,-2.748,-2.763,-2.7944,-2.8457,-2.9217,-2.9804,-3.0268,-2.9759,-2.9774,-3.0387,-2.9789,-2.9789,-3.0402,-3.0477,-3.0821,-3.1391,-3.1466,-3.1511,-3.1511,-3.1511,-3.1511,-3.1511,-3.1511,-3.2243,-3.3471,-3.4097,-3.4849,-3.5665,-3.6196,-3.649,-3.6507,0.0,0.0,0.0,0.0,0.0,0.0,0.0,0.0,0.0,0.0,0.0,0.0,0.0,0.0,0.0,0.0,-3.2108,-3.1511,-3.1511,-3.1511,-3.1511,-3.1511,-3.1376,-3.1047,-3.0507,-3.0387,-3.0013,0.0,0.0,0.0,0.0,0.0,0.0,0.0,0.0,0.0,0.0,0.0,0.0,-2.9592,-2.9472,0.0,-3.0372,-2.922,-2.8801,-2.8712,-2.8184,-2.8233,-2.8551,-2.8286,-2.7343,-2.6283,0.0,0.0,0.0,-2.6126,0.0,0.0,0.0,0.0,0.0,0.0,0.0,0.0,-2.3737,-2.2897,-2.2078,0.0,0.0,0.0,0.0,0.0,0.0,0.0,0.0,0.0,0.0,0.0,0.0,0.0,0.0,0.0,-2.5974,-2.5989,-2.6213,-2.6761,-2.7784,-2.8244,-2.7824,-2.8948,-2.9427,-2.8981,-2.8861,-2.9101,-2.9786,-2.9116,-2.9131,-2.9786,-3.0268,-3.0567,-3.0717,-3.1256,-3.1511,-3.1511,-3.1511,-3.1511,-3.1511,-3.1511,-3.1974,-3.2647,-3.2254,-3.3591,-3.5641,-3.5219,-3.5754,-3.665,0.0,0.0,0.0,0.0,0.0,0.0,0.0,0.0,0.0,0.0,0.0,0.0,0.0,0.0,0.0,0.0,0.0,0.0,0.0,0.0,-3.1854,-3.1511,-3.1511,-3.1346,-3.1002,-3.0987,-3.0702,-3.0043,0.0,0.0,0.0,0.0,0.0,0.0,0.0,0.0,0.0,0.0,-2.8992,-2.9547,-2.8873,0.0,-2.952,-2.9205,-2.8891,-2.8637,-2.8921,-2.9056,-2.9086,-2.9086,-2.8426,0.0,0.0,-2.7313,-2.7034,0.0,-2.7069,-2.7106,0.0,0.0,0.0,-2.6093,0.0,0.0,0.0,-2.2895,-2.1887,0.0,0.0,0.0,0.0,0.0,0.0,0.0,0.0,0.0,0.0,0.0,0.0,0.0,0.0,0.0,-2.557,-2.5615,-2.5749,-2.6078,-2.7036,-2.7455,-2.7121,-2.8064,-2.8618,-2.8607,-2.8263,-2.8438,-2.9086,-2.8427,-2.8618,-2.9606,-2.9894,-3.0387,-3.1002,-3.1346,-3.1511,-3.1511,-3.1511,-3.1511,-3.1511,-3.1511,-3.1705,-3.1989,-3.1989,-3.3119,-3.4695,-3.4649,-3.5252,-3.614,0.0,0.0,0.0,0.0,0.0,0.0,0.0,0.0,0.0,0.0,0.0,0.0,0.0,0.0,0.0,0.0,0.0,0.0,0.0,0.0,-3.2243,-3.172,-3.169,-3.163,-3.1511,-3.1511,-3.1227,-3.0702,0.0,0.0,0.0,0.0,0.0,0.0,0.0,0.0,0.0,0.0,0.0,-2.9681,0.0,-2.8393,-2.9011,-2.9457,-2.925,-2.8936,-3.0088,-3.0103,-2.9636,-2.9714,-2.925,-2.8607,-2.8607,-2.8128,0.0,0.0,0.0,0.0,0.0,0.0,0.0,0.0,0.0,-2.432,0.0,0.0,0.0,0.0,0.0,0.0,0.0,0.0,0.0,0.0,0.0,0.0,0.0,0.0,0.0,0.0,0.0,0.0,-2.5322,-2.5397,-2.5397,-2.5397,-2.6033,-2.6452,-2.6572,-2.7121,-2.772,-2.8382,-2.7764,-2.7735,-2.8397,-2.775,-2.8154,-2.9606,-2.9606,-3.0268,-3.1511,-3.1511,-3.1511,-3.1511,-3.1511,-3.1511,-3.1511,-3.1511,-3.1511,-3.1555,-3.2093,-3.2784,-3.3553,-3.412,-3.4725,-3.522,-3.1511,-3.157,0.0,0.0,0.0,0.0,0.0,0.0,0.0,0.0,0.0,0.0,0.0,0.0,0.0,0.0,0.0,0.0,-3.4038,0.0,0.0,-3.2378,-3.2378,-3.2108,-3.1511,-3.1511,-3.1466,-3.1391,0.0,0.0,0.0,0.0,0.0,0.0,-3.0133,0.0,0.0,0.0,-2.937,0.0,-2.9666,-2.9729,0.0,-2.9759,-2.9562,-2.9592,-3.0253,-3.0103,-2.9696,0.0,-2.9594,-2.8607,0.0,-2.8128,-2.76,-2.76,0.0,0.0,0.0,0.0,0.0,0.0,-2.732,0.0,0.0,0.0,-2.3118,-2.1923,0.0,0.0,0.0,0.0,0.0,0.0,0.0,0.0,0.0,0.0,0.0,0.0,0.0,0.0,0.0,-2.4709,-2.4709,-2.4709,-2.5322,-2.5974,-2.6581,-2.6662,-2.7031,-2.769,-2.7061,-2.7046,-2.7705,-2.7061,-2.769,-2.9606,-2.9606,-3.0268,-3.1511,-3.1511,-3.1511,-3.1511,-3.1511,-3.1511,-3.1511,-3.1511,-3.1511,-3.1511,-3.1585,-3.2072,-3.2815,-3.3522,-3.3789,-3.3844,-3.1511,-3.1809,0.0,0.0,0.0,0.0,0.0,0.0,0.0,0.0,0.0,0.0,0.0,0.0,0.0,0.0,0.0,-3.4262,0.0,0.0,0.0,-3.3095,-3.308,-3.2781,-3.2093,-3.2064,-3.1884,-3.1511,-3.1511,0.0,0.0,0.0,0.0,0.0,-3.0357,0.0,-3.0372,0.0,-3.0013,0.0,0.0,0.0,0.0,-3.0372,-3.0357,-3.0746,-3.0972,-3.0913,-3.0746,0.0,-3.0477,0.0,0.0,0.0,0.0,0.0,0.0,0.0,0.0,0.0,0.0,0.0,0.0,0.0,-2.593,0.0,-2.4196,0.0,0.0,0.0,0.0,0.0,0.0,0.0,0.0,0.0,0.0,0.0,0.0,0.0,0.0,0.0,0.0,0.0,0.0,0.0,-2.4634,-2.5128,-2.5412,-2.6183,-2.6746,-2.7016,-2.7121,-2.7315,-2.76,-2.733,-2.8004,-2.9606,-2.9606,-3.0268,-3.1511,-3.1511,-3.1511,-3.1511,-3.1511,-3.1511,-3.1511,-3.1511,-3.1511,-3.1511,-3.1511,-3.1697,-3.2038,-3.2801,-3.3,-3.3026,-3.1511,0.0,0.0,0.0,0.0,0.0,0.0,0.0,0.0,0.0,0.0,0.0,-3.6462,-3.6492,0.0,0.0,-3.6252,-3.5669,0.0,0.0,-3.4098,0.0,0.0,0.0,0.0,-3.2512,-3.2243,-3.1765,-3.1585,0.0,0.0,0.0,0.0,0.0,0.0,-3.0357,-3.0133,0.0,-3.0612,-3.0836,-3.1301,-3.1511,-3.1451,-3.0943,-3.1077,-3.1511,-3.1511,-3.1511,-3.1511,-3.1511,-3.1047,0.0,-3.0507,0.0,0.0,0.0,0.0,0.0,-2.7929,0.0,0.0,0.0,0.0,0.0,0.0,0.0,0.0,0.0,0.0,0.0,0.0,0.0,0.0,0.0,0.0,0.0,0.0,0.0,0.0,0.0,0.0,0.0,0.0,0.0,0.0,-2.3355,-2.3969,-2.4321,-2.4321,-2.5435,-2.6213,-2.6572,-2.6871,-2.7225,-2.76,-2.742,-2.8004,-2.9337,-2.9517,-3.0163,-3.1227,-3.1421,-3.1511,-3.1511,-3.1511,-3.1511,-3.1511,-3.1511,-3.1511,-3.1511,-3.1511,-3.1511,-3.1553,-3.2092,-3.227,-3.2302,-3.1511,-3.1525,0.0,0.0,0.0,0.0,0.0,0.0,0.0,0.0,0.0,0.0,0.0,0.0,0.0,0.0,0.0,-3.5774,-3.6357,0.0,-3.3903,0.0,0.0,-3.3844,0.0,0.0,-3.2497,-3.2482,0.0,0.0,0.0,0.0,0.0,0.0,0.0,-3.0866,-3.1406,-3.0776,-3.0853,-3.1466,-3.1496,-3.1511,-3.1511,0.0,-3.1481,-3.1511,-3.1511,0.0,0.0,-3.1511,-3.1047,0.0,0.0,0.0,0.0,0.0,0.0,0.0,0.0,0.0,0.0,-2.7929,0.0,0.0,0.0,0.0,-2.5443,0.0,0.0,0.0,0.0,0.0,0.0,0.0,0.0,0.0,0.0,0.0,0.0,0.0,0.0,0.0,0.0,0.0,-2.3355,-2.2763,-2.3302,-2.3625,-2.3625,-2.4291,-2.5247,-2.6557,-2.5989,-2.6288,-2.7585,-2.6971,-2.7305,-2.8637,-2.9307,-2.9924,-3.0552,-3.1197,-3.1511,-3.1511,-3.1511,-3.1511,-3.1511,-3.1511,-3.1511,-3.1511,-3.1511,-3.1511,-3.1511,-3.1524,-3.1539,-3.154,0.0,0.0,0.0,0.0,0.0,0.0,0.0,-3.516,0.0,0.0,0.0,0.0,0.0,-4.0029,-3.9903,0.0,0.0,-3.8003,-3.7764,-3.6522,0.0,0.0,0.0,-3.4741,0.0,0.0,0.0,0.0,0.0,0.0,0.0,0.0,0.0,0.0,0.0,-3.0853,0.0,0.0,0.0,0.0,0.0,-3.1511,-3.1511,0.0,-3.1511,-3.1511,-3.1511,-3.1511,0.0,-3.1511,-3.1346,-3.1152,-3.1152,-3.0731,-3.0193,-3.0193,-2.9909,0.0,0.0,0.0,-2.9879,-2.8577,0.0,0.0,0.0,0.0,0.0,0.0,0.0,0.0,0.0,0.0,0.0,0.0,0.0,0.0,0.0,0.0,0.0,0.0,0.0,0.0,0.0,0.0,0.0,-2.2718,-2.2897,-2.3176,-2.358,-2.4672,-2.5457,-2.5929,-2.6572,-2.7151,-2.76,-2.7375,-2.772,-2.8607,-2.9292,-2.9909,-3.0522,-3.1182,-3.1256,-3.0853,-3.1316,-3.1241,-3.0853,-3.1316,-3.1511,-3.1511,-3.1511,-3.1511,-3.1511,-3.1511,-3.1511,-3.157,-3.1854,0.0,0.0,0.0,0.0,0.0,0.0,0.0,0.0,0.0,-3.9394,0.0,-4.2231,0.0,-4.1983,0.0,-4.095,-3.9768,-3.8138,-3.7494,0.0,-3.5474,-3.5699,0.0,0.0,0.0,0.0,0.0,0.0,-3.2273,0.0,0.0,0.0,0.0,0.0,-3.1092,-3.1466,-3.1032,-3.1092,0.0,0.0,-3.1511,0.0,0.0,-3.1511,-3.1511,0.0,-3.1511,-3.1511,-3.1511,-3.1511,-3.1511,-3.1511,-3.1197,-3.0866,-3.0866,-3.0597,-3.0223,-2.9968,-3.0372,0.0,-2.9265,-2.943,0.0,-2.8259,0.0,0.0,0.0,0.0,0.0,0.0,0.0,0.0,0.0,0.0,0.0,0.0,0.0,0.0,0.0,0.0,0.0,0.0,0.0,-2.2703,-2.2703,-2.2703,-2.2868,0.0,0.0,-2.5337,-2.56,-2.6662,-2.748,-2.7959,-2.7959,-2.8304,-2.8951,-2.9609,-3.0118,-3.0507,-3.0943,-3.0898,-3.0507,-3.0746,-3.0717,-3.0537,-3.0957,-3.1286,-3.1511,-3.1511,-3.1511,-3.1511,-3.1511,-3.1645,-3.1914,-3.2557,0.0,0.0,0.0,-3.2662,0.0,0.0,0.0,-3.8422,0.0,-4.0277,-4.1841,-4.256,-4.3135,-4.321,-4.2605,-4.2485,-4.1093,-3.7868,-3.8153,0.0,0.0,-3.5519,-3.5911,-3.4638,0.0,0.0,0.0,0.0,0.0,0.0,0.0,0.0,0.0,-3.1511,0.0,-3.1511,-3.1511,-3.1511,-3.1511,-3.1511,-3.1511,-3.1511,-3.1511,-3.1511,-3.1511,-3.1511,-3.1511,-3.1511,-3.1511,-3.1511,-3.1511,-3.1511,-3.1511,-3.1511,-3.1511,-3.1511,-3.1361,-3.0731,-3.1002,-3.1197,-2.9953,0.0,0.0,0.0,0.0,-2.8453,0.0,0.0,0.0,0.0,0.0,0.0,0.0,0.0,0.0,0.0,0.0,0.0,0.0,0.0,0.0,0.0,-2.3017,-2.2688,-2.2643,-2.2688,0.0,0.0,0.0,-2.4933,-2.5585,-2.6273,-2.7275,-2.8592,-2.8607,-2.8936,-2.9621,-3.0208,-3.0492,-3.0462,-3.0492,-3.0477,-3.0387,-2.9864,-2.9939,-3.0462,-3.0522,-3.0928,-3.1555,-3.1511,-3.1525,-3.1555,-3.1555,-3.1944,-3.2497,-3.3245,-3.3095,-3.2991,0.0,-3.3275,-3.3664,0.0,0.0,0.0,0.0,-4.2342,-4.4197,-4.5858,-4.5753,-4.5289,-4.4601,-4.3643,0.0,0.0,0.0,0.0,-3.7928,-3.7,-3.6327,-3.5968,-3.5489,0.0,-3.4503,0.0,0.0,-3.2497,0.0,0.0,0.0,0.0,0.0,-3.1511,-3.1511,-3.1511,-3.1511,-3.1511,-3.1511,-3.1511,0.0,-3.1511,-3.1511,-3.1511,-3.1511,-3.1511,-3.1511,-3.1511,-3.1511,-3.1511,-3.1511,-3.1511,-3.1511,-3.1511,-3.1466,-3.1286,-3.1376,-3.1301,-3.0477,-3.0387,-3.0298,0.0,0.0,0.0,0.0,0.0,0.0,0.0,0.0,0.0,0.0,0.0,0.0,0.0,0.0,0.0,0.0,0.0,0.0,0.0,-2.2508,-2.2493,-2.1979,-2.2418,0.0,0.0,0.0,0.0,-2.5576,-2.6722,-2.7764,-2.8592,-2.8607,-2.8936,-2.9621,-3.0208,-3.0268,-2.9834,-3.0298,-2.9983,-2.9131,-2.9924,-3.0103,-2.9894,-3.0838,-3.163,-3.2183,-3.169,-3.1795,-3.2228,-3.2228,-3.2333,-3.2647,-3.3918,0.0,0.0,-3.3978,0.0,0.0,-3.5744,-3.7255,0.0,-4.1153,-4.309,0.0,-4.5484,-4.6022,-4.5933,-4.4945,-4.4182,0.0,-4.2051,0.0,0.0,-3.9005,-3.7629,-3.6761,-3.6492,-3.5549,0.0,-3.4921,0.0,0.0,-3.2916,0.0,0.0,0.0,0.0,-3.1511,-3.1511,-3.1511,-3.1511,-3.1511,-3.1511,-3.1511,0.0,-3.1511,-3.1511,-3.1511,-3.1511,-3.1511,-3.1511,-3.1511,-3.1511,-3.1511,-3.1511,-3.1511,-3.1511,-3.1511,-3.1511,-3.1511,-3.1511,-3.1511,-3.1406,-3.1017,-3.0956,-3.0763,-3.0133,-2.9983,-2.9983,0.0,0.0,0.0,0.0,0.0,0.0,0.0,0.0,0.0,0.0,0.0,0.0,0.0,0.0,0.0,0.0,0.0,-2.2538,-2.2179,0.0,0.0,0.0,0.0,0.0,-2.5615,-2.748,-2.8663,-2.9026,-2.9594,-3.0073,-3.0432,-3.0477,-3.0313,-2.9983,-2.9774,-2.9445,-2.9056,-2.949,-2.9789,-3.0043,-3.0776,-3.1615,-3.2497,-3.2392,-3.2437,-3.2557,-3.3155,-3.3365,-3.3484,-3.4638,0.0,0.0,0.0,0.0,0.0,0.0,-3.8631,0.0,-4.1414,0.0,-4.4332,-4.3618,-4.5098,-4.5636,-4.4421,0.0,-4.3509,-4.1624,-4.1467,-4.0531,-3.8601,-3.7808,-3.712,-3.6492,-3.5192,-3.4816,0.0,0.0,0.0,0.0,0.0,0.0,0.0,0.0,0.0,0.0,-3.1511,-3.1511,-3.1511,-3.1511,-3.1511,-3.1511,-3.1511,-3.1511,-3.1511,-3.1511,-3.1511,-3.1511,-3.1511,-3.1511,-3.1511,-3.1511,-3.1511,-3.1511,-3.1511,-3.1511,-3.1511,-3.1511,-3.1511,-3.1511,-3.1511,-3.1511,-3.1346,-3.0748,-3.0642,-3.0642,-3.0642,-3.0208,-2.9804,0.0,0.0,0.0,0.0,0.0,0.0,0.0,0.0,0.0,0.0,0.0,0.0,0.0,0.0,0.0,0.0,0.0,0.0,0.0,0.0,0.0,-2.563,-2.8113,-2.9562,-2.9726,0.0,-3.1466,-3.163,-3.0943,-3.0597,-3.0462,-2.9355,-2.9116,-2.9577,-2.8949,-2.9312,-3.0339,-3.0456,-3.1289,-3.2587,-3.3245,-3.32,-3.2901,-3.4053,-3.4563,-3.4638,-3.5325,0.0,0.0,0.0,0.0,-3.8901,-4.0457,-4.2162,-4.321,-4.2976,-4.4695,-4.5708,-4.502,-4.5259,-4.517,-4.4392,-4.4317,0.0,0.0,0.0,0.0,-3.9305,-3.8063,-3.712,-3.6492,-3.5192,-3.4816,0.0,0.0,0.0,0.0,0.0,0.0,0.0,0.0,0.0,-3.1511,-3.1511,0.0,-3.1511,-3.1511,-3.1511,-3.1511,-3.1511,-3.1511,-3.1511,-3.1511,-3.1511,-3.1511,-3.1511,-3.1511,-3.1511,-3.1511,-3.1511,-3.1511,-3.1511,-3.1511,-3.1511,-3.1511,-3.1511,-3.1511,-3.1511,-3.1511,-3.1466,-3.1346,-3.1316,-3.1316,-3.1316,-3.1241,-3.0987,-3.0447,0.0,0.0,0.0,0.0,0.0,0.0,0.0,0.0,0.0,0.0,0.0,0.0,0.0,0.0,0.0,0.0,0.0,0.0,0.0,0.0,0.0,-2.7664,0.0,0.0,0.0,-3.124,-3.2303,-3.1645,-3.1032,-3.0492,-3.0268,-2.9953,-2.9567,-2.93,-2.9305,-2.9537,-3.0103,-3.1205,-3.2587,-3.3245,-3.3754,-3.4189,-3.4414,-3.4846,-3.5325,0.0,0.0,0.0,0.0,0.0,0.0,0.0,-4.3778,-4.4466,-4.3494,-4.4142,-4.4392,-4.3374,-4.4167,-4.4526,-4.3828,-4.3494,-4.303,-4.244,-4.1467,-4.0442,-3.9454,-3.8138,0.0,-3.6492,-3.5192,-3.4816,-3.5504,0.0,0.0,0.0,0.0,0.0,0.0,0.0,-3.1511,0.0,0.0,0.0,-3.1511,-3.1511,-3.1511,-3.1511,-3.1511,-3.1511,-3.1511,-3.1511,-3.1511,-3.1511,-3.1511,-3.1511,-3.1511,-3.1511,-3.1511,-3.1511,-3.1511,-3.1511,-3.1511,-3.1511,-3.1511,-3.1511,-3.1511,-3.1511,-3.1511,-3.1511,-3.1511,-3.1511,-3.1511,-3.1511,-3.1301,-3.0627,-2.916,0.0,0.0,0.0,0.0,0.0,0.0,0.0,0.0,0.0,0.0,0.0,0.0,0.0,0.0,0.0,0.0,0.0,0.0,0.0,0.0,0.0,0.0,0.0,0.0,0.0,-3.1974,-3.1301,-3.0821,-3.0492,-3.0178,-3.0043,-3.0073,-2.9965,-3.0118,-3.0485,-3.1161,-3.1602,-3.1969,-3.3435,-3.4234,-3.4548,-3.4876,-3.522,-3.5504,0.0,-3.7389,0.0,0.0,-4.0711,0.0,-4.297,-4.4362,-4.4885,-4.3733,-4.3569,-4.309,-4.1923,-4.318,-4.3838,-4.3195,-4.2656,-4.2276,-4.1991,-4.0846,-3.9828,-3.9,-3.7853,-3.6926,-3.6297,-3.5117,-3.4816,0.0,0.0,0.0,0.0,0.0,0.0,0.0,0.0,0.0,0.0,0.0,-3.1511,-3.1511,-3.1511,-3.1511,-3.1511,-3.1511,-3.1511,-3.1511,-3.1511,-3.1511,-3.1511,-3.1511,-3.1511,-3.1511,-3.1511,-3.1511,-3.1511,-3.1511,-3.1511,-3.1511,-3.1511,-3.1511,-3.1511,-3.1511,-3.1511,-3.1511,-3.1511,-3.1511,-3.1511,-3.1511,-3.1511,-3.1301,-3.0627,-2.937,0.0,0.0,0.0,0.0,0.0,0.0,0.0,0.0,0.0,0.0,0.0,0.0,0.0,0.0,0.0,0.0,0.0,0.0,0.0,0.0,0.0,-3.0567,-3.0717,0.0,-3.2093,-3.1705,-3.1017,-3.0717,-3.0717,-3.0223,-3.0253,-3.0688,-3.0532,-3.0818,-3.1486,-3.2005,-3.2104,-3.2057,-3.3819,-3.4593,-3.4788,-3.531,-3.5504,-3.5504,0.0,0.0,0.0,0.0,0.0,0.0,-4.247,-4.4077,-4.5035,-4.4317,-4.4227,-4.3943,-4.3185,-4.3275,-4.3165,-4.2545,-4.2425,-4.1886,-4.0666,-3.9903,-3.8931,-3.7659,-3.6941,-3.6267,-3.5609,-3.4893,-3.4816,0.0,0.0,-3.3499,0.0,0.0,0.0,0.0,0.0,0.0,0.0,-3.1511,-3.1511,-3.1511,-3.1511,-3.1511,-3.1511,-3.1511,-3.1511,-3.1511,-3.1511,-3.1511,-3.1511,-3.1511,-3.1511,-3.1511,-3.1511,-3.1511,-3.1511,-3.1511,-3.1511,-3.1511,-3.1511,-3.1511,-3.1511,-3.1511,-3.1511,-3.1511,-3.1511,-3.1511,-3.1511,-3.1511,-3.1511,-3.1301,-3.0627,-3.0838,-3.0569,0.0,0.0,0.0,0.0,0.0,0.0,0.0,0.0,0.0,0.0,-2.4358,0.0,0.0,-2.346,0.0,0.0,0.0,0.0,-2.6587,0.0,-3.0806,-3.1406,-3.1525,-3.1869,-3.2392,-3.1735,-3.1406,-3.1406,-3.1346,-3.1346,-3.1377,-3.0645,-3.0665,-3.1244,-3.1302,-3.2449,-3.4198,-3.4427,-3.4861,-3.5415,-3.5489,-3.5504,-3.5504,0.0,0.0,0.0,0.0,0.0,0.0,0.0,-4.3868,-4.4018,-4.3723,-4.4062,-4.4022,-4.3364,-4.2985,-4.2641,-4.2425,-4.1677,-4.0965,-4.0442,-3.9394,-3.8377,-3.7449,-3.6821,-3.6178,-3.5519,-3.5235,-3.5235,0.0,0.0,0.0,0.0,0.0,0.0,0.0,0.0,-3.2123,-3.1525,-3.1929,-3.1869,-3.1511,-3.1511,-3.1511,-3.1511,-3.1511,-3.1511,-3.1511,-3.1511,-3.1511,-3.1511,-3.1511,-3.1511,-3.1511,-3.1511,-3.1511,-3.1511,-3.1511,-3.1511,-3.1511,-3.1511,-3.1511,-3.1511,-3.1511,-3.1511,-3.1511,-3.1511,-3.1511,-3.1511,-3.1511,-3.1511,-3.1421,-3.1137,-3.0972,-3.0657,0.0,0.0,0.0,0.0,0.0,0.0,0.0,0.0,0.0,0.0,0.0,0.0,0.0,0.0,0.0,0.0,0.0,0.0,-2.7754,0.0,-3.0462,-3.1496,-3.1511,-3.163,-3.1899,-3.163,-3.1511,-3.1511,-3.1511,-3.1511,-3.1467,-3.1161,-3.1084,-3.1255,-3.176,-3.2676,-3.3774,-3.4299,-3.4906,-3.5504,-3.5504,-3.5504,-3.5504,-4.116,0.0,-4.1309,0.0,-4.2701,-4.2417,-4.3808,-4.3589,-4.323,-4.3075,-4.3449,-4.3629,-4.3319,-4.2746,-4.2321,-4.2126,-4.1055,-4.0232,-3.9828,-3.8736,-3.7823,-3.7165,-3.6537,0.0,-3.5519,-3.5504,-3.5504,-3.5504,-3.5504,0.0,0.0,0.0,0.0,0.0,-3.2886,-3.2617,-3.1824,-3.2288,-3.2108,-3.1511,-3.1511,-3.1511,-3.1511,-3.1511,-3.1511,-3.1511,-3.1511,-3.1511,-3.1511,-3.1511,-3.1511,-3.1511,-3.1511,-3.1511,-3.1511,-3.1511,-3.1511,-3.1511,-3.1511,-3.1511,-3.1511,-3.1511,-3.1511,-3.1511,-3.1511,-3.1511,-3.1511,-3.1511,-3.1511,-3.1511,-3.1511,-3.1107,-3.0746,-3.0537,0.0,0.0,0.0,0.0,0.0,0.0,-2.7255,-2.6986,-2.6911,-2.6108,0.0,0.0,0.0,0.0,0.0,0.0,0.0,0.0,0.0,0.0,-3.1496,-3.1511,-3.1511,-3.1511,-3.1511,-3.1511,-3.1511,-3.1511,-3.1511,-3.1511,-3.1511,-3.1649,-3.19,-3.2525,-3.3204,-3.3937,-3.4565,-3.507,-3.5504,-3.5504,-3.5504,-3.5504,-4.2955,-4.2282,-4.1983,-4.3958,-4.3708,-4.3275,-4.3305,-4.3305,-4.3105,-4.25,-4.2425,-4.2626,-4.323,-4.2746,-4.2141,-4.1444,-4.0786,-3.9828,-3.8497,-3.7793,-3.715,0.0,0.0,-3.5519,-3.5504,-3.5504,-3.5504,-3.5504,0.0,0.0,-3.4503,0.0,-3.4488,-3.4474,-3.4474,-3.3724,-3.2497,-3.2512,-3.2108,-3.1511,-3.1511,-3.1511,-3.1511,-3.1511,-3.1511,-3.1511,-3.1511,-3.1511,-3.1511,-3.1511,-3.1511,-3.1511,-3.1511,-3.1511,-3.1511,-3.1511,-3.1511,-3.1511,-3.1511,-3.1511,-3.1511,-3.1511,-3.1511,-3.1511,-3.1511,-3.1511,-3.1511,-3.1511,-3.1511,-3.1511,-3.1511,-3.1496,-3.1271,-3.0612,0.0,0.0,0.0,0.0,0.0,0.0,-2.6422,-2.6138,-2.7465,-2.6378,0.0,0.0,0.0,0.0,0.0,0.0,0.0,-2.8562,-2.9834,0.0,-3.1496,-3.1511,-3.1511,-3.1511,-3.1511,-3.1511,-3.1511,-3.1511,-3.1511,-3.1511,-3.1511,-3.2243,-3.3484,-3.3484,-3.4277,-3.5457,-3.5489,-3.5489,-3.5504,-3.5504,-3.5504,-3.5504,-4.3185,-4.3015,-4.2871,-4.3499,-4.3424,-4.329,-4.329,-4.329,-4.309,-4.2485,-4.2396,-4.2306,-4.2028,-4.1414,-4.0935,0.0,-4.0113,-3.9349,0.0,-3.7778,-3.7135,-3.6507,-3.5863,-3.5504,-3.5504,-3.5504,-3.5504,-3.5504,0.0,0.0,0.0,-3.4503,-3.4264,-3.3829,-3.4309,-3.3993,-3.3185,-3.3185,-3.3066,-3.2796,-3.1869,-3.1765,-3.2123,-3.1675,-3.1511,-3.1511,-3.1511,-3.1511,-3.1511,-3.1511,-3.1511,-3.1511,-3.1511,-3.1511,-3.1511,-3.1511,-3.1511,-3.1511,-3.1511,-3.1511,-3.1511,-3.1511,-3.1511,-3.1511,-3.1511,-3.1511,-3.1511,-3.1511,-3.1511,-3.1511,-3.1511,-3.1511,-3.1271,-3.0612,-3.0507,0.0,0.0,0.0,0.0,0.0,-2.7225,-2.7136,-2.7555,-2.6806,0.0,0.0,0.0,0.0,0.0,0.0,0.0,0.0,-3.0073,0.0,-3.2168,-3.1735,-3.1735,-3.2168,-3.172,-3.1511,-3.1525,-3.1974,-3.2168,-3.2153,-3.1705,-3.2512,-3.4159,-3.3679,-3.4292,-3.5504,-3.5504,-3.5504,-3.5504,-3.5504,-3.5504,-3.5504,-4.329,-4.329,-4.329,-4.329,-4.329,-4.329,-4.329,-4.3135,-4.2731,-4.2126,-4.1811,-4.1407,-4.0711,-4.0277,0.0,-4.0023,-3.9424,-3.8646,-3.7734,-3.7285,-3.6776,-3.6148,-3.5729,-3.5504,-3.5504,-3.5504,0.0,-3.5504,-3.5504,-3.5295,-3.4861,-3.4861,-3.4637,-3.4262,-3.4681,-3.4487,-3.3844,-3.3604,-3.335,-3.3036,-3.1929,-3.175,-3.2064,-3.166,-3.1511,-3.1511,-3.1511,-3.1511,-3.1511,-3.1511,-3.1511,-3.1511,-3.1511,-3.1511,-3.1511,-3.1511,-3.1511,-3.1511,-3.1511,-3.1511,-3.1511,-3.1511,-3.1511,-3.1511,-3.1511,-3.1511,-3.1511,-3.1511,-3.1511,-3.1511,-3.1511,-3.1511,-3.1361,-3.0928,-3.0896,-3.0432,-2.9146,0.0,0.0,0.0,0.0,0.0,0.0,-2.769,-2.7859,0.0,0.0,0.0,0.0,0.0,0.0,-2.9909,-3.0791,0.0,-3.2871,-3.2452,-3.2318,-3.2482,-3.2064,-3.1869,-3.1899,-3.2557,-3.2886,-3.2856,-3.2422,-3.311,-3.4474,-3.4038,-3.4517,-3.5504,-3.5504,-3.5504,-3.5504,-3.5504,-3.5504,-3.5504,-4.329,-4.329,-4.329,0.0,-4.329,0.0,-4.323,-4.2746,-4.2141,-4.1399,-4.0786,-4.0142,-3.9448,-3.9388,-3.9394,-3.9313,0.0,0.0,0.0,-3.6507,-3.6193,-3.5534,-3.5504,-3.5504,-3.5504,-3.5504,-3.5504,-3.5504,-3.5504,-3.5504,-3.5504,-3.5504,-3.5504,-3.5504,-3.5504,-3.5145,-3.4533,-3.3799,-3.317,-3.2557,-3.1809,-3.1525,-3.157,-3.1525,-3.1511,-3.1511,-3.1511,-3.1511,-3.1511,-3.1511,-3.1511,-3.1511,-3.1511,-3.1511,-3.1511,-3.1511,-3.1511,-3.1511,-3.1511,-3.1511,-3.1511,-3.1511,-3.1511,-3.1511,-3.1511,-3.1511,-3.1511,-3.1511,-3.1511,-3.1511,-3.1511,-3.1511,-3.1481,-3.1436,-3.1436,-3.0972,-2.9726,0.0,0.0,0.0,0.0,0.0,0.0,-2.8873,-2.9112,0.0,0.0,0.0,0.0,0.0,-3.0118,-3.0567,-3.1884,-3.2901,-3.3559,-3.3469,-3.3125,-3.2512,-3.2557,-3.2557,-3.2602,-3.326,-3.3559,-3.3559,-3.3514,-3.3903,-3.4578,-3.4533,-3.4891,-3.5504,-3.5504,-3.5504,-3.5504,-3.5504,-3.5504,-3.5504,0.0,0.0,-4.329,-4.329,-4.329,-4.3125,-4.2671,-4.25,-4.1991,-4.0786,-4.0502,-4.0142,-3.9448,-3.9388,-3.92,-3.8676,-3.8482,-3.8048,-3.724,-3.6746,-3.6193,-3.5534,-3.5504,-3.5504,-3.5504,-3.5504,-3.5504,-3.5504,-3.5504,-3.5504,-3.5504,-3.5504,-3.5504,-3.5504,-3.5504,-3.5415,-3.519,-3.3993,-3.3694,-3.3858,-3.2168,-3.1809,-3.2198,-3.169,-3.1511,-3.1511,-3.1511,-3.1511,-3.1511,-3.1511,-3.1511,-3.1511,-3.1511,-3.1511,-3.1511,-3.1511,-3.1511,-3.1511,-3.1511,-3.1511,-3.1511,-3.1511,-3.1511,-3.1511,-3.1511,-3.1511,-3.1511,-3.1511,-3.1511,-3.1511,-3.1511,-3.1511,-3.1331,-3.0808,-3.0746,-3.0298,-2.9011,-2.9292,0.0,0.0,-2.9355,-2.9804,-2.9202,-2.9412,-2.9666,0.0,0.0,0.0,0.0,-3.2407,-3.2691,-3.1301,-3.2572,-3.3589,-3.4279,-3.3245,-3.2677,-3.2527,-3.3021,-3.326,-3.329,-3.3948,-3.4279,-3.4249,-3.3709,-3.4173,-3.522,-3.4728,-3.4891,-3.5504,-3.5504,-3.5504,-3.5504,-3.5504,-3.5504,-3.5504,-4.329,-4.329,-4.329,-4.329,-4.329,-4.312,-4.25,-4.2141,-4.1587,-4.0531,-4.0142,-3.9813,-3.9454,-3.9388,-3.9275,-3.8901,-3.8302,-3.7674,-3.703,-3.6387,-3.5878,-3.5519,-3.5504,-3.5504,-3.5504,-3.5504,-3.5504,-3.5504,-3.5504,-3.5504,-3.5504,-3.5504,-3.5504,-3.5504,-3.5504,-3.5325,-3.4966,-3.3933,-3.3529,-3.3455,-3.2049,-3.172,-3.1989,-3.1645,-3.1511,-3.1511,-3.1511,-3.1511,-3.1511,-3.1511,-3.1511,-3.1511,-3.1511,-3.1511,-3.1511,-3.1511,-3.1511,-3.1511,-3.1511,-3.1511,-3.1511,-3.1511,-3.1511,-3.1511,-3.1511,-3.1511,-3.1511,-3.1511,-3.1511,-3.1511,-3.1511,-3.1241,-3.0913,-3.0567,-3.0268,-2.9744,-2.8742,-2.916,0.0,-2.9086,-3.0193,-3.0823,-3.0507,-3.1016,-3.1255,-3.0972,-3.1809,0.0,-3.1959,-3.3858,-3.4173,-3.2452,-3.3724,-3.4592,-3.4936,-3.3918,-3.341,-3.341,-3.3769,-3.3948,-3.3994,-3.4637,-3.4951,-3.4936,-3.4562,-3.4831,-3.5474,-3.51,-3.516,-3.5504,-3.5504,-3.5504,-3.5504,-3.5504,-3.5504,-3.5504,-4.329,-4.329,-4.329,-4.329,-4.329,-4.3075,-4.2366,-4.1782,-4.1115,-4.0352,-3.9768,-3.9388,-3.9388,-3.9388,-3.9388,-3.9388,-3.8182,-3.718,-3.6656,-3.5923,-3.5504,-3.5504,-3.5504,-3.5504,-3.5504,-3.5504,-3.5504,-3.5504,-3.5504,-3.5504,-3.5504,-3.5504,-3.5504,-3.5504,-3.5385,-3.5026,-3.4459,-3.3664,-3.3021,-3.2452,-3.1765,-3.1511,-3.1511,-3.1511,-3.1511,-3.1511,-3.1511,-3.1511,-3.1511,-3.1511,-3.1511,-3.1511,-3.1511,-3.1511,-3.1511,-3.1511,-3.1511,-3.1511,-3.1511,-3.1511,-3.1511,-3.1511,-3.1511,-3.1511,-3.1511,-3.1511,-3.1511,-3.1511,-3.1511,-3.1511,-3.1511,-3.1017,-3.0657,-3.0657,-3.0058,-2.9415,-2.8951,0.0,-2.9786,-2.9864,-3.112,-3.1914,-3.1809,-3.2841,-3.308,-3.2019,-3.344,-3.3933,-3.3021,-3.4577,-3.4981,-3.3844,-3.4921,-3.5459,-3.5355,-3.4771,-3.4503,-3.4503,-3.4503,-3.4563,-3.4683,-3.5235,-3.5504,-3.5504,-3.5504,-3.5504,-3.5504,-3.5504,-3.5504,-3.5504,-3.5504,-3.5504,-3.5504,-3.5504,-3.5504,-3.5504,-4.329,-4.329,-4.329,-4.329,-4.329,-4.2925,-4.1713,-4.1482,-4.095,-3.9723,-3.9448,-3.9388,-3.9388,-3.9388,-3.9388,-3.9388,-3.8182,-3.736,-3.727,-3.6163,-3.5504,-3.5504,-3.5504,-3.5504,-3.5504,-3.5504,-3.5504,-3.5504,-3.5504,-3.5504,-3.5504,-3.5504,-3.5504,-3.5489,-3.4906,-3.4608,-3.4429,-3.3185,-3.2617,-3.2452,-3.1765,-3.1511,-3.1511,-3.1511,-3.1511,-3.1511,-3.1511,-3.1511,-3.1511,-3.1511,-3.1511,-3.1511,-3.1511,-3.1511,-3.1511,-3.1511,-3.1511,-3.1511,-3.1511,-3.1511,-3.1511,-3.1511,-3.1511,-3.1511,-3.1511,-3.1511,-3.1511,-3.1511,-3.1511,-3.1511,-3.1511,-3.1406,-3.1346,-3.1346,-3.0357,-2.9729,-3.0148,0.0,-3.0567,-3.1137,-3.2886,-3.3799,-3.3245,-3.338,-3.3649,-3.3993,-3.3784,-3.4053,-3.4996,-3.534,-3.5415,-3.5205,-3.54,-3.5235,-3.4668,-3.4563,-3.4503,-3.4503,-3.4503,-3.4786,-3.5355,-3.5459,-3.5504,-3.5504,-3.5504,-3.5504,-3.5504,-3.5504,-3.5504,-3.5504,-3.5504,-3.5504,-3.5504,-3.5504,-3.5504,-3.5504,-4.329,-4.329,-4.329,-4.329,-4.329,-4.2856,-4.1579,-4.1722,-4.1347,-3.9634,-3.9723,-3.9813,-3.9454,-3.9388,-3.9388,-3.9388,-3.8512,-3.7793,-3.7434,-3.6222,-3.5504,-3.5504,-3.5504,-3.5504,-3.5504,-3.5504,-3.5504,-3.5504,-3.5504,-3.5504,-3.5504,-3.5504,-3.5504,-3.5489,-3.5175,-3.4622,-3.3903,-3.3305,-3.2632,-3.1929,-3.163,-3.1511,-3.154,-3.1899,-3.2034,-3.2034,-3.2034,-3.2034,-3.1974,-3.163,-3.1511,-3.1511,-3.1511,-3.175,-3.2034,-3.2034,-3.2034,-3.1959,-3.16,-3.1765,-3.1944,-3.1585,-3.1511,-3.1511,-3.1511,-3.178,-3.2034,-3.2034,-3.2318,-3.2587,-3.2587,-3.1989,-3.1615,-3.1974,-3.0672,0.0,0.0,-3.0821,-3.1286,-3.1959,-3.3499,-3.4533,-3.4577,-3.4577,-3.4711,-3.5011,-3.4756,-3.4861,-3.5474,-3.5504,-3.5504,-3.5504,-3.5504,-3.5355,-3.504,-3.5026,-3.5026,-3.5026,-3.5026,-3.519,-3.5504,-3.5504,-3.5504,-3.5504,-3.5504,-3.5504,-3.5504,-3.5504,-3.5504,-3.5504,-3.5504,-3.5504,-3.5504,-3.5504,-3.5504,-3.5504,-4.329,-4.329,-4.329,-4.329,-4.329,-4.2901,-4.1788,-4.1946,-4.1572,-3.9873,-3.9948,-3.9978,-3.9469,-3.9388,-3.9388,-3.9388,-3.8796,-3.8182,-3.7674,-3.6447,-3.5669,-3.5519,-3.5504,-3.5504,-3.5504,-3.5504,-3.5504,-3.5504,-3.5504,-3.5504,-3.5504,-3.5504,-3.5504,-3.5489,-3.534,-3.4607,-3.3484,-3.3335,-3.2572,-3.1511,-3.1511,-3.1511,-3.157,-3.2228,-3.2512,-3.2512,-3.2512,-3.2512,-3.2392,-3.1735,-3.16,-3.1735,-3.1735,-3.2183,-3.2736,-3.2736,-3.2841,-3.2826,-3.2138,-3.2333,-3.2617,-3.2079,-3.1959,-3.1959,-3.1959,-3.2348,-3.2736,-3.2736,-3.314,-3.3499,-3.3499,-3.2677,-3.2123,-3.2662,0.0,0.0,0.0,-3.163,-3.2198,-3.2901,-3.4008,-3.4921,-3.5459,-3.5504,-3.5504,-3.5504,-3.5504,-3.5504,-3.5504,-3.5504,-3.5504,-3.5504,-3.5504,-3.5504,-3.5504,-3.5504,-3.5504,-3.5504,-3.5504,-3.5504,-3.5504,-3.5504,-3.5504,-3.5504,-3.5504,-3.5504,-3.5504,-3.5504,-3.5504,-3.5504,-3.5504,-3.5359,-3.518,-3.5392,-3.5359,-3.5166,-4.329,-4.329,-4.329,-4.329,-4.329,-4.309,-4.244,-4.1856,-4.119,-4.0427,-3.9843,-3.9433,-3.9424,-3.9388,-3.9388,-3.9388,-3.8796,-3.8362,-3.8317,-3.712,-3.6148,-3.5534,-3.5504,-3.5504,-3.5504,-3.5504,-3.5504,-3.5504,-3.5504,-3.5504,-3.5504,-3.5504,-3.5504,-3.5474,-3.4846,-3.4189,-3.3455,-3.2841,-3.2153,-3.1511,-3.1511,-3.1511,-3.157,-3.2228,-3.2512,-3.2512,-3.2512,-3.2512,-3.2392,-3.1735,-3.1914,-3.2437,-3.2437,-3.2901,-3.3425,-3.3425,-3.3858,-3.4219,-3.3529,-3.338,-3.341,-3.3365,-3.335,-3.335,-3.335,-3.338,-3.3425,-3.3425,-3.3469,-3.3499,-3.3499,-3.3425,-3.3365,-3.341,0.0,0.0,-3.3185,-3.332,-3.3589,-3.4279,-3.4981,-3.5444,-3.5504,-3.5504,-3.5504,-3.5504,-3.5504,-3.5504,-3.5504,-3.5504,-3.5504,-3.5504,-3.5504,-3.5504,-3.5504,-3.5504,-3.5504,-3.5504,-3.5504,-3.5504,-3.5504,-3.5504,-3.5504,-3.5504,-3.5504,-3.5504,-3.5504,-3.5504,-3.5504,-3.5504,-3.5504,-3.4953,-3.4211,-3.5166,-3.4905,-3.4245,-4.329,-4.329,-4.329,-4.329,-4.329,-4.312,-4.25,-4.2186,-4.1647,-4.0531,-4.0187,-3.9873,-3.9433,-3.9388,-3.9388,-3.9388,-3.9185,-3.8841,-3.8422,-3.7943,-3.703,-3.5564,-3.5504,-3.5504,-3.5504,-3.5504,-3.5504,-3.5504,-3.5504,-3.5504,-3.5504,-3.5504,-3.5504,-3.5489,-3.5235,-3.4517,-3.3484,-3.323,-3.2497,-3.1511,-3.1511,-3.1511,-3.1615,-3.2721,-3.3125,-3.3125,-3.3125,-3.3125,-3.3021,-3.2333,-3.2273,-3.2557,-3.2991,-3.3574,-3.4188,-3.4622,-3.4921,-3.5055,-3.4816,-3.4427,-3.4008,-3.3589,-3.3499,-3.3499,-3.3499,-3.3814,-3.4098,-3.4098,-3.4442,-3.4741,-3.4741,-3.4397,-3.4247,-3.4666,0.0,-3.335,-3.4039,-3.4098,-3.4219,-3.4474,-3.5085,-3.5504,-3.5504,-3.5504,-3.5504,-3.5504,-3.5504,-3.5504,-3.5504,-3.5504,-3.5504,-3.5504,-3.5504,-3.5504,-3.5504,-3.5504,-3.5504,-3.5504,-3.5504,-3.5504,-3.5504,-3.5504,-3.5504,-3.5504,-3.5504,-3.5504,-3.5504,-3.5504,-3.5504,-3.5504,-3.5504,-3.4872,-3.4061,-3.4428,-3.4312,-3.4061,-4.329,-4.329,-4.329,-4.329,-4.329,-4.314,-4.2746,-4.253,-4.2006,-4.0846,-4.0531,-4.0142,-3.9448,-3.9388,-3.9388,-3.9388,-3.9388,-3.9215,-3.8736,-3.8317,-3.7404,-3.5878,-3.5804,-3.5714,-3.5504,-3.5504,-3.5504,-3.5504,-3.5504,-3.5504,-3.5504,-3.5504,-3.5504,-3.5504,-3.5504,-3.4876,-3.3784,-3.3589,-3.2856,-3.1809,-3.1809,-3.1809,-3.1959,-3.3305,-3.3799,-3.3799,-3.3799,-3.3799,-3.3709,-3.3036,-3.2961,-3.3215,-3.3664,-3.4262,-3.4891,-3.537,-3.5504,-3.5504,-3.5504,-3.516,-3.4681,-3.4233,-3.4128,-3.4128,-3.4128,-3.4472,-3.4801,-3.4801,-3.5175,-3.5504,-3.5504,-3.5115,-3.4951,-3.5429,-3.4726,-3.4277,-3.4741,-3.4801,-3.4801,-3.4801,-3.522,-3.5504,-3.5504,-3.5504,-3.5504,-3.5504,-3.5504,-3.5504,-3.5504,-3.5504,-3.5504,-3.5504,-3.5504,-3.5504,-3.5504,-3.5504,-3.5504,-3.5504,-3.5504,-3.5504,-3.5504,-3.5504,-3.5504,-3.5504,-3.5504,-3.5504,-3.5504,-3.5504,-3.5504,-3.5472,-3.5166,-3.4442,-3.3567,-3.3567,-3.338,-3.3206,-4.329,-4.329,-4.329,-4.329,-4.329,-4.329,-4.329,-4.2776,-4.2171,-4.1474,-4.0816,-4.0157,-3.9499,-3.9388,-3.9388,-3.9388,-3.9388,-3.9388,-3.9388,-3.8167,-3.715,-3.6522,-3.6492,-3.6178,-3.5519,-3.5504,-3.5504,-3.5504,-3.5504,-3.5504,-3.5504,-3.5504,-3.5504,-3.5504,-3.5504,-3.5115,-3.4459,-3.3769,-3.3125,-3.2497,-3.2497,-3.2497,-3.2662,-3.3978,-3.4503,-3.4503,-3.4503,-3.4503,-3.4414,-3.3724,-3.3933,-3.4503,-3.4518,-3.4951,-3.5504,-3.5504,-3.5504,-3.5504,-3.5504,-3.5504,-3.5504,-3.5504,-3.5504,-3.5504,-3.5504,-3.5504,-3.5504,-3.5504,-3.5504,-3.5504,-3.5504,-3.5504,-3.5504,-3.5504,-3.5504,-3.5504,-3.5504,-3.5504,-3.5504,-3.5504,-3.5504,-3.5504,-3.5504,-3.5504,-3.5504,-3.5504,-3.5504,-3.5504,-3.5504,-3.5504,-3.5504,-3.5504,-3.5504,-3.5504,-3.5504,-3.5504,-3.5504,-3.5504,-3.5504,-3.5504,-3.5504,-3.5504,-3.5504,-3.5504,-3.5504,-3.5504,-3.5504,-3.5504,-3.5504,-3.5392,-3.4394,-3.3415,-3.2593,-3.2593,-3.1997,-3.1462,-4.329,-4.329,-4.329,-4.329,-4.329,-4.329,-4.329,-4.2776,-4.2336,-4.2126,-4.11,-4.0322,-4.0127,-3.9694,-3.9388,-3.9388,-3.9388,-3.9388,-3.9388,-3.905,-3.8317,-3.718,-3.6282,-3.5699,-3.5504,-3.5504,-3.5504,-3.5504,-3.5504,-3.5504,-3.5504,-3.5504,-3.5504,-3.5489,-3.4996,-3.4698,-3.4459,-3.3769,-3.338,-3.32,-3.32,-3.32,-3.3305,-3.4174,-3.4503,-3.4503,-3.4503,-3.4503,-3.4474,-3.4279,-3.4339,-3.4593,-3.504,-3.534,-3.5504,-3.5504,-3.5504,-3.5504,-3.5504,-3.5504,-3.5504,-3.5504,-3.5504,-3.5504,-3.5504,-3.5504,-3.5504,-3.5504,-3.5504,-3.5504,-3.5504,-3.5504,-3.5504,-3.5504,-3.5504,-3.5504,-3.5504,-3.5504,-3.5504,-3.5504,-3.5504,-3.5504,-3.5504,-3.5504,-3.5504,-3.5504,-3.5504,-3.5504,-3.5504,-3.5504,-3.5504,-3.5504,-3.5504,-3.5504,-3.5504,-3.5504,-3.5504,-3.5504,-3.5504,-3.5504,-3.5504,-3.5504,-3.5504,-3.5504,-3.5504,-3.5504,-3.5504,-3.5504,-3.5504,-3.5392,-3.4394,-3.3415,-3.2522,-3.1852,-3.1426,-3.1352,-4.329,-4.329,-4.329,-4.329,-4.329,-4.329,-4.329,-4.3,-4.2656,-4.2425,-4.1707,-4.098,-4.0457,-4.0053,-3.9709,-3.9403,-3.9388,-3.9388,-3.9388,-3.917,-3.8646,-3.7838,-3.6582,-3.5774,-3.5504,-3.5504,-3.5504,-3.5504,-3.5504,-3.5504,-3.5504,-3.5504,-3.5504,-3.5489,-3.507,-3.4891,-3.4846,-3.4173,-3.3888,-3.3888,-3.3888,-3.3888,-3.3963,-3.4622,-3.4891,-3.4891,-3.4891,-3.4891,-3.4891,-3.4891,-3.4891,-3.4966,-3.537,-3.5504,-3.5504,-3.5504,-3.5504,-3.5504,-3.5504,-3.5504,-3.5504,-3.5504,-3.5504,-3.5504,-3.5504,-3.5504,-3.5504,-3.5504,-3.5504,-3.5504,-3.5504,-3.5504,-3.5504,-3.5504,-3.5504,-3.5504,-3.5504,-3.5504,-3.5504,-3.5504,-3.5504,-3.5504,-3.5504,-3.5504,-3.5504,-3.5504,-3.5504,-3.5504,-3.5504,-3.5504,-3.5504,-3.5504,-3.5504,-3.5504,-3.5504,-3.5504,-3.5504,-3.5504,-3.5504,-3.5504,-3.5504,-3.5504,-3.5504,-3.5504,-3.5504,-3.5504,-3.5504,-3.5504,-3.5504,-3.5392,-3.4394,-3.3415,-3.25,-3.1536,-3.097,-3.0771,-4.329,-4.329,-4.329,-4.329,-4.329,-4.329,-4.329,-4.329,-4.312,-4.256,-4.2425,-4.1946,-4.0711,-4.0531,-4.0247,-3.9649,-3.9508,-3.9514,-3.9514,-3.8856,-3.8452,-3.8392,-3.727,-3.6327,-3.5609,-3.5534,-3.5504,-3.5504,-3.5504,-3.5504,-3.5504,-3.5504,-3.5504,-3.5504,-3.5444,-3.5444,-3.5459,-3.4771,-3.4533,-3.4593,-3.4593,-3.4593,-3.4668,-3.5265,-3.5504,-3.5504,-3.5504,-3.5504,-3.5504,-3.5504,-3.5504,-3.5504,-3.5504,-3.5504,-3.5504,-3.5504,-3.5504,-3.5504,-3.5504,-3.5504,-3.5504,-3.5504,-3.5504,-3.5504,-3.5504,-3.5504,-3.5504,-3.5504,-3.5504,-3.5519,-3.5579,-3.5594,-3.5609,-3.5669,-3.5624,-3.5594,-3.5594,-3.5549,-3.5504,-3.5504,-3.5504,-3.5534,-3.5594,-3.5594,-3.5564,-3.5504,-3.5504,-3.5504,-3.5504,-3.5392,-3.5407,-3.5504,-3.5392,-3.5392,-3.5504,-3.5504,-3.5504,-3.5504,-3.5504,-3.5504,-3.5504,-3.5504,-3.5504,-3.5504,-3.5504,-3.5504,-3.5504,-3.5504,-3.5504,-3.5392,-3.4394,-3.3415,-3.25,-3.1536,-3.0595,-2.9934,-4.329,-4.329,-4.329,-4.329,-4.329,-4.329,-4.329,-4.329,-4.3245,-4.3135,-4.2671,-4.2291,-4.2006,-4.1512,-4.1115,-4.0965,-4.0487,-4.0187,-4.0187,-3.9574,-3.896,-3.8407,-3.8123,-3.7449,-3.6297,-3.5774,-3.5504,-3.5504,-3.5504,-3.5504,-3.5504,-3.5504,-3.5504,-3.5489,-3.4936,-3.4996,-3.5459,-3.4771,-3.4786,-3.528,-3.528,-3.528,-3.5295,-3.5444,-3.5504,-3.5504,-3.5504,-3.5504,-3.5504,-3.5504,-3.5504,-3.5504,-3.5504,-3.5504,-3.5504,-3.5504,-3.5504,-3.5504,-3.5504,-3.5504,-3.5504,-3.5504,-3.5504,-3.5504,-3.5504,-3.5504,-3.5504,-3.5504,-3.5504,-3.5669,-3.6178,-3.6267,-3.6432,-3.6911,-3.6582,-3.6267,-3.6267,-3.5833,-3.5504,-3.5504,-3.5504,-3.5714,-3.6222,-3.6267,-3.6058,-3.5549,-3.5504,-3.5504,-3.5504,-3.4758,-3.4691,-3.5472,-3.4725,-3.4691,-3.5504,-3.5504,-3.5504,-3.5504,-3.5504,-3.5504,-3.5504,-3.5504,-3.5504,-3.5504,-3.5504,-3.5504,-3.5504,-3.5504,-3.5504,-3.5392,-3.4394,-3.3415,-3.25,-3.1536,-3.0595,-3.0037,-4.329,-4.329,-4.329,-4.329,-4.329,-4.329,-4.329,-4.329,-4.329,-4.329,-4.2761,-4.2396,-4.2396,-4.1527,-4.0786,-4.0472,-4.0412,-4.0262,-3.9948,-3.9568,-3.926,-3.8901,-3.8556,-3.7928,-3.6941,-3.6297,-3.5818,-3.5504,-3.5504,-3.5504,-3.5504,-3.5504,-3.5504,-3.5489,-3.513,-3.516,-3.5489,-3.5115,-3.5175,-3.5504,-3.5504,-3.5504,-3.5504,-3.5504,-3.5504,-3.5504,-3.5504,-3.5504,-3.5504,-3.5504,-3.5504,-3.5504,-3.5504,-3.5504,-3.5504,-3.5504,-3.5504,-3.5504,-3.5504,-3.5504,-3.5504,-3.5504,-3.5504,-3.5504,-3.5504,-3.5504,-3.5504,-3.5504,-3.5744,-3.6073,-3.6432,-3.6731,-3.703,-3.736,-3.7135,-3.6926,-3.6926,-3.6626,-3.6417,-3.6417,-3.6417,-3.6552,-3.6896,-3.6656,-3.6342,-3.5998,-3.5684,-3.5504,-3.5504,-3.4543,-3.4245,-3.4758,-3.4279,-3.4027,-3.4124,-3.4543,-3.4543,-3.4124,-3.5067,-3.5504,-3.5504,-3.5504,-3.5504,-3.5504,-3.5504,-3.5504,-3.5504,-3.5504,-3.5504,-3.5439,-3.4905,-3.3856,-3.2522,-3.2069,-3.0983,-2.9998,-4.329,-4.329,-4.329,-4.329,-4.329,-4.329,-4.329,-4.329,-4.329,-4.329,-4.2865,-4.256,-4.256,-4.1381,-4.0345,-3.9706,-3.9869,-3.9802,-3.9312,-3.92,-3.9228,-3.9388,-3.8871,-3.8257,-3.7599,-3.7075,-3.6387,-3.5504,-3.5504,-3.5504,-3.5504,-3.5504,-3.5504,-3.5504,-3.5504,-3.5504,-3.5504,-3.5504,-3.5504,-3.5504,-3.5504,-3.5504,-3.5504,-3.5504,-3.5504,-3.5504,-3.5504,-3.5504,-3.5504,-3.5504,-3.5504,-3.5504,-3.5504,-3.5504,-3.5534,-3.5639,-3.5669,-3.5669,-3.5669,-3.5669,-3.5639,-3.5534,-3.5504,-3.5504,-3.5504,-3.5594,-3.5669,-3.5669,-3.6193,-3.6671,-3.6791,-3.7225,-3.7614,-3.7734,-3.7659,-3.7584,-3.7584,-3.7479,-3.7404,-3.7404,-3.7509,-3.7539,-3.7419,-3.7045,-3.6776,-3.6656,-3.6043,-3.5669,-3.5669,-3.4601,-3.3993,-3.3993,-3.3908,-3.3536,-3.2745,-3.3614,-3.367,-3.2911,-3.4593,-3.5317,-3.5246,-3.5424,-3.5504,-3.5504,-3.5504,-3.5504,-3.5504,-3.5504,-3.5504,-3.5504,-3.5504,-3.4308,-3.2558,-3.2249,-3.1132,-2.9934,-4.329,-4.329,-4.329,-4.329,-4.329,-4.329,-4.329,-4.329,-4.329,-4.329,-4.3215,-4.317,-4.317,-4.2133,-4.1213,-4.067,-3.9256,-3.8517,-3.8847,-3.8335,-3.8435,-3.9337,-3.9334,-3.896,-3.8272,-3.8167,-3.727,-3.5504,-3.5504,-3.5504,-3.5504,-3.5504,-3.5504,-3.5504,-3.5504,-3.5504,-3.5504,-3.5504,-3.5504,-3.5504,-3.5504,-3.5504,-3.5504,-3.5504,-3.5504,-3.5504,-3.5504,-3.5504,-3.5504,-3.5504,-3.5504,-3.5504,-3.5504,-3.5504,-3.5609,-3.6193,-3.6357,-3.6357,-3.6357,-3.6357,-3.6222,-3.5654,-3.5504,-3.5504,-3.5504,-3.5953,-3.6357,-3.6357,-3.6851,-3.7464,-3.8033,-3.8197,-3.8452,-3.905,-3.8646,-3.8257,-3.8257,-3.7764,-3.7404,-3.7404,-3.7913,-3.8033,-3.7464,-3.7838,-3.7898,-3.733,-3.6701,-3.6357,-3.6357,-3.4869,-3.3993,-3.3993,-3.3641,-3.3417,-3.3307,-3.3919,-3.4195,-3.4083,-3.4697,-3.4692,-3.4245,-3.51,-3.5504,-3.5504,-3.5504,-3.5504,-3.5504,-3.5504,-3.5504,-3.5504,-3.5504,-3.4308,-3.2393,-3.0784,-2.9998,-2.9934,-4.329,-4.329,-4.329,-4.329,-4.329,-4.329,-4.329,-4.329,-4.329,-4.329,-4.3015,-4.2674,-4.2382,-4.1022,-4.0036,-3.9726,-3.841,-3.7788,-3.8213,-3.7949,-3.8271,-3.9337,-3.9388,-3.9095,-3.8407,-3.8392,-3.7793,-3.6567,-3.6222,-3.5863,-3.5504,-3.5504,-3.5504,-3.5504,-3.5504,-3.5504,-3.5504,-3.5504,-3.5504,-3.5504,-3.5504,-3.5504,-3.5504,-3.5504,-3.5504,-3.5504,-3.5504,-3.5504,-3.5504,-3.5504,-3.5504,-3.5504,-3.5504,-3.5504,-3.5639,-3.6297,-3.6492,-3.6567,-3.6911,-3.7,-3.6926,-3.6641,-3.6312,-3.6148,-3.6492,-3.6791,-3.6911,-3.6552,-3.727,-3.8048,-3.8347,-3.8706,-3.9065,-3.9328,-3.917,-3.896,-3.896,-3.8706,-3.8527,-3.8527,-3.8796,-3.8856,-3.8556,-3.8452,-3.8272,-3.7973,-3.736,-3.7,-3.7,-3.5789,-3.5113,-3.5113,-3.4377,-3.3717,-3.3179,-3.3357,-3.3182,-3.2686,-3.4004,-3.4597,-3.4525,-3.5197,-3.5504,-3.5504,-3.5504,-3.5504,-3.5504,-3.5504,-3.5504,-3.5504,-3.5504,-3.4308,-3.2357,-3.0495,-2.9792,-2.9869]},{"header":{"parameterUnit":"m.s-1","parameterCategory":1,"la1":30.6,"la2":28.766,"lo1":-90.7593,"lo2":-88.6598,"dy":0.0162,"dx":0.0183,"nx":116,"ny":114,"refTime":"2023-03-21T06:00:00:Z","depth":0,"parameterNumber":3,"parameterNumberName":"V-component_of_WINDS"},"data":[0.0,0.0,0.0,0.0,0.0,0.0,0.0,0.0,0.0,0.0,0.0,0.0,0.0,0.0,0.0,0.0,0.0,0.0,0.0,0.0,0.0,0.0,0.0,0.0,0.0,0.0,0.0,0.0,0.0,0.0,0.0,0.0,0.0,0.0,0.0,0.0,0.0,0.0,0.0,0.0,0.0,0.0,0.0,0.0,0.0,0.0,0.0,0.0,0.0,0.0,0.0,0.0,0.0,0.0,0.0,0.0,0.0,0.0,0.0,0.0,0.0,0.0,0.0,0.0,0.0,0.0,0.0,0.0,0.0,0.0,0.0,0.0,0.0,0.0,0.0,0.0,0.0,0.0,0.0,0.0,0.0,0.0,0.0,0.0,0.0,0.0,0.0,0.0,0.0,0.0,0.0,0.0,0.0,0.0,0.0,0.0,0.0,0.0,0.0,0.0,0.0,0.0,0.0,0.0,0.0,0.0,0.0,0.0,0.0,0.0,0.0,0.0,0.0,0.0,0.0,0.0,0.0,0.0,0.0,0.0,0.0,0.0,0.0,0.0,0.0,0.0,0.0,0.0,0.0,0.0,0.0,0.0,0.0,0.0,0.0,0.0,0.0,0.0,0.0,0.0,0.0,0.0,0.0,0.0,0.0,0.0,0.0,0.0,0.0,0.0,0.0,0.0,0.0,0.0,0.0,0.0,0.0,0.0,0.0,0.0,0.0,0.0,0.0,0.0,0.0,0.0,0.0,0.0,0.0,0.0,0.0,0.0,0.0,0.0,0.0,0.0,0.0,0.0,0.0,0.0,0.0,0.0,0.0,0.0,0.0,0.0,0.0,0.0,0.0,0.0,0.0,0.0,0.0,0.0,0.0,0.0,0.0,0.0,0.0,0.0,0.0,0.0,0.0,0.0,0.0,0.0,0.0,0.0,0.0,0.0,0.0,0.0,0.0,0.0,0.0,0.0,0.0,0.0,0.0,0.0,0.0,0.0,0.0,0.0,0.0,0.0,0.0,0.0,0.0,0.0,0.0,0.0,0.0,0.0,0.0,0.0,0.0,0.0,0.0,0.0,0.0,0.0,0.0,0.0,0.0,0.0,0.0,0.0,0.0,0.0,0.0,0.0,0.0,0.0,0.0,0.0,0.0,0.0,0.0,0.0,0.0,0.0,0.0,0.0,0.0,0.0,0.0,0.0,0.0,0.0,0.0,0.0,0.0,0.0,0.0,0.0,0.0,0.0,0.0,0.0,0.0,0.0,0.0,0.0,0.0,0.0,0.0,0.0,0.0,0.0,0.0,0.0,0.0,0.0,0.0,0.0,0.0,0.0,0.0,0.0,0.0,0.0,0.0,0.0,0.0,0.0,0.0,0.0,0.0,0.0,0.0,0.0,0.0,0.0,0.0,0.0,0.0,0.0,0.0,0.0,0.0,0.0,0.0,0.0,0.0,0.0,0.0,0.0,0.0,0.0,0.0,0.0,0.0,0.0,0.0,0.0,0.0,0.0,0.0,0.0,0.0,0.0,0.0,0.0,0.0,0.0,0.0,0.0,0.0,0.0,0.0,0.0,0.0,0.0,0.0,0.0,0.0,0.0,0.0,0.0,0.0,0.0,0.0,0.0,0.0,0.0,0.0,0.0,0.0,0.0,0.0,0.0,0.0,0.0,0.0,0.0,0.0,0.0,0.0,0.0,0.0,0.0,0.0,0.0,0.0,0.0,0.0,0.0,0.0,0.0,0.0,0.0,0.0,0.0,0.0,0.0,0.0,0.0,0.0,0.0,0.0,0.0,0.0,0.0,0.0,0.0,0.0,0.0,0.0,0.0,0.0,0.0,0.0,0.0,0.0,0.0,0.0,0.0,0.0,0.0,0.0,0.0,0.0,0.0,0.0,0.0,0.0,0.0,0.0,0.0,0.0,0.0,0.0,0.0,0.0,0.0,0.0,0.0,0.0,0.0,0.0,0.0,0.0,0.0,0.0,0.0,0.0,0.0,0.0,0.0,0.0,0.0,0.0,0.0,0.0,0.0,0.0,0.0,0.0,0.0,0.0,0.0,0.0,0.0,0.0,0.0,0.0,0.0,0.0,0.0,0.0,0.0,0.0,0.0,0.0,0.0,0.0,0.0,0.0,0.0,0.0,0.0,0.0,0.0,0.0,0.0,0.0,0.0,0.0,0.0,0.0,0.0,0.0,0.0,0.0,0.0,0.0,0.0,0.0,0.0,0.0,0.0,0.0,0.0,0.0,0.0,0.0,0.0,0.0,0.0,0.0,0.0,0.0,0.0,0.0,0.0,0.0,0.0,0.0,0.0,0.0,0.0,0.0,0.0,0.0,0.0,0.0,0.0,0.0,0.0,0.0,0.0,0.0,0.0,0.0,0.0,0.0,0.0,0.0,0.0,0.0,0.0,0.0,0.0,0.0,0.0,0.0,0.0,0.0,0.0,0.0,0.0,0.0,0.0,0.0,0.0,0.0,0.0,0.0,0.0,0.0,0.0,0.0,0.0,0.0,0.0,0.0,0.0,0.0,0.0,0.0,0.0,0.0,0.0,0.0,0.0,0.0,0.0,0.0,0.0,0.0,0.0,0.0,0.0,0.0,0.0,0.0,0.0,0.0,0.0,0.0,0.0,0.0,0.0,0.0,0.0,0.0,0.0,0.0,0.0,0.0,0.0,0.0,0.0,0.0,0.0,0.0,0.0,0.0,0.0,0.0,0.0,0.0,0.0,0.0,0.0,0.0,0.0,0.0,0.0,0.0,0.0,0.0,0.0,0.0,0.0,0.0,0.0,0.0,0.0,0.0,0.0,0.0,0.0,0.0,0.0,0.0,0.0,0.0,0.0,0.0,0.0,0.0,0.0,0.0,0.0,0.0,0.0,0.0,0.0,0.0,0.0,0.0,0.0,0.0,0.0,0.0,0.0,0.0,0.0,0.0,0.0,0.0,0.0,0.0,0.0,0.0,0.0,0.0,0.0,0.0,0.0,0.0,0.0,0.0,0.0,0.0,0.0,0.0,0.0,0.0,0.0,0.0,0.0,0.0,0.0,0.0,0.0,0.0,0.0,0.0,0.0,0.0,0.0,0.0,0.0,0.0,0.0,0.0,0.0,0.0,0.0,0.0,0.0,0.0,0.0,0.0,0.0,0.0,0.0,0.0,0.0,0.0,0.0,0.0,0.0,0.0,0.0,0.0,0.0,0.0,0.0,0.0,0.0,0.0,0.0,0.0,0.0,0.0,0.0,0.0,0.0,0.0,0.0,0.0,0.0,0.0,0.0,0.0,0.0,0.0,0.0,0.0,0.0,0.0,0.0,0.0,0.0,0.0,0.0,0.0,0.0,0.0,0.0,0.0,0.0,0.0,0.0,0.0,0.0,0.0,0.0,0.0,0.0,0.0,0.0,0.0,0.0,0.0,0.0,0.0,0.0,0.0,0.0,0.0,0.0,0.0,0.0,0.0,0.0,0.0,0.0,0.0,0.0,0.0,0.0,0.0,0.0,0.0,0.0,0.0,0.0,0.0,0.0,0.0,0.0,0.0,0.0,0.0,0.0,0.0,0.0,0.0,0.0,0.0,0.0,0.0,0.0,0.0,0.0,0.0,0.0,0.0,0.0,0.0,0.0,0.0,0.0,0.0,0.0,0.0,0.0,0.0,0.0,0.0,0.0,0.0,0.0,0.0,0.0,0.0,0.0,0.0,0.0,0.0,0.0,0.0,0.0,0.0,0.0,0.0,0.0,0.0,0.0,0.0,0.0,0.0,0.0,0.0,0.0,0.0,0.0,0.0,0.0,0.0,0.0,0.0,0.0,0.0,0.0,0.0,0.0,0.0,0.0,0.0,0.0,0.0,0.0,0.0,0.0,0.0,0.0,0.0,0.0,0.0,0.0,0.0,0.0,0.0,0.0,0.0,0.0,0.0,0.0,0.0,0.0,0.0,0.0,0.0,0.0,0.0,0.0,0.0,0.0,0.0,0.0,0.0,0.0,0.0,0.0,0.0,0.0,0.0,0.0,0.0,0.0,0.0,0.0,0.0,0.0,0.0,0.0,0.0,0.0,0.0,0.0,0.0,0.0,0.0,0.0,0.0,0.0,0.0,0.0,0.0,0.0,0.0,0.0,0.0,0.0,0.0,0.0,0.0,0.0,0.0,0.0,0.0,0.0,0.0,0.0,0.0,0.0,0.0,0.0,0.0,0.0,0.0,0.0,0.0,0.0,0.0,0.0,0.0,0.0,0.0,0.0,0.0,0.0,0.0,0.0,0.0,0.0,0.0,0.0,0.0,0.0,0.0,0.0,0.0,0.0,0.0,0.0,0.0,0.0,0.0,0.0,0.0,0.0,0.0,0.0,0.0,0.0,0.0,0.0,0.0,0.0,0.0,0.0,0.0,0.0,0.0,0.0,0.0,0.0,0.0,0.0,0.0,0.0,0.0,0.0,0.0,0.0,0.0,0.0,0.0,0.0,0.0,0.0,0.0,0.0,0.0,0.0,0.0,0.0,0.0,0.0,0.0,0.0,0.0,0.0,0.0,0.0,0.0,0.0,0.0,0.0,0.0,0.0,0.0,0.0,0.0,0.0,0.0,0.0,0.0,0.0,0.0,0.0,0.0,0.0,0.0,0.0,0.0,0.0,0.0,0.0,0.0,0.0,0.0,0.0,0.0,0.0,0.0,0.0,0.0,0.0,0.0,0.0,0.0,0.0,0.0,0.0,0.0,0.0,0.0,0.0,0.0,0.0,0.0,0.0,0.0,0.0,0.0,0.0,0.0,0.0,0.0,0.0,0.0,0.0,0.0,0.0,0.0,0.0,0.0,0.0,0.0,0.0,0.0,0.0,0.0,0.0,0.0,0.0,0.0,0.0,0.0,0.0,0.0,0.0,0.0,0.0,0.0,0.0,0.0,0.0,0.0,0.0,0.0,0.0,0.0,0.0,0.0,0.0,0.0,0.0,0.0,0.0,0.0,0.0,0.0,0.0,0.0,0.0,0.0,0.0,0.0,0.0,0.0,0.0,0.0,0.0,0.0,0.0,0.0,0.0,0.0,0.0,0.0,0.0,0.0,0.0,0.0,0.0,0.0,0.0,0.0,0.0,0.0,0.0,0.0,0.0,0.0,0.0,0.0,0.0,0.0,0.0,0.0,0.0,0.0,0.0,0.0,0.0,0.0,0.0,0.0,0.0,0.0,0.0,0.0,0.0,0.0,0.0,0.0,0.0,0.0,0.0,0.0,0.0,0.0,0.0,0.0,0.0,0.0,0.0,0.0,0.0,0.0,0.0,0.0,0.0,0.0,0.0,0.0,0.0,0.0,0.0,0.0,0.0,0.0,0.0,0.0,0.0,0.0,0.0,0.0,0.0,0.0,0.0,0.0,0.0,0.0,0.0,0.0,0.0,0.0,0.0,0.0,0.0,0.0,0.0,0.0,0.0,0.0,0.0,0.0,0.0,0.0,0.0,0.0,0.0,0.0,0.0,0.0,0.0,0.0,0.0,0.0,0.0,0.0,0.0,0.0,0.0,0.0,0.0,0.0,0.0,0.0,0.0,0.0,0.0,0.0,0.0,0.0,0.0,0.0,0.0,0.0,0.0,0.0,0.0,0.0,0.0,0.0,0.0,0.0,0.0,0.0,0.0,0.0,0.0,0.0,0.0,0.0,0.0,0.0,0.0,0.0,0.0,0.0,0.0,0.0,0.0,0.0,0.0,0.0,0.0,0.0,0.0,0.0,0.0,0.0,0.0,0.0,0.0,0.0,0.0,0.0,0.0,0.0,0.0,0.0,0.0,0.0,0.0,0.0,0.0,0.0,0.0,0.0,0.0,0.0,0.0,0.0,0.0,0.0,0.0,0.0,0.0,0.0,0.0,0.0,0.0,0.0,0.0,0.0,0.0,0.0,0.0,0.0,0.0,0.0,0.0,0.0,0.0,0.0,0.0,0.0,0.0,0.0,0.0,0.0,0.0,0.0,0.0,0.0,0.0,0.0,0.0,0.0,0.0,0.0,0.0,0.0,0.0,0.0,0.0,0.0,0.0,0.0,0.0,0.0,0.0,0.0,0.0,0.0,0.0,0.0,0.0,0.0,0.0,0.0,0.0,0.0,0.0,0.0,0.0,0.0,0.0,2.0658,0.0,0.0,0.0,0.0,0.0,0.0,0.0,0.0,0.0,0.0,0.0,0.0,0.0,0.0,0.0,0.0,0.0,0.0,0.0,0.0,0.0,0.0,0.0,0.0,0.0,0.0,0.0,0.0,0.0,0.0,0.0,0.0,0.0,0.0,0.0,0.0,0.0,0.0,0.0,0.0,0.0,0.0,0.0,0.0,0.0,0.0,0.0,0.0,0.0,0.0,0.0,0.0,0.0,0.0,0.0,0.0,0.0,0.0,0.0,0.0,0.0,0.0,0.0,0.0,0.0,0.0,0.0,0.0,0.0,0.0,0.0,0.0,0.0,0.0,0.0,0.0,0.0,0.0,0.0,0.0,0.0,0.0,0.0,0.0,0.0,0.0,0.0,0.0,0.0,0.0,0.0,0.0,0.0,0.0,0.0,0.0,0.0,0.0,0.0,0.0,0.0,0.0,0.0,0.0,0.0,0.0,0.0,0.0,0.0,0.0,0.0,0.0,0.0,0.0,0.0,0.0,2.1359,0.0,0.0,0.0,0.0,0.0,0.0,0.0,0.0,0.0,0.0,0.0,0.0,0.0,0.0,0.0,0.0,0.0,0.0,0.0,0.0,0.0,0.0,0.0,0.0,0.0,0.0,0.0,0.0,0.0,0.0,0.0,0.0,0.0,0.0,0.0,0.0,0.0,0.0,0.0,0.0,0.0,0.0,0.0,0.0,0.0,0.0,0.0,0.0,0.0,0.0,0.0,0.0,0.0,0.0,0.0,0.0,0.0,0.0,0.0,0.0,0.0,0.0,0.0,0.0,0.0,0.0,0.0,0.0,0.0,0.0,0.0,0.0,0.0,0.0,0.0,0.0,0.0,0.0,0.0,0.0,0.0,0.0,0.0,0.0,0.0,0.0,0.0,0.0,0.0,0.0,0.0,0.0,0.0,0.0,0.0,0.0,0.0,0.0,0.0,0.0,0.0,0.0,0.0,0.0,0.0,0.0,0.0,0.0,2.3541,2.4762,2.6043,2.6797,2.6813,2.6154,2.4378,2.3022,2.2006,2.167,0.0,0.0,0.0,0.0,0.0,0.0,0.0,0.0,0.0,0.0,0.0,0.0,0.0,0.0,0.0,0.0,0.0,0.0,0.0,0.0,0.0,0.0,0.0,0.0,0.0,0.0,0.0,0.0,0.0,0.0,0.0,0.0,0.0,0.0,0.0,0.0,0.0,0.0,2.7903,2.9115,2.9564,2.9233,2.7475,0.0,0.0,0.0,0.0,0.0,0.0,0.0,0.0,0.0,0.0,0.0,0.0,0.0,0.0,0.0,0.0,0.0,0.0,0.0,0.0,0.0,0.0,0.0,0.0,0.0,0.0,0.0,0.0,0.0,0.0,0.0,0.0,0.0,0.0,0.0,0.0,0.0,0.0,0.0,0.0,0.0,0.0,0.0,1.8668,1.7759,0.0,0.0,0.0,0.0,0.0,0.0,0.0,0.0,0.0,0.0,0.0,0.0,0.0,2.1481,2.2343,2.2556,2.314,2.4091,2.5411,2.6491,2.7409,2.8621,2.9071,2.879,2.8495,0.0,2.4056,2.2365,0.0,0.0,0.0,0.0,0.0,0.0,0.0,0.0,0.0,0.0,0.0,0.0,0.0,0.0,0.0,0.0,0.0,0.0,0.0,0.0,0.0,0.0,0.0,0.0,0.0,0.0,0.0,0.0,0.0,0.0,0.0,0.0,0.0,0.0,0.0,0.0,2.566,2.7332,2.8726,2.9645,3.0394,3.0841,2.9956,2.8965,2.7904,2.6645,0.0,0.0,0.0,0.0,0.0,0.0,0.0,0.0,0.0,0.0,0.0,0.0,0.0,0.0,0.0,0.0,0.0,0.0,0.0,0.0,0.0,0.0,0.0,0.0,0.0,0.0,0.0,0.0,0.0,0.0,0.0,0.0,0.0,0.0,0.0,0.0,0.0,0.0,0.0,1.8516,1.861,1.765,1.728,1.6746,0.0,0.0,0.0,0.0,0.0,0.0,0.0,0.0,0.0,2.2017,2.2611,2.3138,2.3584,2.4384,2.5548,2.7102,2.8161,2.9435,3.0954,3.1509,3.1548,3.1094,3.0716,2.9343,2.728,2.5561,2.4622,2.4219,0.0,0.0,0.0,0.0,2.5334,2.5775,0.0,0.0,0.0,0.0,0.0,0.0,0.0,0.0,0.0,0.0,0.0,0.0,0.0,0.0,0.0,2.6142,0.0,0.0,0.0,0.0,0.0,0.0,0.0,0.0,0.0,0.0,0.0,0.0,2.711,2.8491,2.9693,3.0662,3.1451,3.2137,3.2229,3.1346,2.9676,2.8001,2.6716,0.0,0.0,0.0,0.0,0.0,0.0,0.0,0.0,0.0,0.0,0.0,0.0,0.0,0.0,0.0,0.0,0.0,0.0,0.0,0.0,0.0,0.0,0.0,0.0,0.0,0.0,0.0,0.0,0.0,0.0,0.0,0.0,0.0,0.0,0.0,0.0,0.0,0.0,1.8408,1.8482,1.7542,1.7348,1.7017,0.0,0.0,0.0,0.0,0.0,0.0,2.082,2.2175,2.3242,2.3948,2.4544,2.4908,2.5046,2.6097,2.7508,2.9265,3.0041,3.132,3.3037,3.3199,3.2941,3.2375,3.1856,3.1069,2.9946,2.8132,2.6939,2.6255,2.6052,2.6495,2.7247,2.7369,2.7729,2.8224,0.0,0.0,0.0,0.0,0.0,0.0,0.0,0.0,0.0,0.0,0.0,0.0,0.0,0.0,2.7771,2.9665,2.8675,2.8106,0.0,0.0,0.0,0.0,0.0,0.0,0.0,0.0,0.0,2.7545,2.8284,2.9611,3.1502,3.3064,3.384,3.3879,3.4226,3.3463,3.18,2.936,2.8114,2.7569,0.0,0.0,0.0,0.0,0.0,0.0,0.0,0.0,0.0,0.0,0.0,0.0,0.0,0.0,0.0,0.0,0.0,0.0,0.0,0.0,0.0,0.0,0.0,0.0,0.0,0.0,0.0,0.0,0.0,0.0,0.0,0.0,0.0,0.0,0.0,0.0,0.0,0.0,0.0,1.7322,1.827,0.0,0.0,0.0,0.0,1.9468,2.1466,2.2907,2.3466,2.4719,2.5691,2.6311,2.6864,2.7369,2.7896,2.7957,2.8475,2.9407,3.0095,3.0872,3.1716,3.2353,3.2461,3.2129,3.2101,3.1829,3.1197,2.864,2.793,2.8381,2.7742,2.8297,2.9507,3.0011,3.0228,3.0323,0.0,0.0,0.0,0.0,0.0,0.0,0.0,0.0,0.0,0.0,0.0,0.0,0.0,2.8709,3.0064,3.116,3.1,3.0381,2.9292,0.0,0.0,0.0,0.0,0.0,0.0,0.0,2.6971,2.7956,2.9558,3.0671,3.1374,3.1938,3.2855,3.4013,3.4114,3.4208,3.4112,3.1458,2.9772,2.8682,2.6401,2.5077,0.0,0.0,0.0,0.0,0.0,0.0,0.0,0.0,0.0,0.0,0.0,0.0,0.0,0.0,0.0,0.0,0.0,0.0,0.0,0.0,0.0,0.0,0.0,0.0,0.0,0.0,0.0,0.0,0.0,0.0,0.0,0.0,0.0,0.0,0.0,0.0,0.0,1.9258,1.9753,0.0,1.9875,2.0047,2.0654,2.1878,2.3533,2.4697,2.5156,2.6457,2.7469,2.8034,2.8235,2.8612,2.9189,2.9382,2.9806,3.056,3.0998,3.1566,3.224,3.2131,3.1777,3.125,3.0891,3.0734,3.0675,2.971,2.9747,3.038,3.0154,3.0338,3.0781,3.0967,3.101,3.1006,0.0,0.0,0.0,0.0,0.0,0.0,0.0,0.0,0.0,0.0,0.0,2.6582,2.8251,3.0262,3.1914,3.3034,3.2248,3.122,3.0069,0.0,0.0,0.0,0.0,0.0,0.0,2.8005,2.8929,2.8886,3.0438,3.1217,3.1217,3.1536,3.25,3.4027,3.4361,3.4872,3.5382,3.3581,3.1855,3.0229,2.7889,2.6808,2.6287,0.0,0.0,0.0,0.0,0.0,0.0,0.0,0.0,0.0,0.0,0.0,0.0,0.0,0.0,0.0,0.0,0.0,0.0,0.0,0.0,0.0,0.0,0.0,0.0,0.0,0.0,0.0,0.0,0.0,0.0,0.0,0.0,0.0,0.0,0.0,2.0452,2.0246,2.0726,2.1231,2.1734,2.1962,2.2712,2.4315,2.5769,2.6773,2.7274,2.8164,2.885,2.9202,2.9176,2.9402,2.9792,2.9984,3.0282,3.072,3.092,3.1248,3.1646,3.1294,3.0926,3.0561,3.0031,2.9924,3.0128,3.0004,3.025,3.0773,3.1503,3.179,3.1837,3.2061,3.2096,3.2052,0.0,0.0,0.0,0.0,0.0,0.0,0.0,0.0,0.0,0.0,2.4174,2.6465,2.9087,3.1246,3.3328,3.535,3.2231,3.0392,3.1004,2.6664,0.0,0.0,0.0,0.0,2.9132,3.042,3.0843,3.0461,3.1026,3.1278,3.1241,3.2177,3.3101,3.4027,3.5049,3.5502,3.5534,3.5534,3.4357,3.228,2.9609,2.8851,2.8986,0.0,0.0,0.0,0.0,0.0,0.0,0.0,0.0,0.0,0.0,0.0,0.0,0.0,0.0,0.0,0.0,0.0,0.0,0.0,0.0,0.0,0.0,0.0,0.0,0.0,0.0,0.0,0.0,0.0,0.0,0.0,0.0,0.0,1.7494,2.0058,2.1497,2.0152,2.1133,2.2019,2.2254,2.3552,2.5055,2.6701,2.8137,2.9202,2.9767,2.9792,2.9792,2.9792,2.9792,2.9792,2.9792,2.9792,2.9792,2.9792,2.9792,2.9792,2.9792,2.9754,2.9896,3.0112,2.9556,2.9482,2.9711,2.9385,2.9274,2.9508,3.1685,3.252,3.2622,3.3275,3.3515,3.3428,0.0,0.0,0.0,0.0,0.0,0.0,0.0,0.0,0.0,0.0,2.5761,2.8454,3.0587,3.3108,3.5085,3.6148,3.3054,3.1274,3.176,0.0,0.0,0.0,0.0,0.0,3.0457,3.1488,3.1998,3.2017,3.2807,3.289,3.2213,3.25,3.3101,3.4041,3.4806,3.553,3.6222,3.6222,3.5899,3.5151,3.2411,3.1108,3.0542,0.0,0.0,0.0,0.0,0.0,0.0,0.0,0.0,0.0,0.0,0.0,0.0,0.0,0.0,0.0,0.0,0.0,0.0,0.0,0.0,0.0,0.0,0.0,0.0,0.0,0.0,0.0,0.0,0.0,0.0,0.0,0.0,2.0053,1.9328,2.0493,2.1501,2.1779,2.2393,2.3103,2.3981,2.5171,2.6394,2.7656,2.8889,2.9628,2.9779,2.9792,2.9792,2.9792,2.9792,2.9792,2.9792,2.9792,2.9792,2.9792,2.9792,2.9792,2.9767,2.8938,2.8621,2.8613,2.7682,2.766,2.8265,2.8158,2.829,2.8728,3.0408,3.1086,3.1143,3.1845,3.2056,3.1977,0.0,0.0,0.0,0.0,0.0,0.0,0.0,0.0,0.0,0.0,2.5475,2.8296,3.0287,3.2899,3.4712,3.5188,3.2515,3.0851,3.0912,0.0,0.0,0.0,0.0,3.1559,3.2852,3.3696,3.4076,3.4001,3.456,3.456,3.4001,3.4001,3.4525,3.5449,3.5815,3.633,3.6881,3.6881,3.6881,3.6742,3.5137,3.3924,3.2815,3.0187,2.9525,2.9808,2.8188,2.7951,2.816,2.6877,0.0,0.0,0.0,0.0,0.0,0.0,0.0,0.0,0.0,0.0,0.0,0.0,0.0,0.0,0.0,0.0,0.0,0.0,0.0,0.0,0.0,0.0,0.0,0.0,2.0206,2.1223,2.1026,2.1799,2.2458,2.2738,2.2945,2.3551,2.4702,2.5839,2.6924,2.8004,2.9157,2.9792,2.9792,2.9365,2.9326,2.9792,2.9326,2.9326,2.9792,2.9792,2.9666,2.9428,2.9428,2.9315,2.9063,2.8411,2.8109,2.8059,2.718,2.7091,2.7506,2.7334,2.7422,0.0,0.0,0.0,0.0,0.0,3.0236,3.0007,0.0,0.0,0.0,0.0,0.0,0.0,0.0,0.0,0.0,0.0,0.0,2.686,2.8858,3.1272,3.2851,3.3102,3.1094,2.9649,0.0,0.0,0.0,3.0845,3.276,3.4427,3.5699,3.6297,3.6448,3.6164,3.6164,3.6164,3.6164,3.6164,3.6617,3.7404,3.7479,3.7524,3.7524,3.7524,3.7524,3.7509,3.7434,3.6686,3.5275,3.2154,3.1675,3.2385,3.0367,2.9743,2.9705,2.889,0.0,0.0,0.0,0.0,0.0,0.0,0.0,0.0,0.0,0.0,0.0,0.0,0.0,0.0,0.0,0.0,0.0,0.0,0.0,0.0,0.0,0.0,0.0,0.0,2.1133,2.1707,2.2607,2.3473,2.3849,2.3261,2.3208,2.3636,2.4583,2.5843,2.694,2.7855,2.9079,2.9792,2.9792,0.0,0.0,0.0,0.0,2.8767,2.9792,2.9792,2.9503,2.8888,2.8888,2.8599,2.8109,2.8047,2.8009,2.7984,2.7431,2.7228,2.7175,2.6834,2.6648,2.6666,2.7752,2.8266,2.8439,2.885,2.8626,2.8191,0.0,0.0,0.0,0.0,0.0,0.0,0.0,0.0,0.0,2.2165,2.4235,2.6091,2.7518,2.9471,3.0708,3.0743,2.9467,2.8832,0.0,0.0,3.2436,3.3642,3.5126,3.6267,3.703,3.7165,3.7182,3.7149,3.7149,3.7149,3.7149,3.7149,3.7218,3.7434,3.7958,3.8197,3.8197,3.8197,3.8197,3.8153,3.7629,3.6971,3.6193,3.4954,3.4341,3.391,3.2404,3.2375,3.2768,3.1191,3.0256,2.9548,2.8391,0.0,0.0,0.0,0.0,0.0,0.0,0.0,0.0,0.0,0.0,0.0,0.0,0.0,0.0,0.0,0.0,0.0,0.0,0.0,0.0,2.1465,2.2275,2.3033,2.3926,2.4179,2.4171,2.3746,2.3965,2.4124,2.3994,2.5829,2.6939,2.6835,2.8673,2.9792,2.9792,2.9585,2.9573,2.9792,2.9585,2.9573,2.9792,2.9792,2.9503,2.8888,0.0,0.0,2.8097,2.7645,2.7444,2.7406,2.6889,2.665,2.6637,2.6582,2.6236,2.597,2.744,2.8387,2.8872,2.8983,2.8919,2.885,0.0,0.0,0.0,0.0,0.0,0.0,0.0,0.0,0.0,0.0,2.292,2.4495,2.6174,2.7387,2.8142,2.8288,2.7793,0.0,0.0,3.1634,3.3604,3.4936,3.6252,3.724,3.7883,3.7898,3.8063,3.8407,3.7866,3.7866,3.8372,3.783,3.7881,3.8437,3.8751,3.8901,3.8931,3.926,3.9215,3.8901,3.8901,3.8317,3.733,3.6372,3.5579,3.4906,3.4247,3.4288,3.4519,3.3277,3.2596,3.1993,3.0303,2.8591,2.6994,0.0,0.0,0.0,0.0,0.0,0.0,0.0,0.0,0.0,0.0,0.0,0.0,0.0,0.0,2.2512,0.0,0.0,2.3695,2.4798,2.4817,2.4828,2.5275,2.4997,2.459,2.415,2.4102,2.4014,2.3809,2.5117,2.609,2.6453,2.8039,2.9197,2.9753,2.9275,2.9197,2.9792,2.9236,2.9236,2.9792,2.9792,2.9365,2.8511,2.8511,2.8084,2.7268,2.7027,2.6901,2.6889,2.6612,2.6499,2.6499,2.6499,2.6323,2.6152,2.7233,2.7519,2.7346,2.765,2.7769,2.7769,0.0,0.0,0.0,0.0,0.0,0.0,0.0,0.0,0.0,0.0,0.0,2.2792,2.4474,2.5077,2.5565,0.0,0.0,0.0,0.0,3.2464,3.4622,3.5833,3.7105,3.8048,3.8571,3.8586,3.8856,3.9388,3.8345,3.8345,3.9373,3.8107,3.8182,3.9388,3.9311,3.9407,3.9649,4.0307,4.0292,3.9828,4.0232,3.9679,3.8452,3.715,3.6153,3.5439,3.5618,3.5332,3.4815,3.4739,3.4141,3.3234,3.1756,3.0437,2.8943,2.6739,2.6113,0.0,0.0,0.0,0.0,0.0,0.0,0.0,0.0,0.0,2.363,2.5083,2.5026,2.5084,2.6353,2.6473,2.6809,2.8057,2.7425,2.6745,2.657,2.6007,2.5332,2.4717,2.4297,2.4085,2.4267,2.4736,2.5572,2.6866,2.7754,2.8586,2.9417,2.8806,2.8767,2.9456,2.8806,2.8858,2.9792,2.9792,2.9277,2.826,2.826,2.7745,2.6813,2.67,2.665,2.665,2.665,2.665,2.6663,2.6763,2.6813,2.6851,2.719,2.6728,2.5975,2.6487,2.665,2.665,0.0,0.0,0.0,0.0,0.0,0.0,0.0,0.0,0.0,0.0,0.0,0.0,0.0,0.0,0.0,0.0,0.0,0.0,3.1158,3.4351,3.6462,3.7165,3.8446,3.9194,3.9305,3.9305,3.9298,3.9388,3.8345,3.8345,3.9337,3.7329,3.7444,3.9367,3.9019,3.9396,4.0337,4.0995,4.1235,4.1115,4.0606,3.9963,3.9119,3.7823,3.6374,3.5154,3.6075,3.4702,3.2771,3.4723,3.3415,3.1253,3.266,3.091,2.8205,2.792,0.0,2.4913,2.4675,2.4181,2.3855,2.4424,2.441,2.4788,0.0,0.0,2.7217,2.8837,2.8378,2.781,2.8449,2.8195,2.8068,2.8644,2.86,2.8262,2.7556,2.739,2.689,2.5682,2.5195,2.5222,2.5962,2.5978,2.6682,2.848,2.8703,2.8595,2.8331,2.9145,2.9197,2.8307,2.9157,2.9663,2.9792,2.9792,2.9478,2.88,2.88,2.8511,2.7908,2.7419,2.7228,2.7228,2.7228,2.7228,2.7266,2.772,2.7921,2.7871,2.7444,2.7205,2.7105,2.7203,2.7228,2.7228,0.0,0.0,0.0,0.0,0.0,0.0,0.0,0.0,0.0,0.0,0.0,0.0,0.0,0.0,0.0,0.0,0.0,0.0,2.965,3.3157,3.5828,3.7325,3.8691,3.9388,3.9388,3.9388,3.9104,3.8472,3.7381,3.7084,3.7534,3.6027,3.6436,3.8486,3.8697,3.9384,4.0472,4.1504,4.1767,4.1316,4.0418,3.9636,3.8844,3.6965,3.484,3.2955,3.381,3.2963,0.0,0.0,3.1924,3.1447,3.1951,3.092,2.9303,2.8367,2.7231,0.0,2.5862,2.5514,2.512,0.0,2.5147,2.5948,2.6713,2.7208,2.7901,2.9501,2.994,3.0175,3.0716,3.0622,3.0694,0.0,3.0682,2.9804,2.8786,2.7804,2.662,2.5132,2.5115,2.5491,2.6138,2.5907,2.6195,2.7389,2.7074,2.6934,2.7151,2.7626,2.7666,2.7168,2.7626,2.7879,2.7879,2.7879,2.7897,2.7964,2.7964,2.8,2.8097,2.7871,2.7758,2.7758,2.7758,2.7758,2.777,2.8009,2.8109,2.8109,2.821,2.8235,2.816,2.7519,2.7281,2.7281,0.0,0.0,0.0,0.0,0.0,0.0,0.0,0.0,0.0,0.0,0.0,0.0,0.0,0.0,0.0,0.0,0.0,0.0,0.0,3.1855,3.4863,3.6802,3.8153,3.8945,3.9125,3.8822,3.8392,3.7791,3.6462,3.5934,3.6158,3.4856,3.5467,3.7603,3.7978,3.8835,4.0061,4.1558,4.1607,4.0647,3.9876,3.8989,3.788,3.5376,3.304,3.1162,3.1824,3.0894,0.0,0.0,2.9688,3.005,3.021,2.9868,2.9181,2.8187,2.7381,2.6703,2.6185,0.0,0.0,2.576,2.67,2.777,2.7552,2.81,2.8939,3.0013,3.0633,3.122,3.2072,3.1685,3.1657,3.2895,3.2052,3.0852,2.9805,2.8621,2.7233,2.5523,2.5895,2.6357,2.6361,2.6201,2.6443,2.7285,2.6561,2.6131,2.6206,2.6385,2.6348,2.6058,2.6359,2.6524,2.6524,2.6524,2.6701,2.7093,2.7093,2.7424,2.8114,2.8238,2.8247,2.8109,2.8273,2.8335,2.8348,2.8511,2.8574,2.8599,2.88,2.8888,2.88,2.8034,2.7733,2.7733,0.0,0.0,0.0,0.0,0.0,0.0,0.0,0.0,0.0,0.0,0.0,0.0,0.0,0.0,0.0,0.0,0.0,0.0,0.0,3.1264,3.4046,3.5502,3.6791,3.7778,3.8407,3.7419,3.7181,3.7791,3.5735,3.5238,3.6172,3.4095,3.4562,3.711,3.6715,3.7464,3.9059,4.0855,4.0644,3.9075,3.9047,3.798,3.6145,3.3131,3.1395,3.0579,3.0985,0.0,0.0,0.0,2.6681,2.5612,2.743,2.7387,0.0,2.719,2.6527,0.0,0.0,0.0,2.7507,2.8524,2.9614,3.0618,3.1107,3.1245,3.1323,3.1336,3.0555,3.032,3.1893,3.0407,2.9827,3.2624,3.2052,3.1,3.0446,3.032,2.9619,2.7787,2.8257,2.8261,0.0,2.7551,2.8284,2.9437,2.8457,2.7129,2.5511,2.6101,2.5975,2.4872,2.5922,2.6524,2.6524,2.6524,2.6513,2.6532,2.6532,2.7093,2.8104,2.8657,2.8574,2.8134,2.8637,2.8863,2.8913,2.9515,2.9741,2.9691,2.9101,2.8888,2.8888,2.885,2.8838,2.8838,0.0,0.0,0.0,0.0,0.0,0.0,0.0,0.0,0.0,0.0,0.0,0.0,0.0,0.0,0.0,0.0,0.0,0.0,0.0,2.8016,3.049,3.1965,3.3945,3.5125,3.5325,3.5359,3.5109,3.4603,3.3913,3.3396,3.3034,3.2679,3.3338,3.4942,3.5601,3.6597,3.7841,3.8907,3.8809,3.7853,3.6673,3.5641,3.4485,3.1621,2.9404,2.7708,0.0,0.0,0.0,0.0,0.0,0.0,2.5531,0.0,0.0,2.5485,0.0,0.0,0.0,0.0,2.8549,2.9315,3.0319,3.1173,3.1348,3.1386,3.1386,3.1386,3.0286,2.9503,3.0014,2.893,2.8594,3.064,3.0886,3.0696,3.043,3.0493,2.973,2.7579,2.8217,0.0,0.0,0.0,0.0,2.6543,2.6314,2.5565,2.3974,2.4097,2.4059,2.3671,2.4059,2.4221,2.4221,2.4221,2.4638,2.5378,2.6141,2.7046,2.8124,2.8285,2.8686,2.9239,2.9428,2.9503,2.9515,2.9716,2.9792,2.9689,2.8729,2.8823,2.9414,2.8655,2.8862,2.9453,0.0,0.0,0.0,0.0,0.0,0.0,0.0,0.0,0.0,0.0,0.0,0.0,0.0,0.0,0.0,0.0,0.0,0.0,0.0,0.0,2.7443,2.896,3.069,3.1718,3.1928,3.1951,3.1685,3.1209,3.1037,3.0689,3.0231,3.0997,3.1891,3.2994,3.3929,3.4881,3.5814,3.6633,3.6212,3.4875,3.3967,3.2711,3.1056,2.8629,2.6703,0.0,0.0,0.0,0.0,0.0,0.0,0.0,0.0,0.0,0.0,0.0,0.0,0.0,0.0,2.8976,2.9993,3.0771,3.1637,3.219,3.1775,3.1687,3.1524,3.0934,2.9428,2.8263,2.849,2.7005,2.6495,2.8941,2.9224,2.9466,3.0356,3.0391,2.9899,2.8773,2.9164,2.8833,0.0,0.0,0.0,2.5231,2.5322,2.4851,2.3433,2.3179,2.3091,2.3091,2.3091,2.3091,2.3091,2.3091,2.3681,2.483,2.5975,2.6842,2.7522,2.7522,2.7947,2.8633,2.904,2.9197,2.9197,2.9197,2.9197,2.9067,2.7936,2.7988,2.8542,2.7815,2.8239,2.9186,0.0,0.0,0.0,0.0,0.0,0.0,0.0,0.0,0.0,0.0,0.0,0.0,0.0,0.0,0.0,0.0,0.0,0.0,0.0,0.0,0.0,2.6385,2.7126,2.7771,2.8346,2.748,2.7269,2.7853,2.7408,2.7419,2.7959,2.9063,3.0118,3.1122,3.1675,3.224,3.2852,3.3936,3.2823,3.0423,3.0983,2.9295,2.6235,2.4607,0.0,0.0,0.0,0.0,0.0,0.0,0.0,0.0,0.0,0.0,0.0,0.0,0.0,2.777,2.9465,3.0696,3.1775,3.2855,3.3508,3.3608,3.2478,3.2177,3.1687,3.0118,2.802,2.6661,0.0,0.0,2.372,2.7521,2.7214,2.7433,3.0196,3.019,3.0267,0.0,0.0,0.0,0.0,0.0,0.0,2.5532,0.0,2.5184,2.4048,2.3477,2.3198,2.3178,2.3135,2.3091,2.3091,2.3091,2.3637,2.4745,2.5808,2.6359,2.6389,2.6389,2.6431,2.6565,2.7562,2.8004,2.8004,2.8004,2.8004,2.7924,2.683,2.6431,2.6472,2.6431,2.7075,2.8176,0.0,0.0,0.0,0.0,0.0,0.0,0.0,0.0,0.0,0.0,0.0,0.0,0.0,0.0,0.0,0.0,0.0,0.0,0.0,0.0,0.0,0.0,0.0,0.0,0.0,0.0,0.0,0.0,0.0,2.5523,2.5674,2.6352,2.6816,0.0,2.7706,2.8272,2.8774,2.8664,2.8208,2.7505,0.0,2.6333,2.5146,0.0,0.0,0.0,0.0,0.0,0.0,0.0,0.0,0.0,0.0,0.0,2.5636,0.0,0.0,2.9515,3.1148,3.2416,3.3332,3.3621,3.3796,3.3608,3.2478,3.1599,3.0783,2.9967,2.7192,2.4934,0.0,0.0,0.0,2.5416,2.6141,0.0,3.0071,3.0669,0.0,3.1367,0.0,3.0777,2.8168,2.8064,0.0,0.0,2.603,2.6732,2.6443,2.5505,2.4766,2.4382,2.3551,2.3091,2.3091,2.3091,2.3266,2.3551,2.3844,2.4425,2.521,2.521,2.5714,2.6524,2.6801,2.6924,2.6924,2.6924,2.6924,2.6801,2.5672,2.5755,2.64,2.5546,2.5964,2.7046,0.0,0.0,0.0,0.0,0.0,0.0,0.0,0.0,0.0,0.0,0.0,0.0,0.0,0.0,0.0,0.0,0.0,0.0,0.0,0.0,0.0,0.0,0.0,0.0,0.0,0.0,0.0,0.0,0.0,0.0,0.0,2.4155,2.4644,2.4921,2.5485,2.5912,2.6176,0.0,0.0,0.0,0.0,0.0,0.0,0.0,0.0,0.0,0.0,0.0,0.0,0.0,0.0,2.5247,2.5749,2.644,2.7344,2.8787,0.0,3.121,3.2867,3.396,3.4562,3.4324,3.4073,3.342,3.1574,3.0495,2.9503,2.8222,2.5694,0.0,2.336,0.0,0.0,0.0,0.0,0.0,2.9334,2.9967,3.0633,0.0,3.2177,0.0,2.88,2.8387,2.7598,0.0,2.6485,2.6747,2.6497,2.6389,2.5862,2.484,2.4168,2.3594,2.3091,2.3594,2.3844,2.3844,2.3844,2.4168,2.4787,2.4296,2.4382,2.502,0.0,2.5755,2.5755,2.5755,2.5755,2.563,2.451,2.4425,2.4935,2.4296,2.4798,2.5922,0.0,0.0,0.0,0.0,0.0,0.0,0.0,0.0,0.0,0.0,0.0,0.0,0.0,0.0,0.0,0.0,0.0,0.0,0.0,0.0,0.0,0.0,0.0,0.0,0.0,0.0,0.0,0.0,0.0,0.0,0.0,0.0,0.0,0.0,0.0,0.0,0.0,0.0,0.0,0.0,0.0,0.0,0.0,0.0,0.0,0.0,0.0,0.0,0.0,0.0,2.6013,2.644,2.7494,2.8586,2.9653,3.0746,3.1763,3.288,3.4367,3.5194,3.5458,3.4831,3.4311,3.3181,3.0419,2.9289,2.821,2.6038,0.0,2.2632,2.2091,2.1235,2.0896,2.1834,0.0,2.5059,2.842,2.8834,2.9882,3.2764,3.2502,3.1343,2.959,2.8947,2.8289,2.7416,2.6787,2.6309,2.5955,2.6874,2.6578,2.484,2.4787,2.4253,2.3091,2.4092,2.467,2.4787,2.4787,2.4787,2.4787,2.38,2.3266,2.3178,2.4168,2.466,2.4787,2.4628,2.466,2.4702,2.3551,2.3091,2.3091,2.3091,2.3714,2.4755,0.0,0.0,0.0,0.0,0.0,0.0,0.0,0.0,0.0,0.0,2.01,0.0,0.0,0.0,0.0,0.0,0.0,0.0,0.0,0.0,0.0,0.0,0.0,0.0,0.0,0.0,0.0,0.0,0.0,0.0,0.0,0.0,0.0,0.0,0.0,0.0,0.0,0.0,0.0,0.0,0.0,0.0,0.0,0.0,0.0,0.0,0.0,0.0,0.0,0.0,2.8222,2.9854,3.0482,3.1449,3.2478,3.3144,3.3784,3.4405,3.5157,3.5805,3.5981,3.4977,3.4311,3.3181,3.0419,2.8988,0.0,0.0,2.3771,2.2113,2.2024,2.1235,2.0879,2.1767,0.0,0.0,0.0,0.0,2.9884,0.0,0.0,0.0,0.0,0.0,0.0,0.0,0.0,2.782,2.8839,2.8193,2.6876,2.4861,2.4787,2.4253,2.3091,2.3299,2.3887,2.4787,2.4787,2.4787,2.4787,2.4585,2.4006,2.3091,2.3299,0.0,2.4745,2.38,2.3963,2.4702,2.3551,2.3091,2.3091,2.3091,2.3222,2.3681,0.0,0.0,0.0,0.0,0.0,0.0,0.0,0.0,0.0,2.1443,2.1029,2.0577,0.0,0.0,0.0,0.0,0.0,0.0,0.0,0.0,0.0,0.0,0.0,0.0,0.0,0.0,0.0,0.0,0.0,0.0,0.0,0.0,0.0,0.0,0.0,0.0,0.0,0.0,0.0,0.0,0.0,0.0,0.0,0.0,0.0,0.0,0.0,0.0,0.0,0.0,2.8084,3.0382,3.1474,3.2403,3.3244,3.4085,3.4512,3.4901,3.5742,3.6157,3.6141,3.5002,3.3859,3.2303,2.9541,0.0,0.0,0.0,2.2672,2.1285,2.1285,2.0689,0.0,0.0,0.0,0.0,0.0,0.0,0.0,0.0,0.0,0.0,0.0,0.0,0.0,0.0,0.0,2.7321,2.8969,2.813,2.6743,2.4851,2.4211,2.3627,2.3101,2.3091,2.3387,2.392,2.45,2.45,2.392,2.4542,2.4168,2.3135,2.3714,0.0,2.4787,2.484,2.484,2.4745,2.4211,2.3637,2.3091,2.3091,2.3091,2.343,0.0,0.0,0.0,0.0,0.0,0.0,0.0,2.1069,2.1219,2.2184,2.1933,2.1455,2.093,2.0365,1.9936,0.0,0.0,0.0,0.0,0.0,0.0,0.0,0.0,0.0,0.0,0.0,0.0,0.0,0.0,0.0,0.0,0.0,0.0,0.0,0.0,0.0,0.0,0.0,0.0,0.0,0.0,0.0,0.0,0.0,0.0,0.0,0.0,0.0,0.0,0.0,2.7067,2.9176,3.0821,3.2215,3.3395,3.4148,3.4625,3.509,3.5956,3.6317,3.6116,3.4851,3.337,3.1461,2.8586,2.6716,0.0,0.0,2.1928,2.0814,2.0623,2.0229,1.991,0.0,2.1418,0.0,0.0,0.0,0.0,0.0,0.0,0.0,0.0,0.0,0.0,0.0,0.0,0.0,2.8117,2.7608,2.6556,2.4998,2.397,2.3343,2.3091,2.3091,2.3222,2.3464,2.4372,2.4467,2.3854,2.4755,2.4553,2.3507,2.467,0.0,2.4872,2.6016,2.5839,2.4787,2.4787,2.4082,2.3091,2.3091,2.3091,2.343,0.0,0.0,0.0,0.0,0.0,0.0,0.0,2.1157,2.1631,2.2234,2.2272,2.202,2.1468,2.0943,2.0402,0.0,0.0,0.0,0.0,0.0,0.0,0.0,0.0,0.0,0.0,0.0,0.0,0.0,0.0,0.0,0.0,0.0,0.0,0.0,0.0,0.0,0.0,0.0,0.0,0.0,0.0,0.0,0.0,0.0,0.0,0.0,0.0,0.0,0.0,0.0,0.0,2.6276,2.7959,3.0947,3.3746,3.3345,0.0,0.0,3.5545,3.5981,3.6028,3.4374,3.3093,3.1361,2.8097,0.0,0.0,2.3446,2.2414,2.1522,2.0751,2.0233,1.9889,0.0,0.0,2.2196,0.0,0.0,0.0,0.0,0.0,0.0,0.0,0.0,0.0,0.0,0.0,0.0,2.6942,2.7042,2.6582,2.5394,2.4889,2.4168,2.3091,2.3091,2.3637,2.4617,2.4745,2.5294,2.6182,2.6307,2.5724,2.4713,2.5839,0.0,0.0,2.6016,2.5839,2.4787,2.4787,2.4082,2.3091,2.3091,2.3091,2.343,0.0,0.0,0.0,0.0,0.0,0.0,0.0,2.1094,2.143,2.2619,2.2493,2.2234,2.2008,2.1493,2.0817,0.0,0.0,0.0,0.0,0.0,0.0,0.0,0.0,0.0,0.0,0.0,0.0,0.0,0.0,0.0,0.0,0.0,0.0,0.0,0.0,0.0,0.0,0.0,0.0,0.0,0.0,0.0,0.0,0.0,0.0,0.0,0.0,0.0,0.0,0.0,0.0,0.0,2.5523,2.7607,0.0,0.0,3.3006,3.4274,3.5232,3.5943,3.6091,3.4726,3.3043,3.1022,2.8373,0.0,2.4713,2.3384,2.2445,2.1616,2.0751,2.0235,1.9819,0.0,0.0,0.0,0.0,0.0,0.0,0.0,0.0,0.0,0.0,0.0,0.0,0.0,0.0,0.0,2.6769,2.7359,2.7029,2.5577,2.4413,2.3551,2.3091,2.3091,2.3343,2.38,2.4457,2.5041,2.5462,2.5462,2.521,2.483,2.5294,0.0,0.0,2.6016,2.5839,2.4787,2.4787,2.4082,2.3091,2.3091,2.3091,2.3343,0.0,0.0,0.0,0.0,0.0,0.0,2.1119,2.0943,2.1169,2.2443,2.2309,2.2133,2.2297,2.1669,2.0991,2.0363,0.0,0.0,0.0,0.0,0.0,0.0,0.0,0.0,0.0,0.0,0.0,0.0,0.0,0.0,0.0,0.0,0.0,0.0,0.0,0.0,0.0,0.0,0.0,0.0,0.0,0.0,0.0,0.0,0.0,0.0,0.0,0.0,0.0,0.0,0.0,0.0,0.0,0.0,0.0,0.0,3.1311,3.2867,3.4154,3.5203,3.5567,3.4299,3.2441,3.0344,0.0,0.0,2.4274,2.3308,2.2641,2.2002,2.1132,2.05,2.0004,0.0,0.0,2.1031,0.0,0.0,0.0,0.0,0.0,0.0,0.0,0.0,0.0,0.0,0.0,0.0,2.7299,2.8109,2.7661,2.5632,2.3944,2.3091,2.3091,2.3091,2.3091,2.3091,2.392,2.4457,2.4787,2.4787,2.4787,2.483,2.5168,0.0,0.0,2.5891,2.5641,2.4372,2.5041,2.4382,2.3135,2.3464,2.3387,2.3256,0.0,0.0,0.0,0.0,0.0,0.0,0.0,2.0691,2.0893,2.143,2.1493,2.1707,2.2246,2.1358,2.0918,2.1458,0.0,0.0,0.0,0.0,0.0,0.0,0.0,0.0,0.0,0.0,0.0,2.0691,0.0,0.0,0.0,0.0,0.0,0.0,0.0,0.0,0.0,0.0,0.0,0.0,0.0,0.0,0.0,0.0,0.0,0.0,0.0,0.0,0.0,0.0,0.0,0.0,0.0,0.0,0.0,0.0,2.9264,3.1537,3.2102,3.347,3.4336,3.2654,3.1009,2.9227,0.0,0.0,2.3841,2.3233,2.3095,2.2854,2.2032,2.1175,2.0588,2.0597,0.0,0.0,0.0,0.0,0.0,0.0,0.0,0.0,0.0,0.0,0.0,0.0,0.0,0.0,2.8612,2.9351,2.8445,2.5478,2.3911,2.3091,2.3091,2.3091,2.3091,2.3091,2.3091,2.3714,2.4787,2.4787,2.4787,2.4872,0.0,0.0,0.0,2.5557,2.5136,2.3343,2.5599,2.5105,2.3266,2.4382,2.4092,2.3256,0.0,0.0,0.0,0.0,0.0,0.0,0.0,2.0075,2.0275,2.088,2.0955,2.1169,2.1681,2.1131,2.0767,2.0943,0.0,0.0,0.0,0.0,0.0,0.0,0.0,0.0,0.0,0.0,2.088,2.1794,2.2347,2.2581,0.0,0.0,0.0,0.0,0.0,0.0,0.0,0.0,0.0,0.0,0.0,0.0,0.0,0.0,0.0,0.0,0.0,0.0,0.0,0.0,0.0,0.0,0.0,0.0,0.0,0.0,0.0,0.0,2.9817,3.0881,3.1558,3.0254,2.9013,2.7695,2.6201,0.0,2.3841,2.3221,2.3108,2.2854,2.2032,2.1207,2.0688,2.0972,2.028,0.0,0.0,0.0,0.0,0.0,0.0,0.0,0.0,0.0,0.0,0.0,0.0,0.0,2.7977,2.8311,2.7962,2.6754,2.5125,2.3877,2.3091,2.3091,2.3091,2.3091,2.3091,2.3714,2.4787,2.4006,2.4049,0.0,0.0,0.0,0.0,2.3887,2.3767,2.3178,2.3887,2.3724,2.3135,2.3507,2.343,2.3135,0.0,0.0,0.0,0.0,0.0,0.0,0.0,1.9798,1.9924,2.0314,2.0365,2.0654,2.1405,2.083,2.0541,2.0968,0.0,0.0,0.0,0.0,0.0,0.0,0.0,0.0,0.0,2.0781,2.1774,2.3081,2.3803,2.4187,2.4231,2.4109,2.3175,0.0,0.0,0.0,0.0,0.0,0.0,0.0,0.0,0.0,2.2468,0.0,0.0,0.0,0.0,0.0,0.0,0.0,0.0,0.0,0.0,0.0,0.0,0.0,0.0,0.0,0.0,2.8812,2.9453,2.8536,2.7469,0.0,0.0,2.4456,2.3534,2.3183,2.3108,2.2944,2.2445,2.1385,2.0786,2.1381,2.0459,0.0,0.0,0.0,0.0,0.0,0.0,0.0,0.0,0.0,0.0,0.0,0.0,0.0,2.7477,2.798,2.7892,2.7037,2.5571,2.4253,2.3091,2.3091,2.3091,2.3091,2.3091,2.3464,2.4125,2.342,2.3474,0.0,0.0,0.0,0.0,2.3091,2.3091,2.3135,2.3551,2.3464,2.3135,2.3594,2.3464,2.3091,0.0,0.0,0.0,0.0,0.0,0.0,0.0,0.0,0.0,0.0,1.9798,2.02,2.1255,2.0426,2.0225,0.0,0.0,0.0,0.0,0.0,0.0,0.0,0.0,0.0,0.0,2.1446,2.2698,2.4478,2.5487,2.6087,2.6228,2.5858,2.4803,2.3148,2.2087,2.1333,2.0842,2.1292,2.1832,2.2393,2.2895,2.2468,0.0,0.0,0.0,0.0,0.0,0.0,0.0,0.0,0.0,0.0,0.0,0.0,0.0,0.0,0.0,0.0,0.0,0.0,0.0,0.0,0.0,0.0,0.0,0.0,0.0,2.3108,2.3108,2.3103,2.3105,2.1749,2.0917,2.1795,0.0,0.0,0.0,0.0,0.0,0.0,0.0,0.0,0.0,0.0,0.0,0.0,0.0,0.0,2.713,2.8178,2.8058,2.6535,2.5462,2.4339,2.3091,2.3091,2.3091,2.3091,2.3091,2.3091,2.3091,2.3091,2.3091,0.0,0.0,0.0,0.0,2.3091,2.3091,2.3222,2.4253,2.4049,2.3222,2.4296,2.4006,2.3091,0.0,0.0,0.0,0.0,0.0,0.0,0.0,0.0,0.0,0.0,1.9798,1.9899,2.0175,1.9962,1.9911,0.0,0.0,0.0,0.0,0.0,0.0,0.0,0.0,0.0,0.0,2.1811,2.3267,2.5017,2.6289,2.7157,2.7684,2.6958,2.5694,2.4066,2.3132,2.2447,2.1907,2.1606,2.2046,2.292,2.3058,2.2694,0.0,0.0,0.0,0.0,2.1043,2.1493,0.0,0.0,0.0,0.0,0.0,0.0,0.0,0.0,2.2108,0.0,2.2539,0.0,2.482,2.4224,2.3873,2.3647,0.0,0.0,0.0,0.0,0.0,0.0,0.0,2.1981,2.1337,0.0,0.0,0.0,0.0,0.0,0.0,0.0,0.0,0.0,0.0,0.0,0.0,0.0,0.0,2.613,2.7468,2.7561,2.7228,2.6535,2.6224,2.5136,2.3135,2.3091,2.3091,2.3091,2.3091,2.3091,2.3091,2.3091,2.3091,0.0,0.0,2.3091,2.3091,2.3091,2.3091,2.3135,2.3387,2.3343,2.3135,2.3387,2.3343,2.3091,0.0,0.0,0.0,0.0,0.0,0.0,0.0,0.0,0.0,0.0,0.0,0.0,0.0,0.0,0.0,0.0,0.0,0.0,0.0,0.0,0.0,0.0,0.0,0.0,2.1056,2.2419,2.4123,2.6169,2.7452,2.8438,2.9148,2.8511,2.7131,2.5107,2.3463,2.2447,2.1933,2.1882,2.2209,2.2732,2.2732,0.0,0.0,0.0,0.0,0.0,2.0402,2.0991,0.0,2.2234,2.2819,2.3496,0.0,0.0,0.0,0.0,2.1543,2.1131,2.1131,2.2334,2.3496,2.3183,2.3308,2.3496,2.3496,0.0,0.0,0.0,0.0,0.0,0.0,0.0,0.0,0.0,0.0,0.0,0.0,0.0,0.0,0.0,0.0,0.0,0.0,0.0,0.0,0.0,0.0,2.5234,2.6293,2.6151,2.5933,2.5724,2.5714,2.4882,2.3135,2.3091,2.3091,2.3091,2.3091,2.3091,2.3091,2.3091,2.3091,0.0,0.0,2.3091,2.3091,2.3091,2.3091,2.3091,2.3091,2.3091,2.3091,2.3091,2.3091,2.3091,0.0,0.0,0.0,0.0,0.0,0.0,0.0,0.0,0.0,0.0,0.0,0.0,0.0,0.0,0.0,0.0,0.0,0.0,0.0,0.0,0.0,0.0,0.0,2.0543,2.1805,2.3056,2.495,2.7476,2.8725,2.9651,3.0319,3.0112,2.8561,2.5871,2.3475,2.2133,2.1644,2.2121,2.2359,2.2393,2.2347,0.0,0.0,0.0,0.0,0.0,0.0,0.0,0.0,2.1895,2.2811,2.3728,2.364,0.0,0.0,0.0,0.0,0.0,2.0867,2.2071,2.3195,2.302,2.3471,2.3979,2.3891,0.0,0.0,0.0,0.0,0.0,0.0,2.347,0.0,0.0,0.0,0.0,0.0,0.0,0.0,0.0,0.0,0.0,0.0,0.0,0.0,0.0,0.0,2.4471,2.4849,2.4829,2.4787,2.4787,2.4957,2.4425,2.3091,2.3091,2.3091,2.3091,2.3091,2.3091,2.3091,2.3091,2.3091,2.3091,0.0,0.0,2.3091,2.3091,2.3091,2.3091,2.3091,2.3091,2.3091,2.3091,2.3091,2.3091,0.0,0.0,0.0,0.0,0.0,0.0,0.0,0.0,0.0,0.0,0.0,0.0,0.0,0.0,0.0,0.0,0.0,0.0,0.0,0.0,0.0,0.0,2.0855,2.1409,2.3251,2.3548,2.5189,2.8211,2.9603,3.0355,3.0474,3.0812,2.8957,2.5263,2.3692,2.2669,2.2184,2.2284,2.2556,2.2945,2.2468,0.0,0.0,0.0,0.0,0.0,0.0,0.0,0.0,2.0918,2.1656,2.2485,2.202,0.0,0.0,0.0,0.0,0.0,2.1669,2.2949,2.364,2.2644,2.3226,2.3866,2.3346,0.0,0.0,0.0,0.0,0.0,0.0,2.4339,2.4683,0.0,0.0,0.0,0.0,0.0,0.0,0.0,0.0,0.0,0.0,0.0,0.0,0.0,0.0,2.4302,2.5276,2.5007,2.4787,2.4787,2.5755,2.5221,2.3135,2.3091,2.3091,2.3091,2.3091,2.3091,2.3091,2.3091,2.3091,2.3091,0.0,2.3091,2.3091,2.3091,2.3091,2.3091,2.3091,2.3091,2.3091,2.3091,2.3091,2.3091,0.0,0.0,0.0,0.0,0.0,0.0,0.0,0.0,0.0,0.0,0.0,0.0,0.0,0.0,0.0,0.0,0.0,0.0,0.0,0.0,0.0,2.2359,2.258,2.2977,2.359,2.4655,2.6609,2.9478,3.0894,3.1584,3.154,2.9881,2.7951,2.5823,2.394,2.2794,2.2334,2.2606,2.2869,2.3058,0.0,0.0,0.0,0.0,0.0,0.0,0.0,0.0,0.0,0.0,2.1845,2.2681,2.2431,0.0,0.0,0.0,0.0,0.0,2.1129,2.2447,2.3489,2.3276,2.428,2.5172,2.4594,0.0,0.0,0.0,0.0,0.0,0.0,0.0,0.0,0.0,0.0,0.0,0.0,0.0,0.0,0.0,0.0,0.0,0.0,0.0,0.0,0.0,0.0,0.0,2.509,2.5497,2.5136,2.392,2.501,2.5083,2.4049,2.4006,2.4006,2.4006,2.4006,2.4339,2.4935,2.4296,2.4006,2.3963,0.0,2.3091,2.3091,2.3091,2.3091,2.3091,2.3091,2.3091,2.3091,2.3091,2.3091,2.3091,0.0,0.0,0.0,0.0,0.0,0.0,0.0,0.0,0.0,0.0,0.0,0.0,0.0,0.0,0.0,0.0,0.0,0.0,0.0,0.0,2.2447,2.2706,2.392,2.4618,2.4687,2.6216,2.8268,3.0907,3.1975,3.2512,3.2437,2.9243,2.7323,2.6398,2.4455,2.3086,2.2347,2.2869,2.3108,2.3058,0.0,0.0,0.0,0.0,0.0,0.0,0.0,0.0,0.0,0.0,0.0,0.0,0.0,0.0,0.0,2.1656,2.0778,2.0213,2.1219,2.2372,2.3509,2.4368,0.0,0.0,0.0,0.0,0.0,0.0,0.0,0.0,0.0,0.0,0.0,0.0,0.0,0.0,0.0,0.0,0.0,0.0,0.0,0.0,0.0,0.0,0.0,0.0,0.0,0.0,2.4893,2.563,2.5189,2.3178,2.4211,2.466,2.4414,2.4914,2.521,2.521,2.521,2.5683,2.6483,2.5336,2.4787,2.4745,2.3594,2.3091,2.3091,2.3091,2.3091,2.3091,2.3091,2.3091,2.3091,2.3091,2.3091,2.3091,0.0,0.0,0.0,0.0,0.0,0.0,0.0,0.0,0.0,0.0,0.0,0.0,0.0,0.0,0.0,0.0,0.0,0.0,0.0,0.0,2.2096,2.1631,2.3881,2.6018,2.791,2.8283,2.9739,3.2348,3.2467,3.2512,3.2452,3.0221,2.8195,2.644,2.5411,2.3977,2.2347,2.2869,2.3108,2.3058,2.2506,0.0,0.0,0.0,0.0,0.0,0.0,0.0,0.0,0.0,0.0,0.0,0.0,0.0,2.2196,2.1656,2.1094,2.1094,2.3175,2.3853,2.4318,2.5921,2.5996,0.0,2.6964,2.6776,0.0,2.704,0.0,0.0,0.0,0.0,0.0,0.0,0.0,0.0,0.0,0.0,0.0,0.0,0.0,0.0,0.0,0.0,0.0,0.0,0.0,0.0,2.4872,2.4872,2.4372,2.3135,2.4211,2.4296,2.3222,2.5305,2.6389,2.6389,2.6389,2.6431,2.6483,2.5336,2.4787,2.4745,2.3594,2.3091,2.3091,2.3091,2.3091,2.3091,2.3091,2.3091,2.3091,2.3091,2.3091,2.3091,0.0,0.0,0.0,0.0,0.0,0.0,0.0,0.0,0.0,0.0,0.0,0.0,0.0,0.0,0.0,0.0,0.0,0.0,0.0,0.0,2.202,2.2456,2.4229,2.5942,2.7538,2.9385,3.1452,3.3724,3.332,3.2916,3.2437,2.9929,2.8354,2.7598,2.5515,2.4197,2.3515,2.3217,2.3108,2.3083,2.2882,2.3183,0.0,0.0,0.0,0.0,0.0,0.0,0.0,0.0,2.1102,2.143,0.0,0.0,2.2196,2.1656,2.1131,2.0955,2.2121,2.3201,2.423,2.5197,2.6302,0.0,0.0,2.7896,2.8059,2.826,2.9038,0.0,0.0,0.0,0.0,0.0,0.0,0.0,0.0,0.0,0.0,0.0,0.0,0.0,0.0,0.0,0.0,0.0,0.0,0.0,2.6889,2.6849,2.6025,2.4211,2.4585,2.4585,2.4168,2.5724,2.6842,2.7481,2.7481,2.7867,2.8502,2.6678,2.585,2.5766,2.3887,2.3091,2.3091,2.3091,2.3091,2.3091,2.3091,2.3091,2.3091,2.3091,2.3551,2.4049,0.0,0.0,0.0,0.0,0.0,0.0,0.0,0.0,0.0,0.0,0.0,0.0,0.0,0.0,0.0,0.0,0.0,0.0,0.0,2.1043,2.1644,2.2543,2.4129,2.5525,2.68,2.953,3.1668,3.3108,3.2887,3.233,3.1442,2.9825,2.8926,2.8612,2.6327,2.5172,2.4823,2.3879,2.3335,2.3108,2.3108,2.3317,0.0,0.0,0.0,0.0,0.0,0.0,0.0,0.0,2.1129,0.0,0.0,0.0,0.0,0.0,2.1481,2.1257,2.1458,2.2711,2.413,2.4682,0.0,0.0,2.8737,2.9315,2.9804,3.0168,3.057,0.0,0.0,0.0,0.0,0.0,0.0,0.0,0.0,0.0,0.0,0.0,0.0,0.0,0.0,0.0,0.0,0.0,0.0,0.0,0.0,2.8096,2.7105,2.4872,2.4787,2.4628,2.4253,2.5389,2.6337,2.7052,2.7441,2.8359,2.9702,2.7516,2.6524,2.6359,2.4102,2.3091,2.3091,2.3091,2.3091,2.3091,2.3091,2.3299,2.3637,2.3637,2.4339,2.521,0.0,0.0,0.0,0.0,0.0,0.0,0.0,0.0,0.0,0.0,0.0,0.0,0.0,0.0,0.0,0.0,0.0,0.0,2.0691,2.0691,2.0943,2.1496,2.3363,2.4944,2.613,2.8648,3.0002,3.0095,3.0848,3.0528,2.9333,3.0126,3.0097,2.9334,2.8092,2.7016,2.6108,2.4856,2.3855,2.3138,2.3108,2.3603,2.4226,0.0,0.0,0.0,0.0,0.0,0.0,0.0,0.0,0.0,0.0,0.0,0.0,0.0,2.2297,2.2184,2.1631,2.2711,2.4117,2.465,0.0,0.0,3.0105,3.1009,3.17,3.2842,3.2177,3.1223,3.0721,0.0,0.0,0.0,0.0,0.0,0.0,0.0,0.0,0.0,0.0,0.0,0.0,0.0,0.0,0.0,0.0,0.0,0.0,2.8096,2.7093,2.4872,2.4787,2.4253,2.3091,2.4211,2.4787,2.483,2.5975,2.7637,2.9702,2.7476,2.6483,2.6359,2.4102,2.3091,2.3091,2.3091,2.3091,2.3091,2.3091,2.38,2.4787,2.4787,2.5504,2.6524,0.0,0.0,0.0,0.0,0.0,0.0,0.0,0.0,0.0,0.0,0.0,0.0,0.0,0.0,0.0,0.0,0.0,0.0,2.0717,2.0691,2.0943,2.1496,2.2798,2.3641,2.4004,2.5192,2.7181,3.003,3.0243,3.0021,2.9377,2.9609,2.9662,2.9502,2.8533,2.7482,2.6343,2.5466,2.4951,2.4667,2.4134,2.4394,2.4993,0.0,0.0,0.0,0.0,0.0,0.0,0.0,0.0,0.0,0.0,0.0,0.0,2.1845,2.1732,2.1694,2.1531,2.2422,0.0,2.455,0.0,0.0,0.0,3.0733,0.0,0.0,3.1888,3.0909,3.1122,0.0,0.0,0.0,0.0,0.0,0.0,0.0,0.0,0.0,0.0,0.0,0.0,0.0,0.0,0.0,0.0,0.0,0.0,2.8557,2.7441,2.6047,2.521,2.4253,2.3091,2.4211,2.4787,2.483,2.5975,2.725,2.8518,2.6326,2.5755,2.6359,2.4102,2.3091,2.3091,2.3091,2.3091,2.3091,2.3091,2.3299,2.3714,2.45,2.5504,2.6524,0.0,0.0,0.0,0.0,0.0,0.0,0.0,0.0,0.0,0.0,0.0,0.0,0.0,0.0,0.0,0.0,0.0,0.0,0.0,0.0,2.1343,2.2108,2.2757,2.3409,2.4073,2.4682,2.5961,2.7943,2.8297,2.8281,2.8035,2.9242,2.9944,3.0218,2.9795,2.9055,2.7978,2.6748,2.5897,2.537,2.4922,2.4823,2.4894,0.0,0.0,0.0,0.0,0.0,0.0,0.0,0.0,0.0,0.0,0.0,0.0,2.1518,2.1493,2.1493,2.1493,2.2623,0.0,2.4876,2.7007,2.9189,3.0357,0.0,0.0,0.0,0.0,3.1273,3.1373,0.0,0.0,0.0,0.0,0.0,0.0,0.0,0.0,0.0,0.0,0.0,0.0,0.0,0.0,0.0,0.0,0.0,0.0,2.9157,2.8079,2.6565,2.6243,2.5126,2.3135,2.4211,2.4585,2.4125,2.4808,2.5964,2.74,2.6077,2.5839,2.64,2.4553,2.3507,2.3091,2.3091,2.3091,2.3091,2.3091,2.3637,2.4478,2.4713,2.5786,2.7128,0.0,0.0,0.0,0.0,0.0,0.0,0.0,0.0,0.0,0.0,2.2794,0.0,0.0,0.0,0.0,0.0,0.0,0.0,0.0,0.0,2.1983,2.3058,2.3208,2.401,2.5636,2.6072,2.5808,2.4788,2.5597,2.5963,2.5994,2.8853,3.0436,3.0929,3.1146,3.0837,2.9984,2.8179,2.6715,2.5591,2.5536,2.5063,2.4408,2.4321,0.0,0.0,0.0,0.0,0.0,0.0,0.0,0.0,0.0,2.0729,2.0792,2.1295,2.1446,2.1443,2.1543,2.3088,0.0,2.5573,2.7431,0.0,3.0444,3.224,3.3671,3.3671,0.0,0.0,0.0,0.0,0.0,0.0,0.0,0.0,0.0,0.0,0.0,0.0,0.0,0.0,0.0,0.0,0.0,0.0,0.0,0.0,0.0,2.9767,2.8831,2.6719,2.7602,2.6603,2.343,2.4425,2.4425,2.343,2.343,2.4478,2.6524,2.6389,2.6348,2.6307,2.5252,2.4168,2.3091,2.3091,2.3091,2.3091,2.3091,2.4435,2.6224,2.5294,2.6273,2.8124,0.0,0.0,0.0,0.0,0.0,0.0,0.0,0.0,0.0,0.0,0.0,0.0,0.0,0.0,0.0,0.0,0.0,0.0,0.0,0.0,2.1983,2.3058,2.396,2.5021,2.6285,2.5121,2.4619,2.4788,2.5,2.5408,2.6083,2.7682,2.8538,2.8708,2.9274,2.896,2.7894,2.7086,2.6864,2.7086,2.6496,2.581,2.5091,2.4509,2.3914,0.0,0.0,0.0,0.0,0.0,0.0,0.0,2.1207,2.1043,2.0717,2.083,2.0867,2.1056,2.1895,2.2769,0.0,0.0,2.8599,3.0419,3.1072,3.1587,3.1938,3.1938,0.0,0.0,0.0,0.0,0.0,0.0,0.0,0.0,0.0,0.0,0.0,0.0,0.0,0.0,0.0,0.0,0.0,0.0,0.0,0.0,2.9076,2.9541,2.9157,2.7815,2.7964,2.736,2.5766,2.6016,2.6016,2.5766,2.5766,2.6016,2.6483,2.5588,2.5168,2.5168,2.4914,2.4168,2.3091,2.3091,2.3091,2.3091,2.3091,2.3973,2.5252,2.588,2.6953,2.8215,0.0,0.0,0.0,0.0,0.0,0.0,0.0,0.0,0.0,0.0,0.0,0.0,0.0,0.0,0.0,0.0,0.0,0.0,0.0,0.0,0.0,2.386,2.5259,2.59,2.5686,2.5071,2.4519,2.3985,2.3985,2.45,2.5497,2.6886,2.7688,2.7981,2.8724,2.8407,2.7244,2.6693,2.6689,2.7034,2.6642,2.6256,2.5837,2.5119,2.4337,2.3619,2.3245,0.0,0.0,0.0,0.0,0.0,0.0,0.0,2.0742,2.1006,2.0704,2.0578,2.1933,0.0,0.0,2.772,0.0,3.0683,3.0959,3.1022,3.1022,0.0,0.0,0.0,0.0,0.0,0.0,0.0,0.0,0.0,0.0,0.0,0.0,0.0,0.0,0.0,0.0,0.0,0.0,0.0,0.0,2.826,2.8511,2.9076,2.8879,2.7755,2.821,2.7727,2.6073,2.6599,2.6599,2.6073,2.636,2.676,2.725,2.6644,2.6397,2.6356,2.5839,2.4967,2.3887,2.3343,2.3091,2.3091,2.3091,2.38,2.4872,2.5462,2.6378,2.7493,0.0,0.0,0.0,0.0,0.0,0.0,0.0,0.0,0.0,0.0,0.0,0.0,0.0,0.0,0.0,0.0,0.0,0.0,0.0,0.0,0.0,0.0,2.6076,2.6264,2.4983,2.5197,2.4695,2.3396,2.3296,2.3785,2.4833,2.62,2.7097,2.7545,2.8219,2.7917,2.687,2.6306,2.6134,2.631,2.631,2.6229,2.6041,2.5425,2.4766,2.4002,2.3335,2.3198,2.3242,2.2803,0.0,0.0,0.0,0.0,2.0893,2.1117,2.0602,2.0275,2.1769,0.0,2.5686,2.8737,2.9917,0.0,3.0457,3.047,0.0,0.0,0.0,0.0,0.0,0.0,0.0,0.0,0.0,0.0,0.0,0.0,0.0,0.0,0.0,0.0,0.0,0.0,0.0,0.0,0.0,2.7482,2.7946,2.8486,2.8349,2.7462,2.8311,2.7918,2.62,2.7105,2.7164,2.6337,2.6852,2.7533,2.8386,2.8386,2.8307,2.8044,2.6964,2.5839,2.4702,2.3551,2.3091,2.3091,2.3091,2.393,2.5083,2.5083,2.5922,2.718,0.0,0.0,0.0,0.0,0.0,0.0,0.0,0.0,0.0,0.0,0.0,0.0,0.0,0.0,0.0,0.0,0.0,0.0,0.0,0.0,0.0,0.0,2.4782,2.5259,2.5485,2.4657,2.4343,2.4562,2.4117,2.4205,2.48,2.5479,2.5823,2.5899,2.6019,2.58,2.5366,2.4824,2.4947,2.5536,2.5536,2.5147,2.4567,2.4481,2.3943,2.3258,2.3125,2.3543,2.4134,2.4055,2.3688,0.0,0.0,0.0,2.1204,2.0288,2.0302,2.0729,0.0,0.0,2.595,0.0,2.875,2.9251,0.0,0.0,0.0,0.0,0.0,0.0,0.0,0.0,0.0,0.0,0.0,0.0,0.0,0.0,0.0,0.0,0.0,0.0,0.0,0.0,0.0,0.0,2.709,2.7318,2.7394,2.7921,2.8136,2.7977,2.8136,2.8288,2.8447,2.8611,2.8859,2.9215,2.9341,2.9417,2.9573,2.9573,2.9028,2.8044,2.6964,2.5839,2.4702,2.3551,2.3091,2.3091,2.3091,2.4392,2.6265,2.6265,2.7585,2.9378,0.0,0.0,0.0,0.0,0.0,0.0,0.0,0.0,0.0,0.0,0.0,0.0,0.0,0.0,0.0,0.0,0.0,0.0,0.0,0.0,0.0,0.0,2.4519,2.4782,2.4707,2.4243,2.3954,2.3847,2.3597,2.3935,2.48,2.536,2.5598,2.5598,2.5598,2.5178,2.4479,2.4222,2.439,2.4794,2.4794,2.4851,2.4879,0.0,0.0,2.3708,2.3245,2.3632,2.4292,2.4292,2.4393,2.4475,2.4245,0.0,0.0,0.0,2.1064,2.0943,2.2096,2.354,2.5172,0.0,2.7821,2.8147,2.8725,0.0,0.0,0.0,0.0,0.0,0.0,0.0,0.0,0.0,0.0,0.0,0.0,0.0,0.0,0.0,0.0,0.0,0.0,0.0,0.0,0.0,2.6713,2.6851,2.6851,2.7344,2.7645,2.7645,2.7645,2.7908,2.8461,2.8461,2.8913,2.9792,2.9792,2.9792,2.9792,2.9792,2.9534,2.8949,2.7261,2.6224,2.5588,2.3844,2.3091,2.3091,2.3091,2.4092,2.563,2.6265,2.7504,2.8937,0.0,0.0,0.0,0.0,0.0,0.0,0.0,0.0,0.0,0.0,0.0,0.0,0.0,0.0,0.0,0.0,0.0,0.0,0.0,0.0,0.0,0.0,0.0,2.4173,2.3791,2.3778,2.3534,2.3108,2.3246,2.3822,2.48,2.536,2.5674,2.5812,2.5812,2.5222,0.0,2.4054,2.4078,2.4223,2.4067,2.4337,0.0,0.0,0.0,0.0,2.3305,2.3738,2.4567,2.4567,2.5063,0.0,0.0,0.0,0.0,0.0,0.0,0.0,0.0,0.0,2.4004,2.5787,2.654,2.7005,0.0,0.0,0.0,0.0,0.0,0.0,0.0,0.0,0.0,0.0,0.0,0.0,0.0,0.0,0.0,0.0,0.0,0.0,0.0,0.0,0.0,0.0,2.6499,2.6499,2.6499,2.6889,2.7115,2.7115,2.7115,2.7344,2.7896,2.8172,2.8737,2.9578,2.9729,2.9716,2.9578,2.9729,2.9792,2.9702,2.7747,2.676,2.6348,2.4339,2.3343,2.3091,2.3091,2.38,2.4957,2.6099,2.7168,2.8255,0.0,0.0,0.0,0.0,0.0,0.0,0.0,0.0,0.0,0.0,0.0,0.0,0.0,0.0,2.3108,2.3108,0.0,0.0,0.0,0.0,0.0,0.0,0.0,0.0,0.0,2.3145,2.3133,2.3108,2.369,2.4255,2.48,2.536,2.5921,2.6449,2.6449,2.5799,2.4713,0.0,0.0,0.0,0.0,0.0,0.0,0.0,0.0,0.0,0.0,0.0,2.5342,2.5342,0.0,0.0,0.0,0.0,0.0,0.0,0.0,0.0,0.0,2.1581,0.0,2.3158,0.0,0.0,0.0,0.0,0.0,0.0,0.0,0.0,0.0,0.0,0.0,0.0,0.0,0.0,0.0,0.0,0.0,0.0,0.0,0.0,0.0,0.0,0.0,0.0,2.6499,2.6499,2.6499,2.6524,2.6537,2.6537,2.6537,2.6801,2.7318,2.836,2.8875,2.8938,2.9528,2.9503,2.895,2.9541,2.9792,2.974,2.8557,2.7452,2.6389,2.521,2.4082,2.3091,2.3091,2.38,2.4957,2.6099,2.7168,2.8255,0.0,0.0,0.0,0.0,0.0,0.0,0.0,0.0,0.0,0.0,0.0,0.0,0.0,2.3873,2.381,2.4161,2.3891,0.0,0.0,0.0,0.0,0.0,0.0,0.0,0.0,2.3108,0.0,0.0,2.3308,2.371,2.4305,2.4845,2.5209,2.5435,2.6185,2.5883,2.48,2.4971,0.0,0.0,0.0,0.0,0.0,0.0,0.0,0.0,0.0,0.0,0.0,0.0,0.0,0.0,0.0,0.0,0.0,0.0,0.0,0.0,0.0,0.0,0.0,2.2891,2.3677,0.0,0.0,0.0,0.0,0.0,0.0,0.0,0.0,0.0,0.0,0.0,0.0,0.0,0.0,0.0,0.0,0.0,0.0,0.0,0.0,0.0,0.0,0.0,0.0,2.6097,2.6474,2.6499,2.6499,2.6499,2.6499,2.6763,2.7268,2.8021,2.8398,2.8398,2.8612,2.8599,2.8411,2.8612,2.8712,2.8675,2.8262,2.7489,2.6389,2.5252,2.4542,2.4168,2.4168,2.5326,2.6971,2.736,2.8239,2.9236,0.0,0.0,0.0,0.0,0.0,0.0,0.0,0.0,0.0,0.0,0.0,0.0,0.0,0.0,2.4418,2.4763,2.4481,2.4431,2.4763,2.4481,0.0,0.0,0.0,0.0,0.0,0.0,0.0,0.0,0.0,0.0,0.0,2.4368,2.4644,2.4825,2.5586,2.5498,0.0,0.0,0.0,2.4255,0.0,0.0,2.4217,0.0,0.0,0.0,0.0,0.0,0.0,0.0,0.0,0.0,0.0,0.0,0.0,0.0,0.0,0.0,2.1298,0.0,0.0,0.0,0.0,0.0,0.0,0.0,0.0,0.0,0.0,0.0,0.0,0.0,0.0,0.0,0.0,0.0,0.0,0.0,0.0,0.0,0.0,0.0,0.0,0.0,0.0,0.0,0.0,0.0,2.6172,2.6197,2.6298,2.6487,2.6499,2.6763,2.7268,2.7645,2.7821,2.7833,2.8009,2.8009,2.7833,2.8021,2.8109,2.8109,2.8109,2.7597,2.6691,2.575,2.5378,2.5326,2.4756,2.5768,2.7562,2.7562,2.8279,2.9275,0.0,0.0,0.0,0.0,0.0,0.0,0.0,0.0,0.0,0.0,0.0,0.0,0.0,0.0,0.0,2.4863,2.4825,2.4813,2.4838,2.4825,0.0,0.0,0.0,0.0,0.0,0.0,0.0,0.0,0.0,0.0,0.0,0.0,2.428,2.4738,2.4763,2.4763,2.4738,0.0,2.48,2.477,0.0,2.4368,2.475,0.0,0.0,0.0,2.4167,2.4436,0.0,2.5282,0.0,0.0,0.0,0.0,0.0,0.0,0.0,0.0,0.0,0.0,0.0,0.0,0.0,0.0,0.0,0.0,0.0,0.0,0.0,0.0,0.0,0.0,0.0,0.0,0.0,0.0,0.0,0.0,0.0,0.0,0.0,0.0,0.0,0.0,0.0,0.0,2.4763,2.5034,2.5573,2.5611,2.5908,2.6449,2.6461,2.6738,2.7291,2.7278,2.7231,2.7278,2.7795,2.777,2.7291,2.7808,2.8059,2.8059,2.8059,2.7779,2.7266,2.6726,2.6507,2.6363,2.4708,2.5105,2.6554,2.6543,2.7227,2.8255,0.0,0.0,0.0,0.0,0.0,0.0,0.0,0.0,0.0,0.0,0.0,0.0,0.0,0.0,2.6197,2.6565,2.585,2.5561,2.6009,2.5611,2.5385,2.5385,2.5234,2.4782,2.4017,0.0,0.0,0.0,0.0,0.0,0.0,0.0,0.0,0.0,2.4042,2.396,2.3647,2.487,0.0,2.4813,2.5059,2.5247,0.0,0.0,0.0,0.0,0.0,2.3485,2.3748,0.0,2.4738,2.5037,0.0,0.0,0.0,0.0,0.0,0.0,2.1443,0.0,0.0,0.0,0.0,0.0,0.0,0.0,0.0,0.0,0.0,0.0,0.0,0.0,0.0,0.0,0.0,0.0,0.0,0.0,0.0,0.0,0.0,0.0,0.0,0.0,0.0,0.0,2.423,2.4619,2.5548,2.6021,2.6135,2.585,2.5837,2.6147,2.6713,2.6276,2.6063,2.6076,2.6675,2.665,2.6088,2.6688,2.6952,2.6952,2.6952,2.7076,2.7261,2.6704,2.6724,2.7006,2.6154,2.6567,2.7688,2.8083,2.8192,2.8255,0.0,0.0,0.0,0.0,0.0,0.0,0.0,0.0,0.0,0.0,0.0,0.0,0.0,0.0,0.0,2.6964,2.6373,2.6135,2.6474,2.6172,2.5996,2.5996,2.5724,2.5297,2.4682,0.0,0.0,0.0,0.0,0.0,0.0,0.0,0.0,0.0,0.0,0.0,0.0,0.0,0.0,0.0,2.4908,0.0,0.0,2.4669,2.4343,0.0,0.0,0.0,2.3573,2.4109,2.4509,0.0,0.0,0.0,0.0,0.0,0.0,0.0,0.0,0.0,0.0,0.0,0.0,0.0,2.1245,2.2014,2.2708,0.0,0.0,0.0,0.0,0.0,0.0,0.0,0.0,0.0,0.0,0.0,0.0,0.0,0.0,0.0,0.0,2.3108,2.3246,2.3615,2.364,2.4017,2.4883,2.5473,2.5724,2.5598,2.5385,2.5536,2.6135,2.5548,2.5385,2.5598,2.5971,2.6084,2.5996,2.6336,2.6499,2.6499,2.6499,2.6675,2.6932,2.6625,2.6955,2.7562,2.6806,2.7023,2.7842,2.8368,2.837,2.8255,0.0,0.0,0.0,0.0,0.0,0.0,0.0,0.0,0.0,0.0,0.0,0.0,0.0,0.0,0.0,0.0,2.6562,2.6499,2.6499,2.6499,2.6499,2.6499,2.5996,2.5661,2.5598,2.5146,0.0,0.0,0.0,0.0,0.0,0.0,0.0,0.0,0.0,0.0,0.0,0.0,0.0,2.475,2.4293,2.4695,0.0,0.0,2.47,2.4687,2.4625,2.4356,2.404,2.42,2.4734,0.0,0.0,0.0,0.0,0.0,2.3864,0.0,0.0,0.0,0.0,0.0,0.0,0.0,2.0889,2.1825,2.2847,2.3452,0.0,0.0,0.0,0.0,0.0,0.0,0.0,0.0,0.0,0.0,0.0,0.0,0.0,0.0,2.2882,2.292,2.2945,2.3007,2.3133,2.3396,2.3879,2.4462,2.5008,2.5398,2.4971,2.4983,2.5498,2.4996,2.4996,2.5511,2.5573,2.5862,2.6399,2.6461,2.6499,2.6499,2.6499,2.6499,2.6499,2.6499,2.7115,2.79,2.688,2.674,2.712,2.7711,2.7873,2.8012,0.0,0.0,0.0,0.0,0.0,0.0,0.0,0.0,0.0,0.0,0.0,0.0,0.0,0.0,0.0,0.0,2.7002,2.6499,2.6499,2.6499,2.6499,2.6499,2.6386,2.6109,2.5598,2.5498,2.5184,0.0,0.0,0.0,0.0,0.0,0.0,0.0,0.0,0.0,0.0,0.0,0.0,2.4775,2.4675,0.0,2.5485,2.4519,2.4167,2.4092,2.3597,2.369,2.401,2.4052,2.4244,2.4509,0.0,0.0,0.0,2.4363,0.0,0.0,0.0,0.0,0.0,0.0,0.0,0.0,2.142,2.2063,2.2664,0.0,0.0,0.0,0.0,0.0,0.0,0.0,0.0,0.0,0.0,0.0,0.0,0.0,0.0,0.0,2.1794,2.1807,2.1995,2.2406,2.3314,2.3647,2.3296,2.4236,2.4637,2.4318,2.4217,2.4418,2.4938,2.4431,2.4443,2.4938,2.5398,2.5649,2.5774,2.6285,2.6499,2.6499,2.6499,2.6499,2.6499,2.6499,2.6889,2.7394,2.6766,2.6068,2.554,2.6479,2.6578,2.6445,0.0,0.0,0.0,0.0,0.0,0.0,0.0,0.0,0.0,0.0,0.0,0.0,0.0,0.0,0.0,0.0,0.0,0.0,0.0,0.0,2.6788,2.6499,2.6499,2.6361,2.6072,2.6059,2.5762,2.5209,0.0,0.0,0.0,0.0,0.0,0.0,0.0,0.0,0.0,0.0,2.4274,2.4738,2.4173,0.0,2.477,2.4506,2.4243,2.4029,2.4268,2.4381,2.4406,2.4406,2.4278,0.0,0.0,2.3953,2.3708,0.0,2.3221,2.2694,0.0,0.0,0.0,2.1895,0.0,0.0,0.0,2.2401,2.3065,0.0,0.0,0.0,0.0,0.0,0.0,0.0,0.0,0.0,0.0,0.0,0.0,0.0,0.0,0.0,2.1455,2.1493,2.1606,2.1882,2.2686,2.3037,2.2706,2.3496,2.396,2.4004,2.3715,2.381,2.4406,2.3853,2.396,2.4788,2.5084,2.5498,2.6072,2.6361,2.6499,2.6499,2.6499,2.6499,2.6499,2.6499,2.6663,2.6901,2.6901,2.6227,2.5381,2.6229,2.6564,2.6681,0.0,0.0,0.0,0.0,0.0,0.0,0.0,0.0,0.0,0.0,0.0,0.0,0.0,0.0,0.0,0.0,0.0,0.0,0.0,0.0,2.7115,2.6675,2.665,2.66,2.6499,2.6499,2.626,2.5762,0.0,0.0,0.0,0.0,0.0,0.0,0.0,0.0,0.0,0.0,0.0,2.485,0.0,2.3772,2.4343,2.4662,2.4544,2.428,2.5247,2.5259,2.4813,2.4933,2.4544,2.4004,2.4004,2.3602,0.0,0.0,0.0,0.0,0.0,0.0,0.0,0.0,0.0,2.3231,0.0,0.0,0.0,0.0,0.0,0.0,0.0,0.0,0.0,0.0,0.0,0.0,0.0,0.0,0.0,0.0,0.0,0.0,2.1295,2.1358,2.1358,2.1358,2.1845,2.2196,2.2297,2.2706,2.3208,2.3816,2.3246,2.3221,2.3828,2.3233,2.3572,2.4788,2.4788,2.5398,2.6499,2.6499,2.6499,2.6499,2.6499,2.6499,2.6499,2.6499,2.6499,2.6537,2.6989,2.6489,2.5572,2.6181,2.6645,2.7026,2.6499,2.6549,0.0,0.0,0.0,0.0,0.0,0.0,0.0,0.0,0.0,0.0,0.0,0.0,0.0,0.0,0.0,0.0,2.8561,0.0,0.0,2.7228,2.7228,2.7002,2.6499,2.6499,2.6461,2.6399,0.0,0.0,0.0,0.0,0.0,0.0,2.5285,0.0,0.0,0.0,2.4644,0.0,2.4838,2.4946,0.0,2.4971,2.475,2.4775,2.5385,2.5259,2.4863,0.0,2.4833,2.4004,0.0,2.3602,2.3108,2.3108,0.0,0.0,0.0,0.0,0.0,0.0,2.3077,0.0,0.0,0.0,2.3423,2.3407,0.0,0.0,0.0,0.0,0.0,0.0,0.0,0.0,0.0,0.0,0.0,0.0,0.0,0.0,0.0,2.0779,2.0779,2.0779,2.1295,2.1794,2.2255,2.2372,2.2631,2.3183,2.2656,2.2644,2.3195,2.2656,2.3183,2.4788,2.4788,2.5398,2.6499,2.6499,2.6499,2.6499,2.6499,2.6499,2.6499,2.6499,2.6499,2.6499,2.6562,2.5972,2.5123,2.5549,2.5811,2.6028,2.6499,2.6751,0.0,0.0,0.0,0.0,0.0,0.0,0.0,0.0,0.0,0.0,0.0,0.0,0.0,0.0,0.0,2.875,0.0,0.0,0.0,2.777,2.7758,2.7507,2.6989,2.6964,2.6813,2.6499,2.6499,0.0,0.0,0.0,0.0,0.0,2.5473,0.0,2.5485,0.0,2.5184,0.0,0.0,0.0,0.0,2.5485,2.5473,2.5799,2.6047,2.5996,2.5799,0.0,2.5573,0.0,0.0,0.0,0.0,0.0,0.0,0.0,0.0,0.0,0.0,0.0,0.0,0.0,2.345,0.0,2.3417,0.0,0.0,0.0,0.0,0.0,0.0,0.0,0.0,0.0,0.0,0.0,0.0,0.0,0.0,0.0,0.0,0.0,0.0,0.0,2.0717,2.1131,2.137,2.197,2.2393,2.2619,2.2706,2.2869,2.3108,2.2882,2.3446,2.4788,2.4788,2.5398,2.6499,2.6499,2.6499,2.6499,2.6499,2.6499,2.6499,2.6499,2.6499,2.6499,2.6499,2.6245,2.5828,2.5397,2.5841,2.6625,2.6499,0.0,0.0,0.0,0.0,0.0,0.0,0.0,0.0,0.0,0.0,0.0,3.0595,3.062,0.0,0.0,3.0419,2.993,0.0,0.0,2.8612,0.0,0.0,0.0,0.0,2.7281,2.7115,2.6713,2.6562,0.0,0.0,0.0,0.0,0.0,0.0,2.5473,2.5285,0.0,2.5686,2.5875,2.6323,2.6499,2.6449,2.6021,2.6135,2.6499,2.6499,2.6499,2.6499,2.6499,2.6109,0.0,2.5598,0.0,0.0,0.0,0.0,0.0,2.3384,0.0,0.0,0.0,0.0,0.0,0.0,0.0,0.0,0.0,0.0,0.0,0.0,0.0,0.0,0.0,0.0,0.0,0.0,0.0,0.0,0.0,0.0,0.0,0.0,0.0,0.0,1.9597,2.0112,2.0453,2.0453,2.1343,2.1995,2.2297,2.2548,2.2794,2.3108,2.2957,2.3446,2.4562,2.4713,2.531,2.626,2.6424,2.6499,2.6499,2.6499,2.6499,2.6499,2.6499,2.6499,2.6499,2.6499,2.6499,2.6418,2.5699,2.6131,2.6984,2.6499,2.6512,0.0,0.0,0.0,0.0,0.0,0.0,0.0,0.0,0.0,0.0,0.0,0.0,0.0,0.0,0.0,3.0018,3.0507,0.0,2.8448,0.0,0.0,2.8398,0.0,0.0,2.7268,2.7256,0.0,0.0,0.0,0.0,0.0,0.0,0.0,2.59,2.6411,2.5824,2.5946,2.6461,2.6487,2.6499,2.6499,0.0,2.6474,2.6499,2.6499,0.0,0.0,2.6499,2.6109,0.0,0.0,0.0,0.0,0.0,0.0,0.0,0.0,0.0,0.0,2.3384,0.0,0.0,0.0,0.0,2.3519,0.0,0.0,0.0,0.0,0.0,0.0,0.0,0.0,0.0,0.0,0.0,0.0,0.0,0.0,0.0,0.0,0.0,1.9597,1.9058,1.9509,1.9823,1.9823,2.0427,2.1232,2.2284,2.1807,2.2058,2.3095,2.2581,2.2912,2.4029,2.4537,2.5109,2.5636,2.6235,2.6499,2.6499,2.6499,2.6499,2.6499,2.6499,2.6499,2.6499,2.6499,2.6499,2.6499,2.6452,2.6465,2.6524,0.0,0.0,0.0,0.0,0.0,0.0,0.0,2.9503,0.0,0.0,0.0,0.0,0.0,3.3514,3.3483,0.0,0.0,3.1888,3.1687,3.0645,0.0,0.0,0.0,2.9151,0.0,0.0,0.0,0.0,0.0,0.0,0.0,0.0,0.0,0.0,0.0,2.5946,0.0,0.0,0.0,0.0,0.0,2.6499,2.6499,0.0,2.6499,2.6499,2.6499,2.6499,0.0,2.6499,2.6361,2.6197,2.6197,2.5787,2.5335,2.5335,2.5096,0.0,0.0,0.0,2.5071,2.3979,0.0,0.0,0.0,0.0,0.0,0.0,0.0,0.0,0.0,0.0,0.0,0.0,0.0,0.0,0.0,0.0,0.0,0.0,0.0,0.0,0.0,0.0,0.0,1.902,1.9171,1.9447,1.9786,2.0702,2.1408,2.1757,2.2297,2.2732,2.3108,2.292,2.3208,2.4004,2.4525,2.5096,2.5611,2.6223,2.6285,2.5946,2.6336,2.6273,2.5946,2.6336,2.6499,2.6499,2.6499,2.6499,2.6499,2.6499,2.6499,2.6549,2.6788,0.0,0.0,0.0,0.0,0.0,0.0,0.0,0.0,0.0,3.3056,0.0,3.5357,0.0,3.5228,0.0,3.4361,3.337,3.2001,3.1461,0.0,2.9767,2.9955,0.0,0.0,0.0,0.0,0.0,0.0,2.714,0.0,0.0,0.0,0.0,0.0,2.6147,2.6461,2.6097,2.6147,0.0,0.0,2.6499,0.0,0.0,2.6499,2.6499,0.0,2.6499,2.6499,2.6499,2.6499,2.6499,2.6499,2.6235,2.59,2.59,2.5674,2.536,2.5146,2.5485,0.0,2.4556,2.4695,0.0,2.3659,0.0,0.0,0.0,0.0,0.0,0.0,0.0,0.0,0.0,0.0,0.0,0.0,0.0,0.0,0.0,0.0,0.0,0.0,0.0,1.9008,1.9008,1.9008,1.9146,0.0,0.0,2.1307,2.1481,2.2372,2.3007,2.3409,2.3409,2.3697,2.4293,2.4845,2.5272,2.5598,2.6021,2.5984,2.5598,2.5799,2.5774,2.5624,2.6034,2.6311,2.6499,2.6499,2.6499,2.6499,2.6499,2.6612,2.6839,2.7318,0.0,0.0,0.0,2.7406,0.0,0.0,0.0,3.224,0.0,3.3796,3.5031,3.5633,3.6194,3.6257,3.5671,3.5571,3.4405,3.1775,3.2014,0.0,0.0,2.9804,3.0066,2.9001,0.0,0.0,0.0,0.0,0.0,0.0,0.0,0.0,0.0,2.6499,0.0,2.6499,2.6499,2.6499,2.6499,2.6499,2.6499,2.6499,2.6499,2.6499,2.6499,2.6499,2.6499,2.6499,2.6499,2.6499,2.6499,2.6499,2.6499,2.6499,2.6499,2.6499,2.6373,2.5787,2.6072,2.6235,2.5134,0.0,0.0,0.0,0.0,2.4247,0.0,0.0,0.0,0.0,0.0,0.0,0.0,0.0,0.0,0.0,0.0,0.0,0.0,0.0,0.0,0.0,1.9271,1.8995,1.8958,1.8995,0.0,0.0,0.0,2.0968,2.1468,2.2046,2.2887,2.3991,2.4004,2.428,2.48,2.5347,2.5586,2.5561,2.5586,2.5573,2.5498,2.5059,2.5121,2.5561,2.5611,2.6009,2.6537,2.6499,2.6512,2.6537,2.6537,2.6864,2.7329,2.7896,2.777,2.7682,0.0,2.7921,2.8247,0.0,0.0,0.0,0.0,3.5529,3.7086,3.8479,3.8391,3.8002,3.7425,3.6621,0.0,0.0,0.0,0.0,3.1825,3.1047,3.0482,3.0181,2.9779,0.0,2.8888,0.0,0.0,2.7268,0.0,0.0,0.0,0.0,0.0,2.6499,2.6499,2.6499,2.6499,2.6499,2.6499,2.6499,0.0,2.6499,2.6499,2.6499,2.6499,2.6499,2.6499,2.6499,2.6499,2.6499,2.6499,2.6499,2.6499,2.6499,2.6461,2.6311,2.6386,2.6323,2.5573,2.5498,2.5423,0.0,0.0,0.0,0.0,0.0,0.0,0.0,0.0,0.0,0.0,0.0,0.0,0.0,0.0,0.0,0.0,0.0,0.0,0.0,1.8845,1.8832,1.8442,1.877,0.0,0.0,0.0,0.0,2.1509,2.2422,2.3246,2.3991,2.4004,2.428,2.48,2.5347,2.5398,2.5034,2.5423,2.5159,2.4443,2.5109,2.5259,2.5084,2.5933,2.66,2.7065,2.665,2.6738,2.7102,2.7102,2.719,2.7394,2.8461,0.0,0.0,2.8511,0.0,0.0,2.9993,3.126,0.0,3.4455,3.6157,0.0,3.8165,3.8617,3.8542,3.7713,3.7073,0.0,3.5207,0.0,0.0,3.2729,3.1574,3.0846,3.062,2.9829,0.0,2.9302,0.0,0.0,2.762,0.0,0.0,0.0,0.0,2.6499,2.6499,2.6499,2.6499,2.6499,2.6499,2.6499,0.0,2.6499,2.6499,2.6499,2.6499,2.6499,2.6499,2.6499,2.6499,2.6499,2.6499,2.6499,2.6499,2.6499,2.6499,2.6499,2.6499,2.6499,2.6411,2.6084,2.5975,2.5871,2.5285,2.5159,2.5159,0.0,0.0,0.0,0.0,0.0,0.0,0.0,0.0,0.0,0.0,0.0,0.0,0.0,0.0,0.0,0.0,0.0,1.887,1.8569,0.0,0.0,0.0,0.0,0.0,2.1493,2.3007,2.3998,2.4356,2.4833,2.5234,2.5536,2.5573,2.5435,2.5159,2.4983,2.4707,2.4381,2.4745,2.4996,2.5209,2.5824,2.6587,2.7268,2.7241,2.7218,2.7379,2.7821,2.7996,2.8097,2.9001,0.0,0.0,0.0,0.0,0.0,0.0,3.2416,0.0,3.4751,0.0,3.7199,3.6681,3.7926,3.8378,3.7274,0.0,3.6508,3.4926,3.4718,3.401,3.239,3.1725,3.1148,3.062,2.9465,2.9214,0.0,0.0,0.0,0.0,0.0,0.0,0.0,0.0,0.0,0.0,2.6499,2.6499,2.6499,2.6499,2.6499,2.6499,2.6499,2.6499,2.6499,2.6499,2.6499,2.6499,2.6499,2.6499,2.6499,2.6499,2.6499,2.6499,2.6499,2.6499,2.6499,2.6499,2.6499,2.6499,2.6499,2.6499,2.6361,2.5858,2.5711,2.5711,2.5711,2.5347,2.5008,0.0,0.0,0.0,0.0,0.0,0.0,0.0,0.0,0.0,0.0,0.0,0.0,0.0,0.0,0.0,0.0,0.0,0.0,0.0,0.0,0.0,2.1506,2.359,2.475,2.4888,0.0,2.6461,2.66,2.6021,2.5674,2.5561,2.4632,2.4431,2.4763,2.4507,2.4925,2.5798,2.584,2.6429,2.7344,2.7896,2.7858,2.7607,2.8574,2.8938,2.9001,2.9641,0.0,0.0,0.0,0.0,3.2641,3.3947,3.5378,3.6257,3.6141,3.7586,3.8354,3.7776,3.7977,3.7902,3.7249,3.7186,0.0,0.0,0.0,0.0,3.298,3.1938,3.1148,3.062,2.9465,2.9214,0.0,0.0,0.0,0.0,0.0,0.0,0.0,0.0,0.0,2.6499,2.6499,0.0,2.6499,2.6499,2.6499,2.6499,2.6499,2.6499,2.6499,2.6499,2.6499,2.6499,2.6499,2.6499,2.6499,2.6499,2.6499,2.6499,2.6499,2.6499,2.6499,2.6499,2.6499,2.6499,2.6499,2.6499,2.6461,2.6361,2.6336,2.6336,2.6336,2.6273,2.6059,2.5548,0.0,0.0,0.0,0.0,0.0,0.0,0.0,0.0,0.0,0.0,0.0,0.0,0.0,0.0,0.0,0.0,0.0,0.0,0.0,0.0,0.0,2.3213,0.0,0.0,0.0,2.6214,2.7165,2.6612,2.6097,2.5586,2.5398,2.5134,2.4865,2.5922,2.6502,2.6712,2.7164,2.7306,2.7344,2.7896,2.8323,2.8624,2.8813,2.9239,2.9641,0.0,0.0,0.0,0.0,0.0,0.0,0.0,3.6734,3.7312,3.6496,3.7121,3.7249,3.6395,3.7061,3.7362,3.6857,3.6496,3.6107,3.5533,3.4718,3.3935,3.3106,3.2001,0.0,3.062,2.9465,2.9214,2.9792,0.0,0.0,0.0,0.0,0.0,0.0,0.0,2.6499,0.0,0.0,0.0,2.6499,2.6499,2.6499,2.6499,2.6499,2.6499,2.6499,2.6499,2.6499,2.6499,2.6499,2.6499,2.6499,2.6499,2.6499,2.6499,2.6499,2.6499,2.6499,2.6499,2.6499,2.6499,2.6499,2.6499,2.6499,2.6499,2.6499,2.6499,2.6499,2.6499,2.6323,2.5699,2.4469,0.0,0.0,0.0,0.0,0.0,0.0,0.0,0.0,0.0,0.0,0.0,0.0,0.0,0.0,0.0,0.0,0.0,0.0,0.0,0.0,0.0,0.0,0.0,0.0,0.0,2.6889,2.6323,2.5862,2.5586,2.5322,2.5209,2.5234,2.5934,2.6412,2.6734,2.7267,2.7653,2.7974,2.8367,2.8662,2.8925,2.9264,2.9553,2.9792,0.0,3.1373,0.0,0.0,3.4161,0.0,3.6056,3.7224,3.7663,3.6697,3.6558,3.6157,3.5177,3.6232,3.6784,3.6245,3.5793,3.5395,3.5157,3.4274,3.342,3.2797,3.1763,3.0984,3.0457,2.9402,2.9214,0.0,0.0,0.0,0.0,0.0,0.0,0.0,0.0,0.0,0.0,0.0,2.6499,2.6499,2.6499,2.6499,2.6499,2.6499,2.6499,2.6499,2.6499,2.6499,2.6499,2.6499,2.6499,2.6499,2.6499,2.6499,2.6499,2.6499,2.6499,2.6499,2.6499,2.6499,2.6499,2.6499,2.6499,2.6499,2.6499,2.6499,2.6499,2.6499,2.6499,2.6323,2.5699,2.4644,0.0,0.0,0.0,0.0,0.0,0.0,0.0,0.0,0.0,0.0,0.0,0.0,0.0,0.0,0.0,0.0,0.0,0.0,0.0,0.0,0.0,2.5649,2.5774,0.0,2.6989,2.6663,2.6084,2.5774,2.5774,2.536,2.5385,2.5808,2.5962,2.6379,2.6951,2.7395,2.7969,2.8612,2.882,2.8963,2.9126,2.9628,2.9792,2.9792,0.0,0.0,0.0,0.0,0.0,0.0,3.5558,3.6985,3.7789,3.7186,3.7111,3.6872,3.6317,3.6392,3.6219,3.5621,3.552,3.5069,3.4123,3.3483,3.2667,3.1599,3.0997,3.0432,2.988,2.9214,2.9214,0.0,0.0,2.8109,0.0,0.0,0.0,0.0,0.0,0.0,0.0,2.6499,2.6499,2.6499,2.6499,2.6499,2.6499,2.6499,2.6499,2.6499,2.6499,2.6499,2.6499,2.6499,2.6499,2.6499,2.6499,2.6499,2.6499,2.6499,2.6499,2.6499,2.6499,2.6499,2.6499,2.6499,2.6499,2.6499,2.6499,2.6499,2.6499,2.6499,2.6499,2.6323,2.5699,2.5933,2.5707,0.0,0.0,0.0,0.0,0.0,0.0,0.0,0.0,0.0,0.0,2.0439,0.0,0.0,1.9685,0.0,0.0,0.0,0.0,2.2309,0.0,2.585,2.6411,2.6512,2.6801,2.7241,2.6688,2.6411,2.6411,2.6361,2.6361,2.6445,2.7172,2.7794,2.8318,2.8371,2.8582,2.8887,2.8888,2.9252,2.9716,2.9779,2.9792,2.9792,0.0,0.0,0.0,0.0,0.0,0.0,0.0,3.681,3.6935,3.6769,3.6973,3.7021,3.6468,3.6069,3.578,3.552,3.4893,3.4374,3.3935,3.3056,3.2202,3.1424,3.0896,3.0357,2.9804,2.9566,2.9566,0.0,0.0,0.0,0.0,0.0,0.0,0.0,0.0,2.7014,2.6512,2.6851,2.6801,2.6499,2.6499,2.6499,2.6499,2.6499,2.6499,2.6499,2.6499,2.6499,2.6499,2.6499,2.6499,2.6499,2.6499,2.6499,2.6499,2.6499,2.6499,2.6499,2.6499,2.6499,2.6499,2.6499,2.6499,2.6499,2.6499,2.6499,2.6499,2.6499,2.6499,2.6424,2.6185,2.6047,2.5724,0.0,0.0,0.0,0.0,0.0,0.0,0.0,0.0,0.0,0.0,0.0,0.0,0.0,0.0,0.0,0.0,0.0,0.0,2.3288,0.0,2.5561,2.6487,2.6499,2.66,2.6826,2.66,2.6499,2.6499,2.6499,2.6499,2.6521,2.685,2.7561,2.8452,2.7976,2.853,2.9619,2.91,2.9289,2.9792,2.9792,2.9792,2.9792,3.4537,0.0,3.4663,0.0,3.583,3.5592,3.6759,3.6656,3.6355,3.6144,3.6458,3.6609,3.643,3.5868,3.5433,3.527,3.4449,3.3759,3.342,3.2503,3.1738,3.1185,3.0658,0.0,2.9804,2.9792,2.9792,2.9792,2.9792,0.0,0.0,0.0,0.0,0.0,2.7595,2.7369,2.6763,2.7153,2.7002,2.6499,2.6499,2.6499,2.6499,2.6499,2.6499,2.6499,2.6499,2.6499,2.6499,2.6499,2.6499,2.6499,2.6499,2.6499,2.6499,2.6499,2.6499,2.6499,2.6499,2.6499,2.6499,2.6499,2.6499,2.6499,2.6499,2.6499,2.6499,2.6499,2.6499,2.6499,2.6499,2.616,2.5799,2.5624,0.0,0.0,0.0,0.0,0.0,0.0,2.2819,2.2594,2.2531,2.1907,0.0,0.0,0.0,0.0,0.0,0.0,0.0,0.0,0.0,0.0,2.6487,2.6499,2.6499,2.6499,2.6499,2.6499,2.6499,2.6499,2.6499,2.6499,2.6499,2.721,2.8347,2.7779,2.8547,3.0025,2.9391,2.9428,2.9792,2.9792,2.9792,2.9792,3.6044,3.5479,3.5228,3.6885,3.6757,3.6392,3.6417,3.6417,3.6169,3.5583,3.552,3.5768,3.6355,3.5868,3.5282,3.4776,3.4223,3.342,3.2303,3.1712,3.1173,0.0,0.0,2.9804,2.9792,2.9792,2.9792,2.9792,0.0,0.0,2.8888,0.0,2.8875,2.8863,2.8863,2.8298,2.7268,2.7281,2.7002,2.6499,2.6499,2.6499,2.6499,2.6499,2.6499,2.6499,2.6499,2.6499,2.6499,2.6499,2.6499,2.6499,2.6499,2.6499,2.6499,2.6499,2.6499,2.6499,2.6499,2.6499,2.6499,2.6499,2.6499,2.6499,2.6499,2.6499,2.6499,2.6499,2.6499,2.6499,2.6499,2.6487,2.6298,2.5686,0.0,0.0,0.0,0.0,0.0,0.0,2.2171,2.1933,2.2995,2.2133,0.0,0.0,0.0,0.0,0.0,0.0,0.0,2.3966,2.5034,0.0,2.6487,2.6499,2.6499,2.6499,2.6499,2.6499,2.6499,2.6499,2.6499,2.6499,2.6499,2.7115,2.8097,2.8097,2.8762,2.9818,2.9779,2.9779,2.9792,2.9792,2.9792,2.9792,3.6317,3.6094,3.6053,3.6581,3.6518,3.6405,3.6405,3.6405,3.6157,3.5571,3.5495,3.542,3.5265,3.4751,3.4349,0.0,3.3658,3.3018,0.0,3.17,3.116,3.0633,3.0093,2.9792,2.9792,2.9792,2.9792,2.9792,0.0,0.0,0.0,2.8888,2.8687,2.8386,2.8725,2.8524,2.7846,2.7846,2.7745,2.7519,2.6801,2.6713,2.7014,2.6637,2.6499,2.6499,2.6499,2.6499,2.6499,2.6499,2.6499,2.6499,2.6499,2.6499,2.6499,2.6499,2.6499,2.6499,2.6499,2.6499,2.6499,2.6499,2.6499,2.6499,2.6499,2.6499,2.6499,2.6499,2.6499,2.6499,2.6499,2.6499,2.6298,2.5686,2.5598,0.0,0.0,0.0,0.0,0.0,2.2794,2.2719,2.307,2.2443,0.0,0.0,0.0,0.0,0.0,0.0,0.0,0.0,2.5234,0.0,2.7052,2.6688,2.6688,2.7052,2.6675,2.6499,2.6512,2.6889,2.7052,2.704,2.6663,2.7341,2.8599,2.826,2.8775,2.9792,2.9792,2.9792,2.9792,2.9792,2.9792,2.9792,3.6405,3.6405,3.6405,3.6405,3.6405,3.6405,3.6405,3.6194,3.5855,3.527,3.5006,3.4668,3.4161,3.3796,0.0,3.3583,3.3081,3.2428,3.1662,3.1286,3.0859,3.0331,2.998,2.9792,2.9792,2.9792,0.0,2.9792,2.9792,2.9616,2.9252,2.9252,2.9063,2.875,2.9101,2.8938,2.8398,2.8197,2.7984,2.772,2.6851,2.67,2.6964,2.6625,2.6499,2.6499,2.6499,2.6499,2.6499,2.6499,2.6499,2.6499,2.6499,2.6499,2.6499,2.6499,2.6499,2.6499,2.6499,2.6499,2.6499,2.6499,2.6499,2.6499,2.6499,2.6499,2.6499,2.6499,2.6499,2.6499,2.6499,2.6499,2.6373,2.6009,2.5925,2.5536,2.4456,0.0,0.0,0.0,0.0,0.0,0.0,2.3183,2.3376,0.0,0.0,0.0,0.0,0.0,0.0,2.5096,2.5837,0.0,2.7582,2.7291,2.7178,2.7316,2.6964,2.6801,2.6826,2.7379,2.7595,2.757,2.7266,2.7783,2.8863,2.8561,2.8963,2.9792,2.9792,2.9792,2.9792,2.9792,2.9792,2.9792,3.6405,3.6405,3.6405,0.0,3.6405,0.0,3.6355,3.5868,3.5282,3.4738,3.4223,3.3684,3.3174,3.3124,3.3056,3.3061,0.0,0.0,0.0,3.0633,3.0369,2.9817,2.9792,2.9792,2.9792,2.9792,2.9792,2.9792,2.9792,2.9792,2.9792,2.9792,2.9792,2.9792,2.9792,2.949,2.8913,2.836,2.7833,2.7379,2.6751,2.6512,2.6549,2.6512,2.6499,2.6499,2.6499,2.6499,2.6499,2.6499,2.6499,2.6499,2.6499,2.6499,2.6499,2.6499,2.6499,2.6499,2.6499,2.6499,2.6499,2.6499,2.6499,2.6499,2.6499,2.6499,2.6499,2.6499,2.6499,2.6499,2.6499,2.6499,2.6474,2.6436,2.6436,2.6047,2.4888,0.0,0.0,0.0,0.0,0.0,0.0,2.4173,2.4374,0.0,0.0,0.0,0.0,0.0,2.5272,2.5649,2.6753,2.7607,2.816,2.8084,2.7795,2.7281,2.7318,2.7379,2.7356,2.7908,2.816,2.816,2.8122,2.8448,2.895,2.8913,2.9277,2.9792,2.9792,2.9792,2.9792,2.9792,2.9792,2.9792,0.0,0.0,3.6405,3.6405,3.6405,3.6267,3.5805,3.5583,3.5157,3.4223,3.3985,3.3684,3.3174,3.3124,3.2893,3.2453,3.229,3.1926,3.1248,3.0834,3.0369,2.9817,2.9792,2.9792,2.9792,2.9792,2.9792,2.9792,2.9792,2.9792,2.9792,2.9792,2.9792,2.9792,2.9792,2.9716,2.9528,2.8524,2.8273,2.8411,2.7052,2.6751,2.7077,2.665,2.6499,2.6499,2.6499,2.6499,2.6499,2.6499,2.6499,2.6499,2.6499,2.6499,2.6499,2.6499,2.6499,2.6499,2.6499,2.6499,2.6499,2.6499,2.6499,2.6499,2.6499,2.6499,2.6499,2.6499,2.6499,2.6499,2.6499,2.6499,2.6348,2.5908,2.5799,2.5423,2.4343,2.4525,0.0,0.0,2.4632,2.5008,2.4449,2.4625,2.4838,0.0,0.0,0.0,0.0,2.7193,2.7431,2.6323,2.7331,2.8185,2.87,2.7896,2.7419,2.7293,2.7708,2.7908,2.7934,2.8486,2.87,2.8675,2.8285,2.8674,2.9553,2.9076,2.9277,2.9792,2.9792,2.9792,2.9792,2.9792,2.9792,2.9792,3.6405,3.6405,3.6405,3.6405,3.6405,3.6182,3.5583,3.5282,3.4818,3.401,3.3684,3.3407,3.3106,3.3124,3.2955,3.2641,3.2139,3.1612,3.1072,3.0532,3.0105,2.9804,2.9792,2.9792,2.9792,2.9792,2.9792,2.9792,2.9792,2.9792,2.9792,2.9792,2.9792,2.9792,2.9792,2.9641,2.934,2.8473,2.8134,2.8072,2.6952,2.6675,2.6901,2.6612,2.6499,2.6499,2.6499,2.6499,2.6499,2.6499,2.6499,2.6499,2.6499,2.6499,2.6499,2.6499,2.6499,2.6499,2.6499,2.6499,2.6499,2.6499,2.6499,2.6499,2.6499,2.6499,2.6499,2.6499,2.6499,2.6499,2.6499,2.6273,2.5996,2.5649,2.5398,2.4958,2.4117,2.4469,0.0,2.4406,2.5335,2.5921,2.5598,2.6025,2.6226,2.6047,2.6691,0.0,2.6876,2.8411,2.8674,2.7291,2.8298,2.9026,2.9315,2.8461,2.8034,2.8034,2.8335,2.8486,2.8461,2.9063,2.9327,2.9315,2.9001,2.9227,2.9767,2.9453,2.9503,2.9792,2.9792,2.9792,2.9792,2.9792,2.9792,2.9792,3.6405,3.6405,3.6405,3.6405,3.6405,3.6144,3.547,3.4981,3.45,3.3859,3.337,3.3124,3.3124,3.3124,3.3124,3.3124,3.2039,3.1198,3.0758,3.0143,2.9792,2.9792,2.9792,2.9792,2.9792,2.9792,2.9792,2.9792,2.9792,2.9792,2.9792,2.9792,2.9792,2.9792,2.9691,2.939,2.885,2.8247,2.7708,2.7231,2.6713,2.6499,2.6499,2.6499,2.6499,2.6499,2.6499,2.6499,2.6499,2.6499,2.6499,2.6499,2.6499,2.6499,2.6499,2.6499,2.6499,2.6499,2.6499,2.6499,2.6499,2.6499,2.6499,2.6499,2.6499,2.6499,2.6499,2.6499,2.6499,2.6499,2.6499,2.6084,2.5724,2.5724,2.5222,2.4682,2.4293,0.0,2.4938,2.5059,2.6113,2.6839,2.6751,2.7557,2.7758,2.6927,2.8059,2.8473,2.7708,2.9013,2.9352,2.8398,2.9302,2.9754,2.9666,2.9176,2.8888,2.8888,2.8888,2.8938,2.9038,2.9566,2.9792,2.9792,2.9792,2.9792,2.9792,2.9792,2.9792,2.9792,2.9792,2.9792,2.9792,2.9792,2.9792,2.9792,3.6405,3.6405,3.6405,3.6405,3.6405,3.6019,3.5002,3.4731,3.4361,3.3332,3.3174,3.3124,3.3124,3.3124,3.3124,3.3124,3.2039,3.1348,3.1273,3.0344,2.9792,2.9792,2.9792,2.9792,2.9792,2.9792,2.9792,2.9792,2.9792,2.9792,2.9792,2.9792,2.9792,2.9779,2.9289,2.8976,2.8825,2.7846,2.7369,2.7231,2.6713,2.6499,2.6499,2.6499,2.6499,2.6499,2.6499,2.6499,2.6499,2.6499,2.6499,2.6499,2.6499,2.6499,2.6499,2.6499,2.6499,2.6499,2.6499,2.6499,2.6499,2.6499,2.6499,2.6499,2.6499,2.6499,2.6499,2.6499,2.6499,2.6499,2.6499,2.6411,2.6361,2.6361,2.5473,2.4946,2.5297,0.0,2.5649,2.6185,2.7595,2.836,2.7896,2.8009,2.8235,2.8524,2.8348,2.8574,2.9365,2.9654,2.9716,2.9541,2.9704,2.9566,2.9026,2.8938,2.8888,2.8888,2.8888,2.9189,2.9666,2.9754,2.9792,2.9792,2.9792,2.9792,2.9792,2.9792,2.9792,2.9792,2.9792,2.9792,2.9792,2.9792,2.9792,2.9792,3.6405,3.6405,3.6405,3.6405,3.6405,3.604,3.4889,3.4931,3.4618,3.3257,3.3332,3.3407,3.3106,3.3124,3.3124,3.3124,3.2315,3.1712,3.1411,3.0394,2.9792,2.9792,2.9792,2.9792,2.9792,2.9792,2.9792,2.9792,2.9792,2.9792,2.9792,2.9792,2.9792,2.9779,2.9515,2.9051,2.8448,2.7946,2.7381,2.6851,2.66,2.6499,2.6524,2.6826,2.6939,2.6939,2.6939,2.6939,2.6889,2.66,2.6499,2.6499,2.6499,2.67,2.6939,2.6939,2.6939,2.6876,2.6575,2.6713,2.6864,2.6562,2.6499,2.6499,2.6499,2.6725,2.6939,2.6939,2.7178,2.7344,2.7344,2.6901,2.6587,2.6889,2.5737,0.0,0.0,2.5862,2.6311,2.6876,2.8109,2.8913,2.9013,2.9013,2.9126,2.9377,2.9164,2.9252,2.9767,2.9792,2.9792,2.9792,2.9792,2.9666,2.9402,2.939,2.939,2.939,2.939,2.9528,2.9792,2.9792,2.9792,2.9792,2.9792,2.9792,2.9792,2.9792,2.9792,2.9792,2.9792,2.9792,2.9792,2.9792,2.9792,2.9792,3.6405,3.6405,3.6405,3.6405,3.6405,3.6078,3.5064,3.5119,3.4806,3.3458,3.352,3.3545,3.3119,3.3124,3.3124,3.3124,3.2554,3.2039,3.1612,3.0583,2.993,2.9804,2.9792,2.9792,2.9792,2.9792,2.9792,2.9792,2.9792,2.9792,2.9792,2.9792,2.9792,2.9779,2.9654,2.9038,2.8097,2.7971,2.7392,2.6499,2.6499,2.6499,2.6549,2.7102,2.7281,2.7281,2.7281,2.7281,2.7241,2.6688,2.6575,2.6688,2.6688,2.7065,2.7469,2.7469,2.7557,2.7544,2.7027,2.719,2.7369,2.6977,2.6876,2.6876,2.6876,2.7203,2.7469,2.7469,2.7808,2.8109,2.8109,2.7419,2.7014,2.7406,0.0,0.0,0.0,2.66,2.7077,2.7607,2.8536,2.9302,2.9754,2.9792,2.9792,2.9792,2.9792,2.9792,2.9792,2.9792,2.9792,2.9792,2.9792,2.9792,2.9792,2.9792,2.9792,2.9792,2.9792,2.9792,2.9792,2.9792,2.9792,2.9792,2.9792,2.9792,2.9792,2.9792,2.9792,2.9792,2.9792,2.9934,3.0113,2.9895,2.9934,3.0101,3.6405,3.6405,3.6405,3.6405,3.6405,3.6157,3.5533,3.5044,3.4562,3.3922,3.3432,3.3162,3.3081,3.3124,3.3124,3.3124,3.2554,3.219,3.2152,3.1148,3.0331,2.9817,2.9792,2.9792,2.9792,2.9792,2.9792,2.9792,2.9792,2.9792,2.9792,2.9792,2.9792,2.9767,2.9239,2.8624,2.8072,2.7557,2.704,2.6499,2.6499,2.6499,2.6549,2.7102,2.7281,2.7281,2.7281,2.7281,2.7241,2.6688,2.6839,2.7218,2.7218,2.7607,2.8047,2.8047,2.8411,2.865,2.8134,2.8009,2.8034,2.7996,2.7984,2.7984,2.7984,2.8009,2.8047,2.8047,2.8084,2.8109,2.8109,2.8047,2.7996,2.8034,0.0,0.0,2.7846,2.7959,2.8185,2.87,2.9352,2.9741,2.9792,2.9792,2.9792,2.9792,2.9792,2.9792,2.9792,2.9792,2.9792,2.9792,2.9792,2.9792,2.9792,2.9792,2.9792,2.9792,2.9792,2.9792,2.9792,2.9792,2.9792,2.9792,2.9792,2.9792,2.9792,2.9792,2.9792,2.9792,2.9792,3.0317,3.1007,3.0101,3.0343,3.097,3.6405,3.6405,3.6405,3.6405,3.6405,3.6182,3.5583,3.532,3.4868,3.401,3.3721,3.3458,3.3162,3.3124,3.3124,3.3124,3.288,3.2591,3.224,3.1838,3.1072,2.9842,2.9792,2.9792,2.9792,2.9792,2.9792,2.9792,2.9792,2.9792,2.9792,2.9792,2.9792,2.9779,2.9566,2.8963,2.8097,2.7883,2.7268,2.6499,2.6499,2.6499,2.6587,2.7457,2.7795,2.7795,2.7795,2.7795,2.7708,2.719,2.714,2.7379,2.7682,2.8172,2.8687,2.9051,2.9302,2.9415,2.9214,2.8888,2.8536,2.8185,2.8109,2.8109,2.8109,2.8373,2.8612,2.8612,2.89,2.9151,2.9151,2.8863,2.8737,2.9089,0.0,2.7984,2.8499,2.8612,2.865,2.8863,2.944,2.9792,2.9792,2.9792,2.9792,2.9792,2.9792,2.9792,2.9792,2.9792,2.9792,2.9792,2.9792,2.9792,2.9792,2.9792,2.9792,2.9792,2.9792,2.9792,2.9792,2.9792,2.9792,2.9792,2.9792,2.9792,2.9792,2.9792,2.9792,2.9792,2.9792,3.0381,3.1143,3.0796,3.0895,3.1143,3.6405,3.6405,3.6405,3.6405,3.6405,3.6279,3.5868,3.5608,3.5169,3.4274,3.401,3.3684,3.3174,3.3124,3.3124,3.3124,3.3124,3.2905,3.2503,3.2152,3.1386,3.0105,3.0043,2.9967,2.9792,2.9792,2.9792,2.9792,2.9792,2.9792,2.9792,2.9792,2.9792,2.9792,2.9792,2.9264,2.8348,2.8185,2.757,2.6751,2.6751,2.6751,2.6876,2.7946,2.836,2.836,2.836,2.836,2.8285,2.772,2.7657,2.7871,2.8247,2.875,2.9277,2.9679,2.9792,2.9792,2.9792,2.9503,2.9101,2.8725,2.8637,2.8637,2.8637,2.8925,2.9202,2.9202,2.9515,2.9792,2.9792,2.9465,2.9327,2.9729,2.9139,2.8762,2.9151,2.9202,2.9202,2.9202,2.9553,2.9792,2.9792,2.9792,2.9792,2.9792,2.9792,2.9792,2.9792,2.9792,2.9792,2.9792,2.9792,2.9792,2.9792,2.9792,2.9792,2.9792,2.9792,2.9792,2.9792,2.9792,2.9792,2.9792,2.9792,2.9792,2.9792,2.9792,2.9792,2.983,3.0101,3.0809,3.1646,3.1646,3.1815,3.1997,3.6405,3.6405,3.6405,3.6405,3.6405,3.6405,3.6405,3.5893,3.5307,3.4801,3.4248,3.3696,3.3144,3.3124,3.3124,3.3124,3.3124,3.3124,3.3124,3.2026,3.1173,3.0645,3.062,3.0357,2.9804,2.9792,2.9792,2.9792,2.9792,2.9792,2.9792,2.9792,2.9792,2.9792,2.9792,2.9465,2.885,2.8335,2.7795,2.7329,2.7329,2.7329,2.7406,2.8511,2.8888,2.8888,2.8888,2.8888,2.8813,2.8298,2.8473,2.8888,2.89,2.9327,2.9792,2.9792,2.9792,2.9792,2.9792,2.9792,2.9792,2.9792,2.9792,2.9792,2.9792,2.9792,2.9792,2.9792,2.9792,2.9792,2.9792,2.9792,2.9792,2.9792,2.9792,2.9792,2.9792,2.9792,2.9792,2.9792,2.9792,2.9792,2.9792,2.9792,2.9792,2.9792,2.9792,2.9792,2.9792,2.9792,2.9792,2.9792,2.9792,2.9792,2.9792,2.9792,2.9792,2.9792,2.9792,2.9792,2.9792,2.9792,2.9792,2.9792,2.9792,2.9792,2.9792,2.9792,2.9792,2.9895,3.0833,3.1779,3.2593,3.2593,3.3206,3.3739,3.6405,3.6405,3.6405,3.6405,3.6405,3.6405,3.6405,3.5893,3.5445,3.527,3.4487,3.3834,3.3671,3.3307,3.3124,3.3124,3.3124,3.3124,3.3124,3.2767,3.2152,3.1198,3.0444,2.9955,2.9792,2.9792,2.9792,2.9792,2.9792,2.9792,2.9792,2.9792,2.9792,2.9779,2.9365,2.9051,2.885,2.8335,2.8009,2.7858,2.7858,2.7858,2.7946,2.8612,2.8888,2.8888,2.8888,2.8888,2.8863,2.87,2.875,2.8963,2.9402,2.9654,2.9792,2.9792,2.9792,2.9792,2.9792,2.9792,2.9792,2.9792,2.9792,2.9792,2.9792,2.9792,2.9792,2.9792,2.9792,2.9792,2.9792,2.9792,2.9792,2.9792,2.9792,2.9792,2.9792,2.9792,2.9792,2.9792,2.9792,2.9792,2.9792,2.9792,2.9792,2.9792,2.9792,2.9792,2.9792,2.9792,2.9792,2.9792,2.9792,2.9792,2.9792,2.9792,2.9792,2.9792,2.9792,2.9792,2.9792,2.9792,2.9792,2.9792,2.9792,2.9792,2.9792,2.9792,2.9792,2.9895,3.0833,3.1779,3.2664,3.3345,3.3774,3.3842,3.6405,3.6405,3.6405,3.6405,3.6405,3.6405,3.6405,3.6081,3.5793,3.552,3.4919,3.4387,3.3947,3.3608,3.3319,3.3136,3.3124,3.3124,3.3124,3.2867,3.2428,3.175,3.0696,3.0018,2.9792,2.9792,2.9792,2.9792,2.9792,2.9792,2.9792,2.9792,2.9792,2.9779,2.9428,2.9277,2.9239,2.8674,2.8436,2.8436,2.8436,2.8436,2.8499,2.9051,2.9277,2.9277,2.9277,2.9277,2.9277,2.9277,2.9277,2.934,2.9679,2.9792,2.9792,2.9792,2.9792,2.9792,2.9792,2.9792,2.9792,2.9792,2.9792,2.9792,2.9792,2.9792,2.9792,2.9792,2.9792,2.9792,2.9792,2.9792,2.9792,2.9792,2.9792,2.9792,2.9792,2.9792,2.9792,2.9792,2.9792,2.9792,2.9792,2.9792,2.9792,2.9792,2.9792,2.9792,2.9792,2.9792,2.9792,2.9792,2.9792,2.9792,2.9792,2.9792,2.9792,2.9792,2.9792,2.9792,2.9792,2.9792,2.9792,2.9792,2.9792,2.9792,2.9792,2.9792,2.9792,2.9895,3.0833,3.1779,3.2713,3.3671,3.4245,3.4476,3.6405,3.6405,3.6405,3.6405,3.6405,3.6405,3.6405,3.6405,3.6182,3.5633,3.552,3.5119,3.4161,3.401,3.3771,3.3269,3.3224,3.3156,3.3156,3.2604,3.2265,3.2215,3.1273,3.0482,2.988,2.9817,2.9792,2.9792,2.9792,2.9792,2.9792,2.9792,2.9792,2.9792,2.9741,2.9741,2.9754,2.9176,2.8913,2.8963,2.8963,2.8963,2.9026,2.9591,2.9792,2.9792,2.9792,2.9792,2.9792,2.9792,2.9792,2.9792,2.9792,2.9792,2.9792,2.9792,2.9792,2.9792,2.9792,2.9792,2.9792,2.9792,2.9792,2.9792,2.9792,2.9792,2.9792,2.9792,2.9792,2.9804,2.9854,2.9867,2.988,2.993,2.9892,2.9867,2.9867,2.9829,2.9792,2.9792,2.9792,2.9817,2.9867,2.9867,2.9842,2.9792,2.9792,2.9792,2.9792,2.9895,2.9908,2.9792,2.9895,2.9895,2.9792,2.9792,2.9792,2.9792,2.9792,2.9792,2.9792,2.9792,2.9792,2.9792,2.9792,2.9792,2.9792,2.9792,2.9792,2.9895,3.0833,3.1779,3.2713,3.3671,3.4658,3.5359,3.6405,3.6405,3.6405,3.6405,3.6405,3.6405,3.6405,3.6405,3.6367,3.6194,3.5805,3.5408,3.5169,3.4756,3.45,3.4374,3.3972,3.3721,3.3721,3.3206,3.2692,3.2227,3.1989,3.1424,3.0457,3.0018,2.9792,2.9792,2.9792,2.9792,2.9792,2.9792,2.9792,2.9779,2.9315,2.9365,2.9754,2.9176,2.9189,2.9603,2.9603,2.9603,2.9616,2.9741,2.9792,2.9792,2.9792,2.9792,2.9792,2.9792,2.9792,2.9792,2.9792,2.9792,2.9792,2.9792,2.9792,2.9792,2.9792,2.9792,2.9792,2.9792,2.9792,2.9792,2.9792,2.9792,2.9792,2.9792,2.9792,2.993,3.0357,3.0432,3.057,3.0972,3.0696,3.0432,3.0432,3.0068,2.9792,2.9792,2.9792,2.9967,3.0394,3.0432,3.0256,2.9829,2.9792,2.9792,2.9792,3.0482,3.0558,2.983,3.052,3.0558,2.9792,2.9792,2.9792,2.9792,2.9792,2.9792,2.9792,2.9792,2.9792,2.9792,2.9792,2.9792,2.9792,2.9792,2.9792,2.9895,3.0833,3.1779,3.2713,3.3671,3.4658,3.5246,3.6405,3.6405,3.6405,3.6405,3.6405,3.6405,3.6405,3.6405,3.6405,3.6405,3.5881,3.5495,3.5495,3.4768,3.4223,3.396,3.3909,3.3784,3.352,3.3275,3.2943,3.2641,3.2353,3.1825,3.0997,3.0457,3.0055,2.9792,2.9792,2.9792,2.9792,2.9792,2.9792,2.9779,2.9478,2.9503,2.9779,2.9465,2.9515,2.9792,2.9792,2.9792,2.9792,2.9792,2.9792,2.9792,2.9792,2.9792,2.9792,2.9792,2.9792,2.9792,2.9792,2.9792,2.9792,2.9792,2.9792,2.9792,2.9792,2.9792,2.9792,2.9792,2.9792,2.9792,2.9792,2.9792,2.9792,2.9792,2.9993,3.0269,3.057,3.0821,3.1072,3.1348,3.116,3.0984,3.0984,3.0733,3.0557,3.0557,3.0557,3.067,3.0959,3.0758,3.0495,3.0206,2.9942,2.9792,2.9792,3.0696,3.097,3.0482,3.0932,3.118,3.1132,3.0696,3.0696,3.1132,3.0216,2.9792,2.9792,2.9792,2.9792,2.9792,2.9792,2.9792,2.9792,2.9792,2.9792,2.9869,3.0343,3.1365,3.2664,3.3136,3.4259,3.5279,3.6405,3.6405,3.6405,3.6405,3.6405,3.6405,3.6405,3.6405,3.6405,3.6405,3.5968,3.5633,3.5633,3.5032,3.4382,3.3837,3.4277,3.4295,3.3576,3.3406,3.3283,3.3124,3.2616,3.2102,3.1549,3.111,3.0532,2.9792,2.9792,2.9792,2.9792,2.9792,2.9792,2.9792,2.9792,2.9792,2.9792,2.9792,2.9792,2.9792,2.9792,2.9792,2.9792,2.9792,2.9792,2.9792,2.9792,2.9792,2.9792,2.9792,2.9792,2.9792,2.9792,2.9792,2.9817,2.9905,2.993,2.993,2.993,2.993,2.9905,2.9817,2.9792,2.9792,2.9792,2.9867,2.993,2.993,3.0369,3.0771,3.0871,3.1235,3.1562,3.1662,3.1599,3.1537,3.1537,3.1449,3.1386,3.1386,3.1474,3.1499,3.1399,3.1085,3.0859,3.0758,3.0244,2.993,2.993,3.0748,3.1217,3.1217,3.1482,3.1963,3.2745,3.2108,3.2162,3.2911,3.1079,3.0164,3.0037,2.9856,2.9792,2.9792,2.9792,2.9792,2.9792,2.9792,2.9792,2.9792,2.9792,3.0959,3.2629,3.2961,3.4124,3.5359,3.6405,3.6405,3.6405,3.6405,3.6405,3.6405,3.6405,3.6405,3.6405,3.6405,3.6342,3.6304,3.6304,3.7031,3.7271,3.6619,3.7171,3.6872,3.5286,3.4745,3.4079,3.3154,3.3006,3.2692,3.2114,3.2026,3.1273,2.9792,2.9792,2.9792,2.9792,2.9792,2.9792,2.9792,2.9792,2.9792,2.9792,2.9792,2.9792,2.9792,2.9792,2.9792,2.9792,2.9792,2.9792,2.9792,2.9792,2.9792,2.9792,2.9792,2.9792,2.9792,2.9792,2.9792,2.988,3.0369,3.0507,3.0507,3.0507,3.0507,3.0394,2.9917,2.9792,2.9792,2.9792,3.0168,3.0507,3.0507,3.0922,3.1436,3.1913,3.2051,3.2265,3.2767,3.2428,3.2102,3.2102,3.1687,3.1386,3.1386,3.1813,3.1913,3.1436,3.175,3.18,3.1323,3.0796,3.0507,3.0507,3.0917,3.1217,3.1217,3.2558,3.3344,3.3453,3.3919,3.4195,3.4307,3.264,3.1581,3.097,3.0177,2.9792,2.9792,2.9792,2.9792,2.9792,2.9792,2.9792,2.9792,2.9792,3.0959,3.282,3.4491,3.5279,3.5359,3.6405,3.6405,3.6405,3.6405,3.6405,3.6405,3.6405,3.6405,3.6405,3.6405,3.6094,3.6286,3.725,3.8086,3.791,3.6322,3.7011,3.6811,3.5169,3.485,3.4233,3.3154,3.3124,3.2805,3.2227,3.2215,3.1712,3.0683,3.0394,3.0093,2.9792,2.9792,2.9792,2.9792,2.9792,2.9792,2.9792,2.9792,2.9792,2.9792,2.9792,2.9792,2.9792,2.9792,2.9792,2.9792,2.9792,2.9792,2.9792,2.9792,2.9792,2.9792,2.9792,2.9792,2.9905,3.0457,3.062,3.0683,3.0972,3.1047,3.0984,3.0746,3.047,3.0331,3.062,3.0871,3.0972,3.067,3.1273,3.1926,3.2177,3.2478,3.278,3.3074,3.2867,3.2692,3.2692,3.2478,3.2328,3.2328,3.2554,3.2604,3.2353,3.2265,3.2114,3.1863,3.1348,3.1047,3.1047,3.1733,3.2105,3.2105,3.3343,3.4311,3.4887,3.5228,3.5661,3.6142,3.4302,3.2831,3.1706,3.0394,2.9792,2.9792,2.9792,2.9792,2.9792,2.9792,2.9792,2.9792,2.9792,3.0959,3.2855,3.4773,3.5504,3.5439]}]]